[[{"header":{"parameterUnit":"m.s-1","parameterCategory":1,"la1":30.6,"la2":29.2853,"lo1":-89.7004,"lo2":-87.6739,"dy":0.0162,"dx":0.0183,"nx":112,"ny":82,"refTime":"2023-08-23T06:00:00:Z","depth":0,"parameterNumber":2,"parameterNumberName":"U-component_of_WINDS"},"data":[0.0,0.0,0.0,0.0,0.0,0.0,0.0,0.0,0.0,0.0,0.0,0.0,0.0,0.0,0.0,0.0,0.0,0.0,0.0,0.0,0.0,0.0,0.0,0.0,0.0,0.0,0.0,0.0,0.0,0.0,0.0,0.0,0.0,0.0,0.0,0.0,0.0,0.0,0.0,0.0,0.0,0.0,0.0,0.0,0.0,0.0,0.0,0.0,0.0,0.0,0.0,0.0,0.0,0.0,0.0,0.0,0.0,0.0,0.0,0.0,0.0,0.0,0.0,0.0,0.0,0.0,0.0,0.0,0.0,0.0,0.0,0.0,0.0,0.0,0.0,0.0,0.0,0.0,0.0,0.0,0.0,0.0,0.0,0.0,0.0,0.0,0.0,0.0,0.0,0.0,0.0,2.0304,1.839,1.6445,1.425,1.5054,1.6191,1.7253,0.0,0.0,0.0,0.0,0.0,0.0,0.0,0.0,0.0,0.0,0.0,0.0,0.0,0.0,0.0,0.0,0.0,0.0,0.0,0.0,0.0,0.0,0.0,0.0,0.0,0.0,0.0,0.0,0.0,0.0,0.0,0.0,0.0,0.0,0.0,0.0,0.0,0.0,0.0,0.0,0.0,0.0,0.0,0.0,0.0,0.0,0.0,0.0,0.0,0.0,0.0,0.0,0.0,0.0,0.0,0.0,0.0,0.0,0.0,0.0,0.0,0.0,0.0,0.0,0.0,0.0,0.0,0.0,0.0,0.0,0.0,0.0,0.0,0.0,0.0,0.0,0.0,0.0,0.0,0.0,0.0,0.0,0.0,0.0,0.0,0.0,0.0,0.0,0.0,0.0,0.0,0.0,0.0,0.0,0.0,0.0,0.0,0.0,0.0,0.0,0.0,0.0,0.0,0.0,2.1084,1.8132,1.7496,1.6445,1.425,1.5054,1.6191,1.7253,0.0,0.0,0.0,0.0,0.0,0.0,0.0,0.0,0.0,0.0,0.0,0.0,0.0,0.0,0.0,0.0,0.0,0.0,0.0,0.0,0.0,0.0,0.0,0.0,0.0,0.0,0.0,0.0,0.0,0.0,0.0,0.0,0.0,0.0,0.0,0.0,0.0,0.0,0.0,0.0,0.0,0.0,0.0,0.0,0.0,0.0,0.0,0.0,0.0,0.0,0.0,0.0,0.0,0.0,0.0,0.0,0.0,0.0,0.0,0.0,0.0,0.0,0.0,0.0,0.0,0.0,0.0,0.0,0.0,0.0,0.0,0.0,0.0,0.0,0.0,0.0,0.0,0.0,0.0,0.0,0.0,0.0,0.0,0.0,0.0,0.0,0.0,0.0,0.0,0.0,0.0,0.0,0.0,0.0,0.0,0.0,0.0,0.0,0.0,0.0,0.0,0.0,0.0,2.1821,2.0197,1.7577,1.7342,1.6445,1.425,1.4573,1.5304,1.6355,1.6919,0.0,0.0,0.0,0.0,0.0,0.0,0.0,0.0,0.0,0.0,0.0,0.0,0.0,0.0,0.0,0.0,0.0,0.0,0.0,0.0,0.0,0.0,0.0,0.0,0.0,0.0,0.0,0.0,0.0,0.0,0.0,0.0,0.0,0.0,0.0,0.0,0.0,0.0,0.0,0.0,0.0,0.0,0.0,0.0,0.0,0.0,0.0,0.0,0.0,0.0,0.0,0.0,0.0,0.0,0.0,0.0,0.0,0.0,0.0,0.0,0.0,0.0,0.0,0.0,0.0,0.0,0.0,0.0,0.0,0.0,0.0,0.0,0.0,0.0,0.0,0.0,0.0,0.0,0.0,0.0,0.0,0.0,0.0,0.0,0.0,0.0,0.0,0.0,0.0,0.0,0.0,0.0,0.0,0.0,0.0,0.0,0.0,0.0,0.0,0.0,0.0,0.0,2.1001,1.9756,1.7504,1.7342,1.6445,1.425,1.4328,1.4817,1.5621,1.5696,0.0,0.0,0.0,0.0,0.0,0.0,0.0,0.0,0.0,0.0,0.0,0.0,0.0,0.0,0.0,0.0,0.0,0.0,0.0,0.0,0.0,0.0,0.0,0.0,0.0,0.0,0.0,0.0,0.0,0.0,0.0,0.0,0.0,0.0,0.0,0.0,0.0,0.0,0.0,0.0,0.0,0.0,0.0,0.0,0.0,0.0,0.0,0.0,0.0,0.0,0.0,0.0,0.0,0.0,0.0,0.0,0.0,0.0,0.0,0.0,0.0,0.0,0.0,0.0,0.0,0.0,0.0,0.0,0.0,0.0,0.0,0.0,0.0,0.0,0.0,0.0,0.0,0.0,0.0,0.0,0.0,0.0,0.0,0.0,0.0,0.0,0.0,0.0,0.0,0.0,0.0,0.0,0.0,0.0,0.0,0.0,0.0,0.0,0.0,0.0,0.0,0.0,2.0644,1.9756,1.7504,1.7342,1.6445,1.425,1.497,1.5621,1.5696,1.5696,0.0,0.0,0.0,0.0,0.0,0.0,0.0,0.0,0.0,0.0,0.0,0.0,0.0,0.0,0.0,0.0,0.0,0.0,0.0,0.0,0.0,0.0,0.0,0.0,0.0,0.0,0.0,0.0,0.0,0.0,0.0,0.0,0.0,0.0,0.0,0.0,0.0,0.0,0.0,0.0,0.0,0.0,0.0,0.0,0.0,0.0,0.0,0.0,0.0,0.0,0.0,0.0,0.0,0.0,0.0,0.0,0.0,0.0,0.0,0.0,0.0,0.0,0.0,0.0,0.0,0.0,0.0,0.0,0.0,0.0,0.0,0.0,0.0,0.0,0.0,0.0,0.0,0.0,0.0,0.0,0.0,0.0,0.0,0.0,0.0,0.0,0.0,0.0,0.0,0.0,0.0,0.0,0.0,0.0,0.0,0.0,0.0,0.0,0.0,0.0,0.0,0.0,2.0566,1.9756,0.0,1.7342,1.6445,1.425,1.4489,1.4734,1.4734,0.0,0.0,0.0,0.0,0.0,0.0,0.0,0.0,0.0,0.0,0.0,0.0,0.0,0.0,0.0,0.0,0.0,0.0,0.0,0.0,0.0,0.0,0.0,0.0,0.0,0.0,0.0,0.0,0.0,0.0,0.0,0.0,0.0,0.0,0.0,0.0,0.0,0.0,0.0,0.0,0.0,0.0,0.0,0.0,0.0,0.0,0.0,0.0,0.0,0.0,0.0,0.0,0.0,0.0,0.0,0.0,0.0,0.0,0.0,0.0,0.0,0.0,0.0,0.0,0.0,0.0,0.0,0.0,0.0,0.0,0.0,0.0,0.0,0.0,0.0,0.0,0.0,0.0,0.0,0.0,0.0,0.0,0.0,0.0,0.0,0.0,0.0,0.0,0.0,0.0,0.0,0.0,0.0,0.0,0.0,0.0,0.0,0.0,0.0,0.0,0.0,0.0,2.0566,2.0323,1.9353,0.0,1.7009,1.6034,1.425,1.4088,1.4088,1.4088,0.0,0.0,0.0,0.0,0.0,0.0,0.0,0.0,0.0,0.0,0.0,0.0,0.0,0.0,0.0,0.0,0.0,0.0,0.0,0.0,0.0,0.0,0.0,0.0,0.0,0.0,0.0,0.0,0.0,0.0,0.0,0.0,0.0,0.0,0.0,0.0,0.0,0.0,0.0,0.0,0.0,0.0,0.0,0.0,0.0,0.0,0.0,0.0,0.0,0.0,0.0,0.0,0.0,0.0,0.0,0.0,0.0,0.0,0.0,0.0,0.0,0.0,0.0,0.0,0.0,0.0,0.0,0.0,0.0,0.0,0.0,0.0,0.0,0.0,0.0,0.0,0.0,0.0,0.0,0.0,0.0,0.0,0.0,0.0,0.0,0.0,0.0,0.0,0.0,0.0,0.0,0.0,0.0,0.0,0.0,0.0,0.0,0.0,0.0,0.0,0.0,0.0,2.0566,1.9678,1.8559,1.7423,1.6355,1.5304,1.4166,1.4088,1.4088,0.0,0.0,0.0,0.0,0.0,0.0,0.0,0.0,0.0,0.0,0.0,0.0,0.0,0.0,0.0,0.0,0.0,0.0,0.0,0.0,0.0,0.0,0.0,0.0,0.0,0.0,0.0,0.0,0.0,0.0,0.0,0.0,0.0,0.0,0.0,0.0,0.0,0.0,0.0,0.0,0.0,0.0,0.0,0.0,0.0,0.0,0.0,0.0,0.0,0.0,0.0,0.0,0.0,0.0,0.0,0.0,0.0,0.0,0.0,0.0,0.0,0.0,0.0,0.0,0.0,0.0,0.0,0.0,0.0,0.0,0.0,0.0,0.0,0.0,0.0,0.0,0.0,0.0,0.0,0.0,0.0,0.0,0.0,0.0,0.0,0.0,0.0,0.0,0.0,0.0,0.0,0.0,0.0,0.0,0.0,0.0,0.0,0.0,0.0,0.0,0.0,0.0,0.0,1.9599,1.9204,1.8301,1.6355,1.5861,1.5304,1.4166,1.4088,1.4088,1.4088,0.0,0.0,0.0,0.0,0.0,0.0,0.0,0.0,0.0,0.0,0.0,0.0,0.0,0.0,0.0,0.0,0.0,0.0,0.0,0.0,0.0,0.0,0.0,0.0,0.0,0.0,0.0,0.0,0.0,0.0,0.0,0.0,0.0,0.0,0.0,0.0,0.0,0.0,0.0,0.0,0.0,0.0,0.0,0.0,0.0,0.0,0.0,0.0,0.0,0.0,0.0,0.0,0.0,0.0,0.0,0.0,0.0,0.0,0.0,0.0,0.0,0.0,0.0,0.0,0.0,0.0,0.0,0.0,0.0,0.0,0.0,0.0,0.0,0.0,0.0,0.0,0.0,0.0,0.0,0.0,0.0,0.0,0.0,0.0,0.0,0.0,0.0,0.0,0.0,0.0,0.0,0.0,0.0,0.0,0.0,0.0,0.0,0.0,0.0,0.0,0.0,0.0,1.839,1.798,1.7163,1.5861,1.5296,1.4817,1.4166,1.4088,1.4088,1.4088,0.0,0.0,0.0,0.0,0.0,0.0,0.0,0.0,0.0,0.0,0.0,0.0,0.0,0.0,0.0,0.0,0.0,0.0,0.0,0.0,0.0,0.0,0.0,0.0,0.0,0.0,0.0,0.0,0.0,0.0,0.0,0.0,0.0,0.0,0.0,0.0,0.0,0.0,0.0,0.0,0.0,0.0,0.0,0.0,0.0,0.0,0.0,0.0,0.0,0.0,0.0,0.0,0.0,0.0,0.0,0.0,0.0,0.0,0.0,0.0,0.0,0.0,0.0,0.0,0.0,0.0,0.0,0.0,0.0,0.0,0.0,0.0,0.0,0.0,0.0,0.0,0.0,0.0,0.0,0.0,0.0,0.0,0.0,0.0,0.0,0.0,0.0,0.0,0.0,0.0,0.0,0.0,0.0,0.0,0.0,0.0,0.0,0.0,0.0,0.0,0.0,0.0,1.7172,1.6273,1.5703,1.5538,1.465,1.4088,1.4088,1.4088,1.4088,1.4088,0.0,0.0,0.0,0.0,0.0,0.0,0.0,0.0,0.0,0.0,0.0,0.0,0.0,0.0,0.0,0.0,0.0,0.0,0.0,0.0,0.0,0.0,0.0,0.0,0.0,0.0,0.0,0.0,0.0,0.0,0.0,0.0,0.0,0.0,0.0,0.0,0.0,0.0,0.0,0.0,0.0,0.0,0.0,0.0,0.0,0.0,0.0,0.0,0.0,0.0,0.0,0.0,0.0,0.0,0.0,0.0,0.0,0.0,0.0,0.0,3.745,0.0,0.0,0.0,0.0,0.0,0.0,0.0,0.0,0.0,0.0,0.0,0.0,0.0,0.0,0.0,0.0,0.0,0.0,0.0,0.0,0.0,0.0,0.0,0.0,0.0,0.0,0.0,0.0,0.0,0.0,0.0,0.0,0.0,0.0,0.0,0.0,0.0,0.0,0.0,0.0,0.0,1.6191,1.5861,1.5379,1.4489,1.425,1.4088,1.4088,1.4088,1.4088,1.4088,1.5137,0.0,0.0,0.0,0.0,0.0,0.0,0.0,0.0,0.0,0.0,0.0,0.0,0.0,0.0,0.0,0.0,0.0,0.0,0.0,0.0,0.0,0.0,0.0,0.0,0.0,0.0,0.0,0.0,0.0,0.0,0.0,0.0,0.0,0.0,0.0,0.0,0.0,0.0,0.0,0.0,0.0,0.0,0.0,0.0,0.0,0.0,0.0,0.0,0.0,0.0,0.0,0.0,0.0,0.0,0.0,0.0,0.0,0.0,0.0,0.0,3.7976,0.0,0.0,0.0,0.0,0.0,0.0,0.0,0.0,0.0,0.0,0.0,0.0,0.0,0.0,0.0,0.0,0.0,0.0,0.0,0.0,0.0,0.0,0.0,0.0,0.0,0.0,0.0,0.0,0.0,0.0,0.0,0.0,0.0,0.0,0.0,0.0,0.0,0.0,0.0,0.0,1.5054,1.4894,1.4734,1.4166,1.4088,1.4088,1.4088,1.4088,1.4088,1.4088,1.5137,0.0,0.0,0.0,0.0,0.0,0.0,0.0,0.0,0.0,0.0,0.0,0.0,0.0,0.0,0.0,0.0,0.0,0.0,0.0,0.0,0.0,0.0,0.0,0.0,0.0,0.0,0.0,0.0,0.0,0.0,0.0,0.0,0.0,0.0,0.0,0.0,0.0,0.0,0.0,0.0,0.0,0.0,0.0,0.0,0.0,0.0,0.0,0.0,0.0,0.0,0.0,0.0,0.0,3.7535,3.7461,3.7719,3.7638,3.7276,3.6791,3.7569,3.7549,3.6942,3.7633,0.0,0.0,0.0,0.0,0.0,0.0,0.0,0.0,0.0,0.0,0.0,0.0,0.0,0.0,0.0,0.0,0.0,0.0,0.0,0.0,0.0,0.0,0.0,0.0,3.1789,3.118,0.0,0.0,0.0,0.0,0.0,0.0,0.0,0.0,0.0,0.0,0.0,0.0,1.4741,1.4496,1.4412,1.4412,1.425,1.4088,1.4088,1.4088,1.4088,1.4088,1.5137,1.6191,0.0,0.0,0.0,0.0,0.0,0.0,0.0,0.0,0.0,0.0,0.0,0.0,0.0,0.0,0.0,0.0,0.0,0.0,0.0,0.0,0.0,0.0,0.0,0.0,0.0,0.0,0.0,0.0,0.0,0.0,0.0,0.0,3.973,3.9315,0.0,0.0,0.0,0.0,0.0,0.0,0.0,0.0,0.0,0.0,0.0,0.0,0.0,3.8491,3.8244,3.6947,3.626,3.6155,3.4805,3.4512,3.5117,3.5088,3.5316,3.5802,3.5904,0.0,3.6864,3.6242,0.0,0.0,0.0,0.0,0.0,0.0,0.0,0.0,0.0,0.0,0.0,0.0,0.0,0.0,0.0,0.0,0.0,0.0,0.0,0.0,0.0,0.0,3.8916,3.5677,3.4922,3.4118,0.0,2.6422,2.2541,2.2168,2.1486,0.0,0.0,0.0,0.0,0.0,0.0,0.0,1.6772,1.6034,1.5462,1.5462,1.465,1.4088,1.4088,1.4088,1.4088,1.4088,1.5137,1.6191,1.7261,1.823,0.0,0.0,0.0,0.0,0.0,0.0,0.0,0.0,0.0,0.0,0.0,0.0,0.0,0.0,0.0,0.0,0.0,0.0,0.0,0.0,0.0,0.0,0.0,0.0,0.0,0.0,0.0,0.0,0.0,4.0,3.9977,3.9433,3.9911,4.0351,0.0,0.0,0.0,0.0,0.0,0.0,0.0,0.0,0.0,3.8486,3.8474,3.8185,3.7648,3.6679,3.6207,3.6115,3.5165,3.4864,3.5144,3.5144,3.5316,3.5622,3.5622,3.5805,3.6186,3.6346,3.6694,3.7157,0.0,0.0,0.0,0.0,3.7344,3.7706,3.7399,3.79,0.0,3.8754,0.0,0.0,0.0,0.0,0.0,0.0,0.0,0.0,0.0,0.0,3.796,3.7041,3.4856,3.2609,3.1317,2.7131,2.3582,0.0,2.1753,1.9612,1.683,0.0,0.0,0.0,0.0,1.7496,1.7334,1.6927,1.6601,1.6601,1.6198,1.5628,1.5061,1.4977,1.4734,1.4173,1.4573,1.5304,1.6355,1.6838,1.7738,0.0,0.0,0.0,0.0,0.0,0.0,0.0,0.0,0.0,0.0,0.0,0.0,0.0,0.0,0.0,0.0,0.0,0.0,0.0,0.0,0.0,0.0,0.0,0.0,0.0,0.0,0.0,0.0,3.9621,3.9896,3.9376,3.9675,4.0056,0.0,0.0,0.0,0.0,0.0,0.0,3.9471,3.9605,3.9211,3.8187,3.8169,3.7845,3.7228,3.6803,3.6603,3.6603,3.6207,3.5941,3.581,3.581,3.5739,3.5622,3.5622,3.5622,3.5656,3.6361,3.6666,3.6781,3.7466,3.7785,3.7789,3.7578,3.7887,3.8344,3.8022,3.8712,3.9758,3.9642,0.0,3.9114,3.7894,0.0,0.0,0.0,0.0,3.668,3.7292,3.7269,3.6913,3.6405,3.3695,3.0971,3.0073,2.7117,2.4554,0.0,2.2703,2.0256,1.7438,0.0,0.0,0.0,0.0,1.8789,1.823,1.79,1.7747,1.7747,1.7504,1.7009,1.6191,1.6108,1.5786,1.4985,1.4657,1.4977,1.6026,1.5869,1.6593,1.855,0.0,0.0,0.0,0.0,0.0,0.0,0.0,0.0,0.0,0.0,0.0,0.0,0.0,0.0,0.0,0.0,0.0,0.0,0.0,0.0,0.0,0.0,0.0,0.0,0.0,0.0,0.0,0.0,0.0,3.8851,3.9019,0.0,0.0,0.0,0.0,3.9643,4.0276,4.0023,3.8561,3.8822,3.8485,3.7301,3.7246,3.7246,3.719,3.7173,3.7152,3.7152,3.7135,3.6825,3.6333,3.6333,3.6097,3.5622,3.5622,3.5622,3.5622,3.5656,3.639,3.7534,3.7604,3.8381,3.9396,3.8609,3.8372,3.8439,3.8677,3.8794,3.9045,4.0096,4.0007,3.9346,3.8574,3.8254,0.0,0.0,3.8844,3.9314,3.897,3.8878,3.7735,3.3193,3.1933,3.0818,2.7472,2.5015,2.3743,0.0,2.4097,2.2669,2.0497,0.0,2.0062,1.9027,1.8957,1.9362,2.0323,1.952,1.8877,1.8877,1.7989,1.7261,1.7253,1.7261,1.718,1.7172,1.6191,1.6108,1.7172,1.6273,1.6191,1.7334,1.847,0.0,0.0,0.0,0.0,0.0,0.0,0.0,0.0,0.0,0.0,0.0,0.0,0.0,0.0,0.0,0.0,0.0,0.0,0.0,0.0,0.0,0.0,0.0,0.0,0.0,0.0,0.0,0.0,3.9629,3.9699,0.0,4.0145,4.013,4.0053,3.9927,3.9969,3.9756,3.9184,3.9289,3.9189,3.8766,3.8523,3.842,3.842,3.7925,3.7649,3.7649,3.7323,3.7097,3.6921,3.658,3.6481,3.6603,3.5898,3.6011,3.6563,3.5881,3.6278,3.735,3.735,3.8011,3.8991,3.8689,3.8572,3.8619,3.8904,3.9126,3.9439,4.0227,4.0397,4.0225,4.0011,4.0001,4.0082,4.0136,4.0116,3.994,3.9192,3.8564,3.7416,3.4734,3.3099,3.1662,2.9932,2.7813,2.6276,2.6625,2.3921,2.1273,2.0507,2.0478,2.0207,1.9116,1.9599,2.0167,2.0557,2.0245,2.0001,2.0001,1.9678,1.9116,1.847,1.839,1.8069,1.7342,1.6927,1.6927,1.7261,1.7658,1.798,1.839,1.9441,1.9687,0.0,0.0,0.0,0.0,0.0,0.0,0.0,0.0,0.0,0.0,0.0,0.0,0.0,0.0,0.0,0.0,0.0,0.0,0.0,0.0,0.0,0.0,0.0,0.0,0.0,0.0,3.9893,4.0203,4.0063,4.0043,4.0335,4.0198,4.0048,3.995,3.991,3.9821,3.9622,3.9709,3.9845,4.0037,3.9821,3.9773,3.9946,3.9406,3.914,3.9122,3.8722,3.851,3.8438,3.7955,3.7655,3.7542,3.6671,3.6515,3.6882,3.5968,3.6139,3.696,3.7152,3.7703,3.8465,3.8627,3.8707,3.875,3.9027,3.9314,3.969,4.0194,4.0441,4.0569,4.0715,4.0881,4.0991,4.0952,4.0739,4.0319,3.9397,3.8456,3.7254,3.5231,3.3499,3.1995,3.0778,2.9059,2.767,2.767,2.4838,2.2381,2.2018,2.1704,2.1108,1.9818,2.0156,2.0586,2.0381,2.0622,2.085,2.0996,2.1016,2.0767,2.0028,1.9947,1.9839,1.9389,1.8554,1.8241,1.8619,1.8646,1.8771,1.8966,2.0372,2.0518,1.9474,0.0,0.0,0.0,0.0,0.0,0.0,0.0,0.0,0.0,0.0,0.0,0.0,0.0,0.0,0.0,0.0,0.0,0.0,0.0,0.0,0.0,0.0,0.0,3.9285,3.9763,4.0198,4.0462,3.997,3.9755,4.0082,4.0117,3.9982,3.9683,4.0213,4.0306,3.9743,4.0019,4.0439,4.0953,4.0972,4.118,4.1614,4.1633,4.1614,4.1605,4.128,4.1034,4.0914,4.0506,3.9641,3.8472,3.7895,3.7245,3.6485,3.5922,3.601,3.6527,3.7017,3.747,3.7946,3.8465,3.8676,3.875,3.9027,3.9314,3.9645,3.9982,4.0135,4.0261,4.06,4.0835,4.0957,4.084,4.0804,4.0611,3.9723,3.8826,3.7374,3.4307,3.2976,3.1799,2.9667,2.8465,2.7841,2.7789,2.7108,2.6258,2.5158,2.4204,2.2928,2.1253,2.0801,0.0,2.0105,2.0731,2.1416,2.1846,2.1885,2.1885,2.1967,2.1967,2.2431,2.3503,2.1215,2.0258,2.1243,1.9325,1.8529,1.9125,2.1028,2.1466,2.0507,0.0,0.0,0.0,0.0,0.0,0.0,0.0,0.0,0.0,0.0,0.0,0.0,0.0,0.0,0.0,0.0,0.0,0.0,0.0,0.0,0.0,0.0,3.9828,3.9869,4.0011,4.014,4.0212,4.0249,4.0296,4.0391,4.0396,4.0605,4.1148,4.1347,4.1651,4.2105,4.2235,4.2331,4.2488,4.2256,4.2075,4.1964,4.1971,4.1841,4.1586,4.1508,4.146,4.1375,4.0643,4.0329,4.0306,3.9426,3.9089,3.9109,3.8223,3.7914,3.7923,3.6998,3.696,3.7433,3.7946,3.8382,3.875,3.9027,3.916,3.9289,3.9622,3.9925,4.0155,4.0287,4.0552,4.0772,4.0808,4.0808,4.059,3.9733,3.9147,3.8249,3.6231,3.5377,3.4664,3.3179,3.1781,3.0557,2.9539,2.9201,2.8185,2.5477,2.4492,2.3633,2.2366,2.3211,0.0,2.1559,2.2291,2.2595,2.1948,2.1885,2.2195,2.296,2.3041,2.3514,2.4692,2.4078,2.3756,2.407,2.308,2.2447,2.2242,2.2018,2.2168,0.0,0.0,0.0,0.0,0.0,0.0,0.0,0.0,0.0,0.0,0.0,0.0,0.0,0.0,0.0,0.0,0.0,0.0,0.0,0.0,0.0,0.0,3.9448,4.0435,4.0391,4.0323,4.0286,4.0286,4.0425,4.0642,4.1008,4.1046,4.1412,4.2277,4.2335,4.2566,4.3066,4.3104,4.3258,4.3585,4.3273,4.3118,4.3146,4.298,4.2791,4.2611,4.247,4.247,4.2582,4.1941,4.1626,0.0,4.0744,4.0226,3.9828,3.9045,3.8535,0.0,0.0,0.0,0.0,0.0,3.8061,3.8099,3.8237,3.8295,3.837,3.8924,3.9214,3.9458,3.9813,4.0187,4.0496,4.0552,4.0675,4.0679,4.0186,3.9642,3.8871,3.7509,3.6738,3.5925,3.4609,3.3558,3.2548,3.1235,3.0941,0.0,2.7877,2.66,2.5466,2.4059,2.4603,2.4667,2.3257,2.3882,2.4266,2.3846,2.3784,2.4103,2.4724,2.4724,0.0,0.0,0.0,2.5475,2.5475,2.4914,0.0,0.0,0.0,2.3722,2.412,0.0,0.0,0.0,2.268,2.3745,0.0,0.0,0.0,0.0,0.0,0.0,0.0,0.0,0.0,0.0,0.0,0.0,0.0,0.0,0.0,0.0,4.0266,4.0833,4.0921,4.0791,4.0684,4.0677,4.0677,4.1008,4.1873,4.195,4.2297,4.3162,4.3239,4.3278,4.3374,0.0,0.0,0.0,0.0,4.4167,4.4606,4.4242,4.4035,4.4016,4.3693,4.3726,4.3986,4.3594,4.3025,4.2313,4.1778,4.0817,3.9617,3.9155,3.8648,3.8173,3.8397,3.8563,3.8564,3.8392,3.7962,3.7438,3.7438,0.0,0.0,3.8372,3.8658,3.8899,3.9602,4.002,4.029,4.0319,4.0537,4.0775,4.0917,4.0349,3.9528,3.8742,3.7839,3.6816,3.5351,3.4936,3.443,3.3027,3.2751,3.2441,3.149,2.9704,2.7767,2.6106,2.5812,2.552,2.486,2.5502,2.6141,2.6427,0.0,0.0,2.6637,2.6719,2.7128,2.8176,2.7023,2.6189,2.6132,2.5789,2.6,2.6788,2.6308,2.5877,2.5443,2.5313,2.4766,2.3818,2.3745,2.412,0.0,0.0,0.0,0.0,0.0,0.0,0.0,0.0,0.0,0.0,0.0,0.0,0.0,0.0,0.0,3.9123,4.0173,4.1035,4.1682,4.1777,4.1798,4.1778,4.1736,4.2043,4.2848,4.289,4.3181,4.4008,4.4066,4.4374,4.5066,4.5105,4.5182,4.5336,4.5013,4.4762,4.4606,4.4505,4.4322,4.4016,0.0,0.0,4.3967,4.3212,4.2774,4.2591,4.2011,4.1304,4.0607,4.0516,4.0147,3.9596,3.8472,3.8271,3.8589,3.8565,3.8723,3.8952,3.8952,3.9266,3.9643,3.9806,4.0335,4.1025,4.1185,4.0979,0.0,4.108,4.0819,4.0692,4.1609,4.152,4.1308,4.1767,4.1427,4.0784,3.9829,3.9156,3.8099,3.6026,3.6145,3.5951,3.386,3.1555,2.9572,2.8287,2.8568,2.8222,2.6405,2.7013,2.7336,2.6554,2.6483,2.6883,2.7695,2.7763,2.8267,2.9365,2.9188,2.8839,2.8307,2.8196,2.8437,2.8886,2.8091,2.7763,2.8001,2.722,2.6516,2.5873,2.5075,2.4779,0.0,0.0,0.0,0.0,0.0,0.0,0.0,0.0,0.0,0.0,0.0,3.5964,0.0,0.0,3.8863,4.0452,4.1122,4.174,4.2583,4.2795,4.2838,4.2745,4.2722,4.3034,4.3882,4.3869,4.4141,4.4989,4.4989,4.5143,4.5566,4.5432,4.5355,4.5355,4.4837,4.4478,4.4297,4.4143,4.3947,4.3758,4.3758,4.359,4.3316,4.2903,4.2537,4.2244,4.1937,4.1446,4.0856,4.0625,4.0319,4.0003,3.9276,3.8928,3.8772,3.8772,3.8908,3.9063,3.9063,3.9434,3.996,4.0184,4.0577,4.0997,4.1292,4.1277,4.1248,4.1438,4.1533,4.1682,4.2252,4.2459,4.2549,4.2791,4.2656,4.2224,4.1436,4.1052,4.0366,3.8581,3.8529,3.8259,3.6619,3.4691,3.2919,3.1439,3.1564,3.1282,2.977,3.04,3.0611,2.9681,2.9541,2.9783,3.034,3.034,3.079,3.1748,3.182,3.1672,3.1361,3.1348,3.1105,3.0647,3.0157,2.9947,2.9821,2.936,2.9008,2.8716,2.8212,2.7198,0.0,0.0,0.0,0.0,0.0,0.0,0.0,0.0,3.4492,3.5728,3.6606,3.7437,3.8361,3.9261,4.0352,4.1913,4.2247,4.2622,4.3488,4.3732,4.3833,4.3916,4.3773,4.4,4.4886,4.4849,4.5047,4.5738,4.5699,4.5624,4.5586,4.5278,4.509,4.5093,4.4381,4.3999,4.3988,4.3669,4.3463,4.334,4.334,4.305,4.2519,4.2382,4.2021,4.1394,4.1278,4.107,4.0703,4.0286,4.007,4.007,4.007,3.9715,3.9208,3.9208,3.9183,3.9128,3.9012,3.9433,4.0113,4.0446,4.0689,4.0872,4.14,4.1649,4.1757,4.1797,4.2152,4.2583,4.2872,4.3238,4.3509,4.3498,4.3422,4.3188,4.2506,4.2509,4.2258,4.105,4.0647,4.0203,3.9463,3.8056,3.6442,3.4581,3.4118,3.3797,3.3128,3.3607,3.3797,3.3128,3.3073,3.3073,3.3073,3.3073,3.3308,3.397,3.4037,3.4037,3.4037,3.4037,3.3581,3.2695,3.2478,3.2235,3.1889,3.1678,3.1556,3.1429,3.144,2.9889,3.1114,3.1738,0.0,3.4638,3.5786,3.696,0.0,0.0,3.8045,3.892,3.9183,3.9521,4.034,4.0817,4.1395,4.2314,4.2813,4.339,4.4245,4.45,4.4888,4.5703,4.5115,4.4997,4.5852,4.582,4.5755,4.5794,4.5796,4.5738,4.5605,4.5278,4.5093,4.5117,4.4382,4.3999,4.3988,4.3669,4.3269,4.2775,4.2775,4.2486,4.1895,4.1358,4.0711,4.0016,3.9476,3.9612,4.0154,4.0121,4.007,4.007,4.007,4.002,3.9952,3.9952,4.0278,4.0568,4.0129,4.0649,4.1545,4.1629,4.1976,4.2555,4.3065,4.276,4.2271,4.2581,4.2254,4.2116,4.3484,4.3898,4.4206,4.529,4.5512,4.5375,4.5038,4.4959,4.4641,4.367,4.3118,4.2613,4.2009,4.051,3.8661,3.6473,3.5329,3.4728,3.4679,3.4743,3.4743,3.4614,3.4614,3.4614,3.4614,3.4614,3.4679,3.4807,3.4807,3.4807,3.4807,3.4807,3.5142,3.5891,3.5018,3.4688,3.4983,3.415,3.3513,3.3021,3.3051,3.178,3.3193,0.0,0.0,0.0,3.7309,3.7737,3.8287,3.8237,3.8446,3.9555,3.9906,4.0282,4.1116,4.1512,4.206,0.0,4.3424,4.3924,4.4989,4.5259,4.5488,4.5928,4.5722,4.5723,4.6172,4.6102,4.5967,4.5857,4.5827,4.5738,4.5605,4.5105,4.481,4.4811,4.4102,4.3718,4.3689,4.4029,4.3886,4.336,4.3805,4.3536,4.2587,4.1839,4.0658,3.9247,3.9931,3.989,3.9437,3.9901,4.007,4.007,4.007,3.9782,3.9437,3.9952,4.0449,4.0856,4.0689,4.1122,4.181,4.181,4.1979,4.2284,4.2846,4.2795,4.2632,4.3082,4.3148,4.3199,4.3837,4.4198,4.4603,4.5359,4.5526,4.5536,4.5669,4.549,4.5198,4.4834,4.4147,4.3479,4.301,4.198,4.0892,3.9713,3.8237,3.7069,3.6625,3.7281,3.7601,3.7112,3.7375,3.7416,3.7054,3.7375,3.7757,3.8192,3.7926,3.7769,3.7769,3.7412,3.7234,3.7227,3.6792,3.6651,3.6859,3.6428,3.6295,3.6382,3.6422,3.5927,3.3703,0.0,0.0,3.6896,3.7629,3.7755,3.7859,3.8074,3.8536,3.969,4.0099,4.0584,4.1612,4.1903,4.2438,4.3809,4.4097,4.4494,4.5454,4.5719,4.5815,4.5892,4.6027,4.6144,4.6289,4.6211,4.6074,4.5918,4.5869,4.5757,4.5605,4.5049,4.4794,4.4952,4.4318,4.4026,4.417,4.4573,4.4485,4.3905,4.4306,4.3815,4.2551,4.1732,4.05,3.915,4.0325,4.0194,3.9168,3.9769,4.0001,3.9984,3.9837,3.94,3.8913,3.9292,3.9834,4.0326,4.0655,4.0967,4.1305,4.1473,4.1534,4.1664,4.2262,4.244,4.2559,4.3124,4.344,4.3684,4.3937,4.4334,4.4791,4.5188,4.5359,4.5522,4.5832,4.566,4.5457,4.551,4.4848,4.4192,4.3961,4.3277,4.265,4.2364,4.0971,3.9714,3.9007,3.9767,4.0112,3.9564,3.9861,3.9941,3.9497,3.991,4.0341,4.0889,4.0543,4.0357,4.0357,3.9951,3.946,3.8917,3.8917,3.8917,3.8917,3.8917,3.9116,3.9497,3.9549,3.9495,0.0,0.0,3.3484,3.5105,3.6359,3.7323,3.779,3.8489,3.924,3.98,4.0049,4.0619,4.2017,4.2136,4.2575,4.4312,4.4858,4.5203,4.555,4.5719,4.5815,4.5892,4.6022,4.6157,0.0,4.6308,4.6172,4.5918,4.5908,4.5815,4.5605,4.5278,4.5297,4.574,4.5342,4.536,4.5835,4.5268,4.4691,4.4082,4.3508,4.2475,4.1026,4.0317,3.987,3.9747,3.9914,3.9854,3.9777,3.9777,3.9777,3.9713,3.9102,3.883,3.875,3.812,3.8244,3.8805,3.9766,4.0002,3.9966,4.0681,4.0949,4.1041,4.1621,4.1853,4.1937,4.2577,4.2732,4.2922,4.3781,4.429,4.4714,4.5185,4.5552,4.5813,4.5888,4.585,4.58,4.5879,4.5482,4.5183,4.5238,4.4459,4.3789,4.3669,4.3092,4.2432,4.1782,4.1707,4.175,4.1707,4.1732,4.1732,4.169,4.1732,4.175,4.175,4.175,4.175,4.175,4.1707,4.1707,4.1707,4.1707,4.1707,4.1707,4.1707,4.1707,4.169,4.1715,4.1715,0.0,0.0,3.4209,3.6108,3.7255,3.7952,3.8142,3.8768,3.9519,4.0208,3.9992,3.9961,4.099,4.1426,4.1915,4.275,4.3942,4.4896,4.5222,4.5495,4.5722,4.5879,4.5941,0.0,0.0,0.0,0.0,4.5917,4.5901,4.6065,4.6448,4.5892,4.588,4.6576,4.6001,4.5736,4.592,4.5828,4.5444,4.4848,4.3782,4.2431,4.0779,4.1135,4.0401,3.8944,4.0103,3.9976,3.9061,3.9594,3.9779,3.9763,3.9524,3.9138,3.867,3.8991,3.8542,3.7857,3.8382,3.8509,3.8515,3.8788,3.9163,3.9699,4.0278,4.0834,4.1313,4.1937,4.2121,4.2266,4.2978,4.3246,4.3535,4.4279,4.4732,4.5026,4.508,4.5304,4.5494,4.5563,4.5363,4.5234,4.5347,4.5066,4.4748,4.4535,4.3328,4.2541,4.2722,4.2546,4.2487,4.2722,4.3031,4.3222,4.3075,4.3435,4.3651,4.3651,4.3082,4.285,4.3041,4.2464,4.2217,4.2449,4.2449,4.2449,4.2449,4.2449,4.2668,4.3075,4.3075,4.3299,3.1712,3.3118,3.444,3.6515,3.7387,3.7882,3.8333,3.8982,3.9751,4.0471,3.9759,3.9245,3.9959,4.04,4.0806,4.1126,4.2818,4.4252,4.4697,4.4996,4.534,4.5847,4.5939,0.0,0.0,0.0,0.0,4.6373,4.6376,4.657,4.708,4.6647,4.6664,4.7232,4.6579,4.6284,4.6446,4.6128,4.5476,4.4507,4.3362,4.2124,4.0758,4.128,4.0525,3.8822,4.0255,4.0072,3.8901,3.947,3.9667,3.9635,3.937,3.8967,3.857,3.8818,3.8284,3.7444,3.7991,3.8131,3.8142,3.8173,3.8707,3.9404,3.9767,4.0234,4.075,4.1313,4.149,4.1621,4.2203,4.2465,4.2683,4.3272,4.3849,4.4296,4.4334,4.4732,4.5067,4.5135,4.5073,4.5091,4.5311,4.5397,4.5357,4.5182,4.4097,4.3408,4.3706,4.352,4.3465,4.3682,4.4002,4.4148,4.4017,4.4371,4.458,4.458,4.4076,4.3831,4.4069,4.3536,4.3332,4.3565,4.3565,4.3565,4.3565,4.3565,4.3744,4.4139,4.4139,4.4327,3.2444,3.3419,3.4163,3.6226,3.6793,3.7182,3.8343,3.9202,3.9891,4.0418,3.9285,3.8385,0.0,0.0,3.9236,3.9543,4.1672,4.3476,4.4143,4.4357,4.4818,0.0,0.0,0.0,0.0,0.0,0.0,4.7338,0.0,4.7341,4.755,4.751,4.7572,4.7716,4.7043,4.6893,4.7277,4.6006,4.4644,4.3173,4.2331,4.1491,4.0622,4.0622,4.0185,3.9409,4.0239,4.017,3.9424,3.9424,3.9424,3.9349,3.8691,3.8437,3.8362,3.7749,3.7509,3.7594,3.8481,3.8762,3.8738,3.8779,3.9345,3.9952,3.9952,3.9986,4.0087,4.0638,4.081,4.0949,4.1578,4.1966,4.2219,4.2219,4.2915,4.359,4.3559,4.4036,4.4503,4.4589,4.4655,4.4817,4.5208,4.5448,4.5584,4.5584,4.5325,4.5045,4.4757,4.4659,4.4612,4.4643,4.4643,4.465,4.4669,4.4651,4.4675,4.4638,4.4704,4.472,4.4748,4.4839,4.4903,4.4927,4.4933,4.4914,4.4914,4.49,4.4881,4.4881,4.4881,4.4881,3.1749,3.3076,3.4623,3.5696,3.6771,3.7786,3.8713,3.9025,3.9191,3.9311,3.756,3.603,0.0,0.0,0.0,3.8488,4.1735,0.0,4.4459,4.4951,0.0,0.0,0.0,4.6294,4.7186,4.735,0.0,0.0,4.8452,4.8135,4.8441,4.7768,4.7542,4.7913,4.6967,4.6222,4.5754,4.4307,4.28,4.1334,4.1153,4.0593,3.9737,3.9737,3.961,3.9409,3.961,3.961,3.9424,3.9424,3.9424,3.9394,3.923,3.9155,3.9125,3.8975,3.8916,3.8867,3.8576,3.8202,3.7745,3.7759,3.8013,3.8245,3.8245,3.8306,3.8541,3.9196,3.9406,3.9699,4.0839,4.1216,4.1218,4.106,4.1873,4.243,4.1576,4.2168,4.3025,4.3498,4.4188,4.4719,4.4836,4.5189,4.5448,4.5448,4.5558,4.5504,4.5191,4.4879,4.4796,4.5155,4.5198,4.5287,4.5471,4.5479,4.5444,4.5345,4.5142,4.5114,4.5363,4.517,4.517,4.5423,4.5187,4.5051,4.5051,4.4801,4.4687,4.4687,4.4687,4.4687,3.2567,3.3427,3.4498,3.6198,3.6983,3.7476,3.8203,3.8062,3.7687,3.7245,3.5407,0.0,0.0,0.0,0.0,0.0,0.0,0.0,4.4384,4.4729,4.5206,0.0,4.6235,0.0,4.7538,4.8117,4.8625,0.0,4.8805,4.8653,4.8711,4.767,4.6955,4.679,4.5558,4.4491,4.3783,4.2442,4.1179,3.9998,3.999,3.9272,3.804,3.8457,3.8457,3.7965,0.0,3.8294,3.8708,3.8708,3.8708,3.8708,3.9192,3.9104,3.8782,3.9265,3.9424,3.9364,3.8975,3.8601,3.8267,3.7978,3.8219,3.8576,3.8576,3.8394,3.8328,3.8715,3.8658,3.8619,3.9356,3.9563,3.9529,3.9429,4.0052,4.0516,3.9876,4.0424,4.1283,4.1908,4.265,4.3284,4.3595,4.3995,4.4359,4.4615,4.4787,4.4918,4.5026,4.5078,4.5187,4.5457,4.5486,4.5553,4.5707,4.5718,4.567,4.5605,4.5488,4.5486,4.5687,4.5384,4.5327,4.5506,4.5176,4.5012,4.501,4.4825,4.4605,4.4379,4.4379,4.4246,3.395,3.4117,3.4429,3.7031,3.7258,3.6933,3.739,3.6877,3.5906,3.4778,0.0,3.2088,3.1932,0.0,3.6324,3.6358,0.0,4.3389,4.4162,4.4342,4.4775,4.5762,4.6654,4.734,4.7694,4.8971,4.9406,4.8418,4.8708,4.8786,4.8407,4.7152,4.5941,4.48,4.3366,4.2357,4.1804,4.0624,3.9673,3.8909,3.8633,3.7688,3.6198,3.681,3.681,3.6198,3.6012,0.0,3.7587,3.7587,3.7587,3.7663,3.862,3.8383,3.7753,3.8782,3.9177,3.9192,3.9337,3.9424,3.9286,3.884,3.9136,3.9613,3.9613,3.9122,3.8629,3.875,3.8316,3.7775,3.7892,3.7886,3.7764,3.769,3.806,3.8482,3.8357,3.8916,3.9579,4.0229,4.069,4.1202,4.1815,4.2211,4.2608,4.3139,4.3254,4.3532,4.4209,4.4982,4.5483,4.55,4.5519,4.55,4.5473,4.5473,4.5476,4.546,4.5494,4.5511,4.5511,4.5203,4.5047,4.5047,4.4748,4.4505,4.4398,4.4381,4.4044,4.35,4.35,4.3225,3.3724,3.4426,3.5517,3.6654,3.7295,3.7598,3.7502,3.6397,0.0,0.0,0.0,3.1101,3.0188,3.2704,0.0,3.6381,0.0,0.0,0.0,0.0,4.5457,0.0,0.0,0.0,0.0,0.0,0.0,0.0,0.0,4.8245,4.732,4.5928,4.4365,4.2639,4.1623,4.1018,4.0946,3.9175,3.8173,3.8011,3.6111,3.5557,3.6105,3.4347,3.4455,3.6105,3.5103,0.0,3.6448,3.6448,3.6448,3.6526,3.6682,3.6604,3.6604,3.7663,3.8069,3.8234,3.9104,3.9424,3.9379,3.9283,3.9013,3.8667,3.8667,3.8198,3.7801,3.8441,3.8184,3.7825,3.8432,3.8195,3.7632,3.6964,3.7365,3.7742,3.7081,3.7891,3.8791,3.8897,3.9429,3.9853,3.9949,4.0283,4.0508,4.0637,4.0854,4.1333,4.2139,4.3743,4.4901,4.5006,4.5004,4.4976,4.4872,4.4872,4.4848,4.4772,4.4321,4.4044,4.4044,4.3539,4.3236,4.3236,4.2935,4.2428,4.1841,4.1505,4.0983,4.0295,4.0295,4.026,3.4038,3.4486,3.5294,3.6444,3.6625,3.64,3.5704,0.0,0.0,0.0,0.0,2.8748,2.8736,0.0,0.0,0.0,0.0,0.0,0.0,0.0,0.0,0.0,0.0,0.0,0.0,0.0,0.0,0.0,0.0,4.7435,4.5946,4.3826,4.2056,4.0706,4.0255,3.9748,3.9188,3.7681,3.6341,3.5144,3.411,3.3275,3.2634,3.2007,3.2461,3.3533,3.2364,0.0,3.441,3.3778,3.3502,3.3598,3.4779,3.4887,3.4669,3.6341,3.6944,3.7021,3.7572,3.7724,3.7724,3.7724,3.7912,3.7974,3.7414,3.6819,3.6403,3.6793,3.6383,3.5922,3.5948,3.574,3.5362,3.467,3.483,3.4961,3.4596,3.5036,3.5613,3.603,3.6315,3.6652,3.7026,3.7263,3.7644,3.8399,3.869,3.9197,4.0393,4.1421,4.2448,4.3664,4.3811,4.3769,4.3719,4.3719,4.3825,4.4112,4.3571,4.336,4.3669,4.2947,4.2341,4.1951,4.1599,4.1051,4.0303,4.0126,3.9429,3.8294,3.8294,3.7899,3.4591,3.4798,3.5213,3.6307,3.6165,3.54,3.4124,3.2329,0.0,0.0,2.7128,2.6719,2.7267,0.0,0.0,0.0,0.0,0.0,0.0,0.0,0.0,0.0,0.0,0.0,0.0,0.0,0.0,0.0,0.0,0.0,4.426,4.1725,3.9984,3.909,3.8576,3.8026,3.742,3.5905,3.4314,3.2805,3.2019,3.0927,2.9396,2.9738,3.0201,3.0765,2.9498,0.0,0.0,3.1044,3.069,3.0856,3.2632,3.284,3.2302,3.4314,3.5076,3.5157,3.5385,3.5465,3.5385,3.5144,3.6156,3.7266,3.6448,3.5894,3.5457,3.5457,3.503,3.4362,3.3602,3.3295,3.2962,3.2191,3.1947,3.1924,3.1924,3.1924,3.2113,3.2709,3.2835,3.2986,3.3604,3.3885,3.4475,3.5692,3.6086,3.6711,3.8079,3.8311,3.9026,4.0896,4.1692,4.2102,4.2102,4.2102,4.2287,4.2768,4.2232,4.2102,4.2592,4.1783,4.1077,4.0485,4.013,3.9513,3.859,3.859,3.7679,3.5859,3.5859,3.5057,3.5413,3.5891,3.6415,3.66,3.6554,3.5995,3.4228,0.0,0.0,2.7244,2.6565,2.6224,2.5294,2.6793,2.9037,0.0,0.0,3.6809,0.0,0.0,0.0,0.0,0.0,0.0,0.0,0.0,0.0,0.0,0.0,0.0,4.2298,4.0353,3.8882,3.7979,3.5916,3.5345,3.6369,3.3068,3.1895,3.2719,2.9602,2.8577,2.9315,2.72,2.7379,2.9498,2.8319,0.0,0.0,2.9567,2.9567,2.9567,2.9738,2.9829,2.9818,3.1032,3.1523,3.1586,3.2616,3.2929,3.2773,3.1747,3.3682,3.6369,3.6198,3.617,3.6129,3.6129,3.5714,3.4908,3.3674,3.2922,3.2123,3.061,2.9909,2.9618,2.9618,2.9618,2.9618,2.9668,2.9744,2.9744,2.9781,3.0703,3.1368,3.1559,3.2441,3.3308,3.4207,3.4325,3.4629,3.5492,3.8126,3.9788,3.9788,3.9788,3.9836,3.9867,3.9295,3.9039,3.9074,3.8548,3.8165,3.8109,3.8084,3.7255,3.5624,3.5624,3.4244,3.1559,3.1559,3.091,3.5253,3.5682,3.5943,3.5943,3.5499,3.453,3.2555,0.0,0.0,2.6003,2.4967,2.4553,2.4798,2.5492,2.7002,2.9792,3.1963,0.0,0.0,0.0,0.0,0.0,0.0,0.0,0.0,0.0,0.0,0.0,0.0,0.0,4.0247,3.9011,3.7534,3.5837,3.4888,3.3975,3.3068,3.1685,3.0085,2.844,2.7881,2.6567,2.4761,2.5382,2.5741,2.5873,2.5402,0.0,0.0,2.5034,2.5257,2.6068,2.6791,2.7589,2.8495,2.9613,3.0044,3.0134,3.0524,3.0678,3.0601,3.0212,3.1003,3.213,3.213,3.2573,3.3221,3.3221,3.2521,3.1749,3.1598,3.0579,2.9427,2.8796,2.8268,2.7988,2.7988,2.7834,2.7415,2.6656,2.7059,2.7335,2.6575,2.7472,2.8506,2.908,2.9465,3.011,3.0957,3.1089,3.1465,3.2416,3.5599,3.7415,3.6811,3.7778,3.8395,3.815,3.8137,3.8235,3.8611,3.7524,3.6718,3.623,3.5685,3.4515,3.2667,3.2667,3.1414,2.9145,2.839,2.7478,3.4721,3.5279,3.5504,3.5504,3.4514,3.3073,0.0,0.0,0.0,2.5178,2.3877,2.3387,2.4125,2.4542,2.567,2.8215,3.0171,3.1984,0.0,0.0,0.0,0.0,0.0,0.0,0.0,0.0,0.0,0.0,0.0,0.0,0.0,3.6634,3.5625,3.3988,3.2959,3.1772,3.0524,2.9387,2.7721,2.5518,2.5769,2.4417,2.1752,2.3692,2.3952,2.2962,2.3041,0.0,0.0,2.203,2.2257,2.3267,2.4496,2.5586,2.6512,2.7421,2.7693,2.7683,2.7275,2.7076,2.7076,2.7076,2.7359,2.763,2.7264,2.8778,3.0676,3.0676,2.9454,2.8343,2.8802,2.7338,2.5725,2.5725,2.5386,2.5155,2.5155,2.4908,2.44,2.3545,2.4008,2.4292,2.3357,2.4139,2.5166,2.5804,2.6214,2.6668,2.7273,2.7691,2.8222,2.9058,3.194,3.401,3.4215,3.5183,3.5643,3.5384,3.5937,3.6137,3.5873,3.5208,3.4361,3.3479,3.2793,3.1676,3.0061,3.0061,2.8978,2.6978,2.5782,2.443,3.4027,3.4758,3.5504,3.5504,3.3926,3.2146,0.0,0.0,0.0,2.5009,2.3877,2.3135,2.3135,2.4049,2.521,2.6307,2.8227,0.0,0.0,0.0,0.0,0.0,0.0,0.0,0.0,0.0,0.0,0.0,0.0,0.0,0.0,3.289,3.2805,3.2805,2.9511,2.8226,2.9407,2.5692,2.4328,2.5518,2.3006,2.1752,2.1752,2.1752,2.1744,0.0,0.0,0.0,0.0,2.1752,2.1752,2.1853,2.3176,2.3683,2.3791,2.3791,2.3782,2.3583,2.2257,2.1744,2.1744,2.1744,2.2598,2.3341,2.2122,2.5334,2.9407,2.9407,2.7547,2.5508,2.5508,2.3277,2.109,2.109,2.072,2.0465,2.0465,2.0465,2.0465,2.0465,2.0169,1.9923,1.9923,2.0642,2.113,2.113,2.2138,2.2889,2.2889,2.387,2.4672,2.4672,2.6666,2.9235,3.2352,3.1694,3.1056,3.1043,3.2096,3.1667,2.9517,3.0459,3.0546,2.9366,2.9366,2.8892,2.7917,2.7917,2.6816,2.4787,2.3604,2.1762,3.289,3.275,3.2398,3.2398,3.0856,2.9006,2.7968,0.0,0.0,2.3877,2.2736,2.212,2.296,2.2736,2.3037,2.5031,2.5826,0.0,0.0,0.0,0.0,0.0,0.0,0.0,0.0,0.0,0.0,0.0,0.0,0.0,0.0,2.7747,2.6889,2.7793,2.675,2.5547,2.4174,2.2933,2.2038,2.15,2.1634,2.0735,1.9013,2.0837,2.0633,0.0,0.0,0.0,0.0,1.8909,1.942,2.0333,2.0743,2.1456,2.2366,2.2366,2.2366,2.2257,2.1853,2.1752,2.1752,2.1752,2.1929,2.2214,2.1845,2.4067,2.6591,2.5779,2.4859,2.3932,2.3097,2.2138,2.1478,2.1478,2.0353,1.9368,1.9368,1.8361,1.7106,1.6335,1.7554,1.8483,1.7638,1.9288,2.0644,2.0644,2.0908,2.1171,2.1171,2.1459,2.1987,2.2765,2.2775,2.4291,2.8116,2.9274,2.953,2.8913,2.977,3.0033,2.9289,2.9018,2.8746,2.8331,2.769,2.6479,2.4545,2.4545,2.292,1.9909,1.8661,1.7186,0.0,3.0598,3.0384,3.0384,2.8786,0.0,0.0,0.0,0.0,2.257,2.1845,2.1569,2.2306,2.2541,2.3124,2.4522,2.5535,0.0,0.0,0.0,0.0,0.0,0.0,0.0,0.0,0.0,0.0,0.0,0.0,0.0,0.0,2.4244,2.2874,2.326,2.3763,2.307,2.0883,2.0381,1.9354,1.8005,1.8303,1.7593,1.6068,1.7796,1.7593,0.0,0.0,0.0,0.0,1.6823,1.7226,1.8046,1.8561,1.9376,2.0184,2.0727,2.0947,2.0837,2.0333,2.0128,2.0128,2.0128,2.0128,2.0231,2.0735,2.2415,2.3879,2.3158,2.2524,2.1887,2.1127,2.0097,1.9361,1.9361,1.8039,1.6742,1.6742,1.5869,1.4727,1.4034,1.5077,1.5922,1.5149,1.6367,1.7591,1.8105,1.8203,1.8407,1.8927,1.9416,1.9974,2.0591,2.0537,2.1388,2.3949,2.599,2.6769,2.6117,2.746,2.7834,2.7013,2.6411,2.5859,2.5445,2.4418,2.3162,2.1673,2.1673,2.0056,1.6901,1.6108,1.4791,0.0,2.8307,0.0,0.0,0.0,0.0,0.0,0.0,0.0,0.0,0.0,0.0,2.1293,2.3124,2.4607,2.4522,0.0,0.0,0.0,0.0,0.0,0.0,0.0,0.0,0.0,0.0,0.0,0.0,0.0,0.0,0.0,2.1478,2.021,1.9199,2.0412,2.0468,1.917,1.7866,1.651,1.5117,1.3885,1.3264,1.3264,1.3264,1.3264,0.0,0.0,0.0,0.0,1.5204,1.5204,1.5411,1.6647,1.716,1.737,1.8665,1.9102,1.8998,1.7772,1.7259,1.7259,1.7364,1.747,1.7786,1.9117,2.0333,2.1448,2.1541,2.0428,1.9317,1.9317,1.7312,1.5204,1.5204,1.4126,1.3156,1.3156,1.3053,1.2945,1.2945,1.2777,1.2639,1.2639,1.2576,1.2962,1.4299,1.4497,1.491,1.6251,1.7434,1.8123,1.8222,1.9388,2.0055,2.0127,2.1985,2.3041,2.2833,2.4819,2.5115,2.2998,2.2814,2.224,2.1203,1.9943,1.9306,1.9206,1.9115,1.7795,1.5442,1.5341,1.4023,2.567,0.0,2.5854,2.5854,2.4809,0.0,0.0,0.0,0.0,0.0,0.0,0.0,0.0,0.0,0.0,0.0,0.0,0.0,0.0,0.0,0.0,0.0,0.0,0.0,0.0,0.0,0.0,0.0,0.0,0.0,0.0,1.5927,1.5016,1.4753,1.5056,1.5583,1.6337,1.4955,1.4105,1.3783,1.3475,1.3264,1.3264,1.3264,1.3264,0.0,0.0,0.0,1.3804,1.3804,1.3804,1.3804,1.411,1.4325,1.4325,1.4646,1.4753,1.4753,1.4449,1.4341,1.4454,1.553,1.6711,1.7687,1.7989,1.8297,1.8812,1.9826,1.8248,1.6368,1.6368,1.5085,1.3804,1.3804,1.2729,1.1647,1.1647,1.0781,0.9915,0.9915,1.0748,1.1472,1.1472,1.2397,1.3214,1.3539,1.3641,1.3747,1.4071,1.4378,1.4901,1.5965,1.6371,1.6911,1.7855,1.986,2.1045,2.1054,2.1497,2.1468,2.0651,2.0617,2.0397,1.9951,1.8772,1.7647,1.657,1.5651,1.4423,1.2802,1.1823,1.1058,2.5126,2.4787,2.4787,2.4787,2.4382,2.3714,2.3222,0.0,0.0,0.0,0.0,0.0,0.0,0.0,0.0,0.0,0.0,0.0,0.0,0.0,0.0,0.0,0.0,0.0,0.0,0.0,0.0,0.0,0.0,0.0,0.0,1.3033,1.262,1.327,1.1973,1.1969,1.3367,1.262,1.1973,1.1324,1.1324,1.1324,1.1324,1.1227,1.1232,0.0,0.0,0.0,1.1285,1.1959,1.2295,1.2295,1.2295,1.2295,1.2403,1.3048,1.3264,1.3264,1.3264,1.3264,1.348,1.4234,1.499,1.5636,1.5636,1.5636,1.5949,1.7312,1.6143,1.4449,1.4449,1.3372,1.2295,1.2295,1.1114,1.004,1.004,0.95,0.8846,0.8856,0.9496,1.0135,1.004,1.0794,1.1538,1.2186,1.2295,1.2512,1.3156,1.3264,1.3588,1.4341,1.4449,1.4719,1.5334,1.6491,1.7795,1.9439,2.0095,2.0287,2.0099,1.9614,1.8583,1.7188,1.6443,1.5421,1.3933,1.3284,1.2328,1.0974,1.0293,0.9706,2.5535,2.5408,2.5376,2.4935,2.4957,2.4798,2.38,0.0,0.0,0.0,0.0,0.0,0.0,0.0,0.0,0.0,0.0,0.0,0.0,0.0,0.0,0.0,0.0,0.0,0.0,0.0,0.0,0.0,0.0,0.0,0.0,1.1437,1.1332,1.263,1.0253,0.9493,1.0798,1.0785,1.0131,0.894,0.8944,0.8944,0.8947,0.8856,0.8638,0.8177,0.0,0.0,0.9003,1.0229,1.0789,1.0794,1.0785,1.0785,1.0895,1.2191,1.262,1.262,1.262,1.2724,1.294,1.294,1.3156,1.3264,1.3264,1.3156,1.3156,1.4449,1.3911,1.294,1.294,1.1869,1.0789,1.0789,0.9831,0.8752,0.8295,0.818,0.8412,0.8778,0.852,0.8387,0.886,0.8853,0.9272,1.0574,1.0789,1.1219,1.2512,1.262,1.2729,1.2945,1.294,1.3053,1.327,1.3264,1.4573,1.7517,1.8958,1.9623,1.9568,1.8255,1.6427,1.4021,1.4015,1.3199,1.1605,1.1605,1.1002,0.9706,0.971,0.9126,2.7671,2.7992,2.7801,2.5365,2.5546,2.6224,2.6058,0.0,0.0,0.0,0.0,0.0,0.0,0.0,0.0,0.0,0.0,0.0,0.0,0.0,0.0,0.0,0.0,0.0,0.0,0.0,0.0,0.0,0.0,0.0,0.0,0.9404,0.9303,0.9539,0.9102,0.8994,0.9213,0.9286,0.9158,0.894,0.885,0.8856,0.8856,0.888,0.7519,0.5142,0.0,0.6599,0.8873,0.9189,0.9196,0.921,0.9282,0.9279,0.9293,0.9489,0.9592,0.9592,0.9592,1.0347,1.1433,1.1433,1.2295,1.3264,1.3264,1.2403,1.1433,1.1755,1.1647,1.1433,1.1433,1.0366,0.9186,0.9186,0.9095,0.8202,0.5706,0.5142,0.5933,0.8437,0.6837,0.5931,0.8434,0.8886,0.8988,0.9186,0.9186,0.9286,0.9592,0.9592,1.0025,1.1324,1.1433,1.1973,1.3156,1.3264,1.3557,1.4013,1.5382,1.602,1.5797,1.4231,1.3093,1.2654,1.2654,1.1933,1.0418,1.0418,0.9746,0.8336,0.8354,0.8165,2.8096,2.9415,3.0485,2.9133,2.9666,3.0626,3.0566,0.0,0.0,0.0,0.0,0.0,0.0,0.0,0.0,0.0,0.0,0.0,0.0,0.0,0.0,0.0,0.0,0.0,0.0,0.0,0.0,0.0,0.0,0.0,0.0,0.0,0.6492,0.6502,0.6502,0.6502,0.6502,0.6485,0.7271,0.8866,0.8876,0.8078,0.6601,0.8208,0.8214,0.6733,0.0,0.2793,0.425,0.5817,0.7513,0.8778,0.7163,0.7502,0.8876,0.8856,0.8846,0.8846,0.8944,0.9375,0.9915,0.9915,1.0351,1.0891,1.0891,1.0468,0.9934,0.9934,0.9934,0.9934,0.9934,0.9411,0.8536,0.6943,0.7747,0.8559,0.7187,0.4362,0.2458,0.3808,0.4364,0.436,0.4137,0.5485,0.65,0.649,0.7853,0.8873,0.885,0.8846,0.9168,0.9809,0.9915,1.0241,1.0891,1.0891,1.1647,1.3156,1.3911,1.4185,1.4077,1.3334,1.2485,1.1636,1.1636,1.0811,0.9293,0.9205,0.8823,0.8174,0.8093,0.7229,2.8426,3.0589,3.2789,3.2625,3.3733,3.4889,3.5192,3.6102,0.0,0.0,0.0,0.0,0.0,0.0,0.0,0.0,0.0,0.0,0.0,0.0,0.0,0.0,0.0,0.0,0.0,0.0,0.0,0.0,0.0,0.0,0.0,0.0,0.4923,0.3466,0.4139,0.4477,0.4477,0.4477,0.5603,0.7865,0.8555,0.7753,0.5599,0.64,0.686,0.6519,0.2014,-0.0,0.0224,0.2458,0.515,0.7647,0.5373,0.5935,0.7865,0.7847,0.8298,0.8866,0.885,0.8954,0.8954,0.8954,0.8954,0.8954,0.8954,0.8856,0.8755,0.8069,0.8412,0.8759,0.8069,0.8425,0.8326,0.6051,0.6172,0.686,0.686,0.3246,-0.0,-0.0,0.1903,0.2683,0.0447,0.19,0.3465,0.3463,0.5373,0.7065,0.773,0.8523,0.8863,0.895,0.8947,0.8944,0.894,0.894,0.9915,1.2077,1.262,1.2724,1.2724,1.2403,1.1684,1.0469,1.0465,0.985,0.8543,0.8451,0.7954,0.7288,0.7736,0.693,2.9365,3.1882,3.4185,3.3927,3.5329,0.0,3.8608,3.7672,0.0,3.5883,0.0,0.0,0.0,0.0,0.0,0.0,0.0,0.0,0.0,0.0,0.0,0.0,0.0,0.0,0.0,0.0,0.0,0.0,0.0,0.0,0.0,0.0,0.0,0.0448,0.303,0.4496,0.4496,0.4496,0.4599,0.4808,0.7644,0.8795,0.8453,0.3027,0.0673,0.0561,0.0224,-0.0,-0.0,0.0224,0.2126,0.4832,0.4589,0.4583,0.4808,0.4806,0.65,0.8893,0.889,0.889,0.889,0.889,0.889,0.889,0.889,0.8893,0.832,0.5594,0.6733,0.8217,0.5485,0.6847,0.8798,0.868,0.4487,0.0673,0.0673,0.0336,-0.0,-0.0,0.0224,0.0224,-0.0,0.0224,0.0336,0.0335,0.0558,0.1675,0.447,0.7182,0.8883,0.8863,0.886,0.8853,0.894,0.894,0.8937,0.9154,1.0457,1.1214,1.1214,0.9915,0.9151,0.903,0.903,0.8855,0.8615,0.8615,0.7121,0.4341,0.682,0.7944,3.1395,3.3709,3.5971,3.846,4.0868,0.0,0.0,4.1262,4.1582,4.1565,4.0369,0.0,0.0,0.0,0.0,0.0,0.0,0.0,0.0,0.0,0.0,0.0,0.0,0.0,0.0,0.0,0.0,0.0,0.0,0.0,0.0,0.0,0.0,0.0112,0.1121,0.1683,0.1683,0.1683,0.1681,0.1679,0.2801,0.3363,0.3251,0.1009,-0.0,-0.0,-0.0,-0.0,-0.0,-0.0,0.0672,0.1683,0.168,0.1679,0.1679,0.1676,0.2457,0.3689,0.5485,0.6161,0.6161,0.6161,0.6161,0.6161,0.6161,0.7413,0.8677,0.7533,0.8003,0.87,0.7536,0.5274,0.3363,0.3363,0.1681,-0.0,-0.0,-0.0,-0.0,-0.0,-0.0,-0.0,-0.0,-0.0,-0.0,-0.0,-0.0,0.0448,0.1564,0.4364,0.6165,0.6154,0.7853,0.888,0.887,0.8856,0.8856,0.887,0.9389,0.9699,0.9699,0.9168,0.885,0.885,0.8863,0.8846,0.8796,0.8803,0.8175,0.6948,0.4228,0.3007,3.3775,3.6455,3.876,0.0,0.0,0.0,4.0677,4.2063,4.3829,4.325,0.0,0.0,0.0,0.0,0.0,0.0,0.0,0.0,0.0,0.0,0.0,0.0,0.0,0.0,0.0,0.0,0.0,0.0,0.0,0.0,0.0,0.0,0.0,0.0,-0.0,-0.0,-0.0,-0.0,-0.0,-0.0,-0.0,-0.0,-0.0,-0.0,-0.0,-0.0,-0.0,-0.0,-0.0,-0.0,-0.0,-0.0,-0.0,-0.0,-0.0,-0.0,-0.0,0.0336,0.2348,0.3131,0.3131,0.3131,0.3131,0.3131,0.3131,0.4482,0.6519,0.8348,0.7556,0.6081,0.607,0.3027,-0.0,-0.0,-0.0,-0.0,-0.0,-0.0,-0.0,-0.0,-0.0,-0.0,-0.0,-0.0,-0.0,-0.0,-0.0,-0.0,-0.0,0.179,0.3134,0.3128,0.571,0.7522,0.7522,0.751,0.7961,0.8893,0.8066,0.7937,0.885,0.8863,0.8415,0.7502,0.7516,0.7979,0.89,0.891,0.7955,0.5971,0.1875,-0.0984,3.6569,4.0184,0.0,0.0,0.0,0.0,3.6577,3.921,4.1783,3.9401,0.0,0.0,0.0,0.0,0.0,0.0,0.0,0.0,0.0,0.0,0.0,0.0,0.0,0.0,0.0,0.0,0.0,0.0,0.0,0.0,0.0,0.0,0.0,-0.0,-0.0,-0.0,-0.0,-0.0,-0.0,-0.0,-0.0,-0.0,-0.0,-0.0,-0.0,-0.0,-0.0,-0.0,-0.0,-0.0,-0.0,-0.0,-0.0,-0.0,-0.0,-0.0,-0.0,-0.0,-0.0,-0.0,-0.0,-0.0,-0.0,-0.0,-0.0,-0.0,0.1234,0.711,0.4609,-0.0,-0.0112,-0.0112,-0.0112,-0.0112,-0.0112,-0.0112,-0.0,-0.0,-0.0,-0.0,-0.0,-0.0,-0.0,-0.0,-0.0,-0.0,-0.0,-0.0,-0.0,-0.0,-0.0,-0.0,0.268,0.447,0.447,0.447,0.571,0.8667,0.6161,0.5822,0.8778,0.8897,0.7524,0.4583,0.447,0.594,0.8798,0.8798,0.5727,-0.0112,-0.0112,-0.3224,3.978,0.0,0.0,0.0,0.0,0.0,0.0,3.7017,0.0,0.0,0.0,0.0,0.0,0.0,0.0,0.0,0.0,0.0,0.0,0.0,0.0,0.0,0.0,0.0,0.0,0.0,0.0,0.0,0.0,0.0,0.0,0.0,-0.0,-0.0,-0.0,-0.0,-0.0,-0.0,-0.0,-0.0,-0.0,-0.0,-0.0,-0.0,-0.0,-0.0,-0.0,-0.0,-0.0,-0.0,-0.0,-0.0,-0.0,-0.0,-0.0,-0.0,-0.0,-0.0,-0.0,-0.0,-0.0,-0.0,-0.0,-0.0,-0.0,-0.0,0.0336,0.2132,0.1346,-0.1009,-0.5164,-0.6293,-0.6293,-0.6293,-0.6293,-0.5725,-0.358,-0.1453,-0.0,-0.0,-0.0,-0.0,-0.0,-0.0,-0.0,-0.0,-0.0,-0.0,-0.0,-0.0,-0.0,-0.0,0.0784,0.1344,0.1344,0.1341,0.3469,0.8588,0.8112,0.7075,0.5822,0.7759,0.845,0.7647,0.3473,0.1792,0.269,0.269,-0.0448,-0.6293,-0.6293,-0.6047,4.1808,0.0,0.0,0.0,0.0,0.0,0.0,0.0,0.0,0.0,0.0,0.0,0.0,0.0,0.0,0.0,0.0,0.0,0.0,0.0,0.0,0.0,0.0,0.0,0.0,0.0,0.0,0.0,0.0,0.0,0.0,-0.0,-0.0,-0.0,-0.0,-0.0,-0.0,-0.0,-0.0,-0.0,-0.0,-0.0,-0.0,-0.0,-0.0,-0.0,-0.0,-0.0,-0.0,-0.0,-0.0,-0.0,-0.0,-0.0,-0.0,-0.0,-0.0,-0.0,-0.0,-0.0,-0.0,-0.0,-0.0,-0.0,-0.0,-0.0,-0.0448,-0.2915,-0.3589,-0.415,-0.6512,-0.7988,-0.8562,-0.7418,-0.8103,-0.8444,-0.6616,-0.481,-0.324,-0.201,-0.1789,-0.1791,-0.1791,-0.0784,-0.0,-0.0,-0.0,-0.0,-0.0,-0.0,-0.0,-0.0,-0.0,-0.0,-0.0,-0.0,0.1567,0.5174,0.7556,0.7089,0.2909,0.4372,0.539,0.539,0.1793,-0.1121,-0.3589,-0.3589,-0.4823,-0.719,-0.8332,-0.7979,0.0,0.0,0.0,0.0,0.0,0.0,0.0,0.0,0.0,0.0,0.0,0.0,0.0,0.0,0.0,0.0,0.0,0.0,0.0,0.0,0.0,0.0,0.0,0.0,0.0,0.0,0.0,0.0,0.0,0.0,0.0,-0.0,-0.0,-0.0,-0.0,-0.0,-0.0,-0.0,-0.0,-0.0,-0.0,-0.0,-0.0,-0.0,-0.0,-0.0,-0.0,-0.0,-0.0,-0.0,-0.0,-0.0,-0.0,-0.0,-0.0,-0.0,-0.0,-0.0,-0.0,-0.0,-0.0,-0.0,-0.0,-0.0112,-0.0673,-0.0785,-0.1905,-0.7086,-0.868,-0.8332,-0.5596,-0.6839,-0.8205,-0.5592,-0.6951,-0.8893,-0.889,-0.889,-0.8091,-0.5369,-0.492,-0.492,-0.492,-0.268,-0.067,-0.0447,-0.0448,-0.0336,-0.0,-0.0224,-0.0561,-0.0785,-0.0561,-0.0448,-0.0448,-0.0448,-0.0448,-0.0448,0.4948,0.5514,-0.0224,-0.0112,-0.0224,-0.0785,-0.0785,-0.3363,-0.8453,-0.8795,-0.753,-0.492,-0.7633,-0.888,0.0,0.0,0.0,0.0,0.0,0.0,0.0,0.0,0.0,0.0,0.0,0.0,0.0,0.0,0.0,0.0,0.0,0.0,0.0,0.0,0.0,0.0,0.0,0.0,0.0,0.0,0.0,0.0,0.0,0.0,-0.0,-0.0,-0.0,-0.0,-0.0,-0.0,-0.0,-0.0,-0.0,0.0,-0.0,-0.0,-0.0,-0.0,-0.0,-0.0,-0.0,-0.0,-0.0,-0.0,-0.0,-0.0,-0.0,-0.0,-0.0,-0.0,-0.0,-0.0,-0.0,-0.0,-0.0,-0.0,-0.0,-0.0897,-0.5613,-0.6974,-0.6746,-0.5714,-0.7073,-0.8778,-0.8075,-0.8412,-0.8749,-0.8159,-0.8399,-0.8863,-0.8846,-0.8856,-0.8752,-0.8069,-0.7967,-0.7979,-0.7979,-0.741,-0.6165,-0.3911,-0.3576,-0.2682,-0.0335,-0.2012,-0.4365,-0.6746,-0.4929,-0.3578,-0.3578,-0.3578,-0.3578,-0.3578,-0.0112,0.0224,-0.3354,-0.1232,-0.2242,-0.6862,-0.6974,-0.6512,-0.5485,-0.7753,-0.8546,-0.7955,-0.8638,-0.8856,0.0,0.0,0.0,0.0,0.0,0.0,0.0,0.0,0.0,0.0,0.0,0.0,0.0,0.0,0.0,0.0,0.0,0.0,0.0,0.0,0.0,0.0,0.0,0.0,0.0,0.0,0.0,0.0,0.0,-0.0,-0.0,-0.0,-0.0,-0.0,-0.0,-0.0,-0.0,-0.2807,-0.4268,-0.4263,-0.4263,-0.3474,-0.2126,-0.0672,-0.0,-0.0,-0.0,-0.0,-0.0,-0.0,-0.0,-0.0,-0.0,-0.0,-0.0336,-0.3251,-0.4263,-0.3813,-0.1007,-0.0895,-0.235,-0.3811,-0.3361,-0.2685,-0.583,-0.7759,-0.8555,-0.7057,-0.7736,-0.8873,-0.8853,-0.8846,-0.8954,-0.8944,-0.8947,-0.8954,-0.8944,-0.8947,-0.8846,-0.8846,-0.8856,-0.8863,-0.8863,-0.8873,-0.8425,-0.6839,-0.6614,-0.6049,-0.4475,-0.436,-0.5599,-0.8562,-0.7527,-0.6614,-0.6614,-0.6614,-0.6614,-0.6614,-0.5148,-0.4362,-0.447,-0.4367,-0.5044,-0.6735,-0.8214,-0.8094,-0.6601,-0.819,-0.887,-0.8846,-0.8846,-0.895,0.0,0.0,0.0,0.0,0.0,0.0,0.0,0.0,0.0,0.0,0.0,0.0,0.0,0.0,0.0,0.0,0.0,0.0,0.0,0.0,0.0,0.0,0.0,0.0,0.0,0.0,0.0,0.0,0.0,-0.0,-0.0,-0.0,-0.0,-0.0,-0.0,-0.0449,-0.157,-0.6422,-0.893,-0.8913,-0.891,-0.7642,-0.5142,-0.2686,-0.1231,-0.0782,-0.0784,-0.0784,-0.0784,-0.0784,-0.0784,-0.0784,-0.0784,-0.0784,-0.1344,-0.6289,-0.845,-0.8221,-0.3243,-0.2793,-0.5033,-0.7988,-0.7301,-0.5258,-0.5256,-0.6951,-0.8886,-0.8863,-0.8856,-0.8853,-0.8944,-0.894,-0.894,-0.894,-0.894,-0.894,-0.894,-0.894,-0.894,-0.894,-0.894,-0.894,-0.894,-0.8954,-0.8863,-0.888,-0.8883,-0.8886,-0.889,-0.6723,-0.6154,-0.8657,-0.8886,-0.8883,-0.8883,-0.8883,-0.8883,-0.8883,-0.8886,-0.7859,-0.5363,-0.763,-0.7744,-0.5252,-0.763,-0.888,-0.8856,-0.8856,-0.8846,-0.894,-0.894,-0.894,0.0,0.0,0.0,0.0,0.0,0.0,0.0,0.0,0.0,0.0,0.0,0.0,0.0,0.0,0.0,0.0,0.0,0.0,0.0,0.0,0.0,0.0,0.0,0.0,0.0,0.0,0.0,0.0,0.0,-0.0,-0.0,-0.0,-0.0,-0.0,-0.0,-0.2469,-0.7682,-0.8466,-0.8917,-0.8913,-0.8903,-0.8657,-0.8295,-0.7862,-0.6279,-0.391,-0.3911,-0.3913,-0.3913,-0.3913,-0.3913,-0.3913,-0.3913,-0.3913,-0.4024,-0.481,-0.6728,-0.8782,-0.7982,-0.6277,-0.5033,-0.7979,-0.8667,-0.832,-0.8301,-0.8634,-0.8863,-0.895,-0.8944,-0.8944,-0.894,-0.894,-0.894,-0.894,-0.894,-0.894,-0.894,-0.894,-0.894,-0.894,-0.894,-0.894,-0.894,-0.894,-0.8944,-0.8947,-0.8947,-0.8846,-0.8863,-0.8507,-0.8501,-0.8863,-0.885,-0.8947,-0.8947,-0.8947,-0.8947,-0.8947,-0.8856,-0.8742,-0.838,-0.8739,-0.8739,-0.8269,-0.8739,-0.8856,-0.8944,-0.8944,-0.8944,-0.894,-0.894,-0.894,0.0,0.0,0.0,0.0,0.0,0.0,0.0,0.0,0.0,0.0,0.0,0.0,0.0,0.0,0.0,0.0,0.0,0.0,0.0,0.0,0.0,0.0,0.0,0.0,0.0,0.0,0.0,0.0,0.0,-0.0,-0.0,-0.0,-0.157,-0.4837,-0.4942,-0.6296,-0.8927,-0.7307,-0.7296,-0.8883,-0.8866,-0.8853,-0.8954,-0.8853,-0.818,-0.694,-0.6951,-0.6956,-0.6956,-0.6956,-0.6956,-0.6956,-0.6956,-0.6956,-0.6953,-0.6943,-0.7736,-0.8876,-0.8876,-0.8069,-0.7152,-0.8526,-0.887,-0.8856,-0.8846,-0.8954,-0.8954,-0.8944,-0.894,-0.894,-0.894,-0.894,-0.894,-0.894,-0.894,-0.894,-0.894,-0.894,-0.894,-0.894,-0.894,-0.894,-0.894,-0.894,-0.894,-0.894,-0.894,-0.8944,-0.8954,-0.8947,-0.8944,-0.8954,-0.8947,-0.894,-0.894,-0.894,-0.894,-0.894,-0.895,-0.895,-0.894,-0.895,-0.895,-0.894,-0.895,-0.895,-0.894,-0.894,-0.894,-0.8937,-0.9699,-1.0131,0.0,0.0,0.0,0.0,0.0,0.0,0.0,0.0,0.0,0.0,0.0,0.0,0.0,0.0,0.0,0.0,0.0,0.0,0.0,0.0,0.0,0.0,0.0,0.0,0.0,0.0,0.0,0.0,0.0,-0.0,-0.0,-0.0,-0.2693,-0.8716,-0.8923,-0.8913,-0.8913,-0.6728,-0.6712,-0.8853,-0.8947,-0.894,-0.894,-0.894,-0.8947,-0.8853,-0.887,-0.888,-0.888,-0.888,-0.888,-0.888,-0.888,-0.888,-0.8876,-0.886,-0.8853,-0.8853,-0.8853,-0.8954,-0.8944,-0.885,-0.8954,-0.894,-0.894,-0.894,-0.894,-0.894,-0.894,-0.894,-0.894,-0.894,-0.894,-0.894,-0.894,-0.894,-0.894,-0.894,-0.894,-0.894,-0.894,-0.894,-0.894,-0.894,-0.894,-0.894,-0.894,-0.894,-0.894,-0.894,-0.894,-0.894,-0.894,-0.894,-0.894,-0.894,-0.894,-0.894,-0.894,-0.894,-0.894,-0.894,-0.894,-0.894,-0.894,-0.894,-0.894,-0.9265,-0.9482,-0.9482,-1.0996,-1.1647,0.0,0.0,0.0,0.0,0.0,0.0,0.0,0.0,0.0,0.0,0.0,0.0,0.0,0.0,0.0,0.0,0.0,0.0,0.0,0.0,0.0,0.0,0.0,0.0,0.0,0.0,0.0,0.0,0.0,-0.0,-0.0,-0.0,-0.2693,-0.8716,-0.8923,-0.8913,-0.8913,-0.8765,-0.8735,-0.894,-0.894,-0.894,-0.894,-0.894,-0.894,-0.894,-0.8944,-0.8944,-0.8944,-0.8944,-0.8944,-0.8944,-0.8944,-0.8944,-0.8944,-0.894,-0.894,-0.894,-0.894,-0.894,-0.894,-0.894,-0.894,-0.894,-0.894,-0.894,-0.894,-0.894,-0.894,-0.894,-0.894,-0.894,-0.894,-0.894,-0.894,-0.894,-0.894,-0.894,-0.894,-0.894,-0.894,-0.894,-0.894,-0.894,-0.894,-0.894,-0.894,-0.894,-0.894,-0.894,-0.894,-0.894,-0.894,-0.894,-0.894,-0.894,-0.894,-0.894,-0.894,-0.894,-0.894,-0.894,-0.894,-0.894,-0.894,-0.894,-0.894,-1.0351,-1.1,-1.0996,-1.2512,-1.3156,0.0,0.0,0.0,0.0,0.0,0.0,0.0,0.0,0.0,0.0,0.0,0.0,0.0,0.0,0.0,0.0,0.0,0.0,0.0,0.0,0.0,0.0,0.0,0.0,0.0,0.0,0.0,0.0,0.0,-0.1681,-0.5504,-0.5727,-0.5839,-0.6061,-0.7862,-0.8873,-0.886,-0.8846,-0.8947,-0.894,-0.894,-0.894,-0.894,-0.894,-0.894,-0.894,-0.894,-0.894,-0.894,-0.894,-0.894,-0.894,-0.894,-0.894,-0.894,-0.894,-0.894,-0.894,-0.894,-0.894,-0.894,-0.894,-0.894,-0.894,-0.894,-0.894,-0.894,-0.894,-0.894,-0.894,-0.894,-0.894,-0.894,-0.894,-0.894,-0.894,-0.894,-0.894,-0.894,-0.894,-0.894,-0.894,-0.894,-0.894,-0.894,-0.894,-0.894,-0.894,-0.894,-0.894,-0.894,-0.894,-0.894,-0.894,-0.894,-0.894,-0.894,-0.894,-0.894,-0.894,-0.894,-0.894,-0.894,-0.894,-0.9809,-1.0347,-1.0347,-1.0891,-1.1538,-1.2512,-1.4019,-1.4663,4.0735,0.0,0.0,0.0,0.0,0.0,0.0,0.0,0.0,0.0,0.0,0.0,0.0,0.0,0.0,0.0,0.0,0.0,0.0,0.0,0.0,0.0,0.0,0.0,0.0,0.0,0.0,0.0,0.0,0.0,-0.8683,-0.8913,-0.7988,-0.604,-0.7844,-0.8853,-0.894,-0.894,-0.894,-0.894,-0.894,-0.894,-0.894,-0.894,-0.894,-0.894,-0.894,-0.894,-0.894,-0.894,-0.894,-0.894,-0.894,-0.894,-0.894,-0.894,-0.894,-0.894,-0.894,-0.894,-0.894,-0.894,-0.894,-0.894,-0.894,-0.894,-0.894,-0.894,-0.894,-0.894,-0.894,-0.894,-0.894,-0.894,-0.894,-0.894,-0.894,-0.894,-0.894,-0.894,-0.894,-0.894,-0.894,-0.894,-0.894,-0.894,-0.894,-0.894,-0.894,-0.894,-0.894,-0.894,-0.894,-0.894,-0.894,-0.894,-0.894,-0.894,-0.894,-0.894,-0.894,-0.894,-0.9158,-0.9588,-1.0566,-1.1538,-1.2507,-1.2507,-1.3048,-1.4019,-1.5417,-1.6174,0.0,0.0,0.0,0.0,0.0,0.0,0.0,0.0,0.0,0.0,0.0,0.0,0.0,0.0,0.0,0.0,0.0,0.0,0.0,0.0,0.0,0.0,0.0,0.0,0.0,0.0,0.0,0.0,-0.5628,-0.8821,-0.8798,-0.8798,-0.8897,-0.8863,-0.886,-0.885,-0.894,-0.894,-0.894,-0.894,-0.894,-0.894,-0.894,-0.894,-0.894,-0.894,-0.894,-0.894,-0.894,-0.894,-0.894,-0.894,-0.894,-0.894,-0.894,-0.894,-0.894,-0.894,-0.894,-0.894,-0.894,-0.894,-0.894,-0.894,-0.894,-0.894,-0.894,-0.894,-0.894,-0.894,-0.894,-0.894,-0.894,-0.894,-0.894,-0.894,-0.894,-0.894,-0.894,-0.894,-0.894,-0.894,-0.894,-0.894,-0.894,-0.894,-0.894,-0.894,-0.894,-0.894,-0.894,-0.894,-0.894,-0.894,-0.894,-0.894,-0.894,-0.894,-0.894,-0.894,-0.894,-0.8937,-0.9588,-1.1105,-1.1214,-1.2615,-1.5417,-1.5417,-1.5417,-1.5524,-1.6929,-1.7582,3.8805,0.0,0.0,0.0,0.0,0.0,0.0,0.0,0.0,0.0,0.0,0.0,0.0,0.0,0.0,0.0,0.0,0.0,0.0,0.0,0.0,0.0,0.0,0.0,0.0,0.0,0.0,0.0,-0.8012,-0.7997,-0.5826,-0.7727,-0.8846,-0.895,-0.895,-0.8947,-0.894,-0.894,-0.894,-0.894,-0.894,-0.894,-0.894,-0.894,-0.894,-0.894,-0.894,-0.894,-0.894,-0.894,-0.894,-0.894,-0.894,-0.894,-0.894,-0.894,-0.894,-0.894,-0.894,-0.894,-0.894,-0.894,-0.894,-0.894,-0.894,-0.894,-0.894,-0.894,-0.894,-0.894,-0.894,-0.894,-0.894,-0.894,-0.894,-0.894,-0.894,-0.894,-0.894,-0.894,-0.894,-0.894,-0.894,-0.894,-0.894,-0.894,-0.894,-0.894,-0.894,-0.894,-0.894,-0.894,-0.894,-0.894,-0.894,-0.894,-0.894,-0.894,-0.894,-0.894,-0.894,-0.9915,-1.0672,-1.1105,-1.3156,-1.4556,-1.5417,-1.5417,-1.5956,-1.7035,-1.7364,-1.7582,0.0,0.0,0.0,0.0,0.0,0.0,0.0,1.5482,0.0,0.0,0.0,0.0,0.0,0.0,0.0,0.0,0.0,0.0,0.0,0.0,0.0,0.0,0.0,0.0,0.0,0.0,-0.5174,-0.8591,-0.892,-0.8103,-0.6379,-0.7937,-0.894,-0.894,-0.894,-0.894,-0.894,-0.894,-0.894,-0.894,-0.894,-0.894,-0.894,-0.894,-0.894,-0.894,-0.894,-0.894,-0.894,-0.894,-0.894,-0.894,-0.894,-0.894,-0.894,-0.894,-0.894,-0.894,-0.894,-0.894,-0.894,-0.894,-0.894,-0.894,-0.894,-0.894,-0.894,-0.894,-0.894,-0.894,-0.894,-0.894,-0.894,-0.894,-0.894,-0.894,-0.894,-0.894,-0.894,-0.894,-0.894,-0.894,-0.894,-0.894,-0.894,-0.894,-0.894,-0.894,-0.894,-0.894,-0.894,-0.894,-0.894,-0.894,-0.894,-0.894,-0.894,-0.894,-0.894,-0.9154,-0.9809,-1.0672,-1.1647,-1.2832,-1.4556,-1.5743,-1.628,-1.628,-1.6717,-1.7582,-1.7582,-1.7582,0.0,0.0,0.0,0.0,0.0,0.0,1.587,1.4089,1.2295,0.0,0.0,0.0,0.0,0.0,0.0,0.0,0.0,0.0,0.0,0.0,0.0,0.0,0.0,0.0,0.0,-0.5743,-0.8933,-0.8913,-0.891,-0.8893,-0.886,-0.895,-0.894,-0.894,-0.894,-0.894,-0.894,-0.894,-0.894,-0.894,-0.894,-0.894,-0.894,-0.894,-0.894,-0.894,-0.894,-0.894,-0.894,-0.894,-0.894,-0.894,-0.894,-0.894,-0.894,-0.894,-0.894,-0.894,-0.894,-0.894,-0.894,-0.894,-0.894,-0.894,-0.894,-0.894,-0.894,-0.894,-0.894,-0.894,-0.894,-0.894,-0.894,-0.894,-0.894,-0.894,-0.894,-0.894,-0.894,-0.894,-0.894,-0.894,-0.894,-0.894,-0.894,-0.894,-0.894,-0.894,-0.894,-0.894,-0.8937,-0.9158,-0.9154,-0.9265,-0.9372,-0.9265,-0.9154,-0.9154,-0.9154,-0.9699,-1.0996,-1.1428,-1.2832,-1.531,-1.5524,-1.628,-1.7582,-1.7582,-1.7582,-1.7582,-1.7582,-1.7582,0.0,0.0,0.0,0.0,0.0,0.0,1.5506,1.3362,1.1324,0.0,0.0,0.0,0.0,0.0,0.0,0.0,0.0,0.0,0.0,0.0,0.0,0.0,0.0,0.0,0.0,-0.8239,-0.8917,-0.8913,-0.8886,-0.886,-0.8947,-0.894,-0.894,-0.894,-0.894,-0.894,-0.894,-0.894,-0.894,-0.894,-0.894,-0.894,-0.894,-0.894,-0.894,-0.894,-0.894,-0.894,-0.894,-0.894,-0.894,-0.894,-0.894,-0.894,-0.894,-0.894,-0.894,-0.894,-0.894,-0.894,-0.894,-0.894,-0.894,-0.894,-0.894,-0.894,-0.894,-0.894,-0.894,-0.894,-0.894,-0.894,-0.894,-0.894,-0.894,-0.894,-0.894,-0.894,-0.894,-0.894,-0.894,-0.894,-0.894,-0.894,-0.894,-0.894,-0.894,-0.894,-0.894,-0.894,-0.9375,-1.0566,-1.0676,-1.1105,-1.2295,-1.1324,-1.0676,-1.0676,-1.0676,-1.0781,-1.1105,-1.3372,-1.4877,-1.5417,-1.6605,-1.7259,-1.7582,-1.7582,-1.7582,-1.7582,-1.7582,-1.7582,0.0,0.0,0.0,2.1585,0.0,0.0,0.0,1.262,1.0895,0.0,0.0,0.0,0.0,0.0,0.0,0.0,0.0,0.0,0.0,0.0,0.0,0.0,0.0,0.0,0.0,-0.892,-0.8907,-0.889,-0.8863,-0.895,-0.894,-0.894,-0.894,-0.894,-0.894,-0.894,-0.894,-0.894,-0.894,-0.894,-0.894,-0.894,-0.894,-0.894,-0.894,-0.894,-0.894,-0.894,-0.894,-0.894,-0.894,-0.894,-0.894,-0.894,-0.894,-0.894,-0.894,-0.894,-0.894,-0.894,-0.894,-0.894,-0.894,-0.894,-0.894,-0.894,-0.894,-0.894,-0.894,-0.894,-0.894,-0.894,-0.894,-0.894,-0.894,-0.894,-0.894,-0.894,-0.894,-0.894,-0.894,-0.894,-0.894,-0.894,-0.894,-0.894,-0.894,-0.894,-0.894,-0.894,-0.9482,-1.0891,-1.1105,-1.1433,-1.2186,-1.2186,-1.1864,-1.1105,-1.1755,-1.2512,-1.3264,-1.4663,-1.5743,-1.6493,-1.7252,-1.7582,-1.7582,-1.7582,-1.7582,-1.7582,-1.7582,-1.7582,0.0,0.0,0.0,0.0,0.0,1.4234,0.0,0.0,0.0,0.0,0.0,0.0,0.0,0.0,0.0,0.0,0.0,0.0,0.0,0.0,0.0,0.0,0.0,0.0,0.0,-0.8562,-0.889,-0.886,-0.895,-0.894,-0.894,-0.894,-0.894,-0.894,-0.894,-0.894,-0.894,-0.894,-0.894,-0.894,-0.894,-0.894,-0.894,-0.9154,-0.9154,-0.894,-0.9154,-0.9154,-0.894,-0.894,-0.894,-0.894,-0.894,-0.894,-0.894,-0.894,-0.894,-0.894,-0.894,-0.894,-0.894,-0.894,-0.894,-0.894,-0.894,-0.894,-0.894,-0.894,-0.894,-0.894,-0.894,-0.894,-0.894,-0.894,-0.894,-0.894,-0.894,-0.894,-0.894,-0.894,-0.894,-0.894,-0.894,-0.894,-0.894,-0.894,-0.9154,-0.9372,-0.9372,-0.9592,-1.0347,-1.1751,-1.1969,-1.2077,-1.2295,-1.3156,-1.3156,-1.1969,-1.3048,-1.4234,-1.531,-1.5636,-1.6387,-1.7582,-1.7582,-1.7582,-1.7582,-1.7582,-1.7582,-1.7582,-1.7582,-1.7582,0.0,0.0,0.0,0.0,1.4618,0.0,0.0,0.0,0.0,0.0,0.0,0.0,0.0,0.0,0.0,0.0,0.0,0.0,0.0,0.0,0.0,0.0,0.0,0.0,0.0,-0.7393,-0.886,-0.8944,-0.894,-0.894,-0.894,-0.894,-0.894,-0.894,-0.894,-0.894,-0.894,-0.894,-0.894,-0.894,-0.894,-0.894,-0.8937,-1.0241,-1.0131,-0.8937,-1.0241,-1.0131,-0.894,-0.894,-0.894,-0.894,-0.894,-0.894,-0.894,-0.894,-0.894,-0.894,-0.894,-0.894,-0.894,-0.894,-0.894,-0.894,-0.894,-0.894,-0.894,-0.894,-0.894,-0.894,-0.894,-0.894,-0.894,-0.894,-0.894,-0.894,-0.894,-0.894,-0.894,-0.894,-0.894,-0.894,-0.894,-0.894,-0.894,-0.894,-1.0025,-1.0891,-1.0891,-1.1973,-1.3372,-1.477,-1.4877,-1.5417,-1.6717,-1.5849,-1.5097,-1.4877,-1.5091,-1.5204,-1.5417,-1.6611,-1.747,-1.7582,-1.7582,-1.7582,-1.7582,-1.7582,-1.7582,-1.7582,-1.7582,-1.7582,0.0,0.0,0.0,0.0,0.0,0.0,1.1105,0.0,0.8406,0.0,0.0,0.0,0.0,0.0,0.0,0.0,0.0,0.0,0.0,0.0,0.0,0.0,0.0,0.0,0.0,0.0,0.0,0.0,-0.894,-0.894,-0.894,-0.894,-0.894,-0.894,-0.894,-0.894,-0.894,-0.894,-0.894,-0.894,-0.9809,-1.0131,-1.0241,-1.1647,-1.1538,-1.0241,-1.0781,-1.0241,-0.894,-0.894,-0.894,-0.894,-0.894,-0.894,-0.894,-0.894,-0.894,-0.894,-0.894,-0.894,-0.894,-0.894,-0.894,-0.894,-0.894,-0.894,-0.894,-0.894,-0.894,-0.894,-0.894,-0.894,-0.894,-0.894,-0.894,-0.894,-0.894,-0.894,-0.894,-0.894,-0.9588,-0.9915,-0.9047,-0.894,-0.9154,-1.0025,-1.0672,-1.1433,-1.2295,-1.294,-1.3804,-1.5204,-1.5417,-1.563,-1.628,-1.6499,-1.628,-1.5417,-1.6174,-1.6711,-1.6711,-1.7259,-1.7582,-1.7582,-1.7582,-1.7582,-1.7582,-1.7582,-1.7582,-1.7582,-1.7582,-1.7582,1.7934,0.0,0.0,0.0,0.0,0.0,0.0,0.0,0.0,0.0,0.0,0.0,0.0,0.0,0.0,-0.8944,0.0,-0.8846,0.0,0.0,0.0,0.0,0.0,0.0,0.0,0.0,0.0,-0.9482,-0.9482,-0.9372,-0.8937,-0.894,-0.894,-0.894,-0.894,-0.894,-0.894,-0.894,-0.9154,-0.9482,-1.0566,-1.1324,-1.1755,-1.3156,-1.3048,-1.1647,-1.1647,-1.0891,-0.9482,-0.9047,-0.9158,-0.9482,-0.9047,-0.9372,-1.0025,-0.9154,-0.9154,-0.9482,-0.9047,-0.894,-0.9047,-0.9805,-0.9809,-0.9588,-1.0025,-1.0131,-1.0021,-0.9588,-0.9482,-0.9372,-0.9047,-0.9154,-0.9482,-0.9482,-0.9805,-1.0025,-0.9588,-0.9809,-0.9915,-0.9047,-1.046,-1.1214,-0.9809,-0.9805,-1.0351,-1.1,-1.1751,-1.262,-1.3696,-1.4234,-1.4883,-1.5849,-1.5962,-1.5962,-1.5962,-1.6935,-1.7147,-1.6068,-1.7041,-1.7582,-1.7582,-1.7582,-1.7582,-1.7582,-1.7582,-1.7582,-1.7582,-1.7582,-1.7582,-1.7582,-1.7582,-1.7582,0.0,0.0,0.0,1.1214,0.0,0.0,0.0,0.0,0.8091,0.0,0.0,0.0,0.0,0.0,-0.8856,-0.8944,-0.894,0.0,0.0,0.0,0.0,0.0,0.0,0.0,0.0,0.0,0.0,-1.1,-1.1,-1.0457,-0.8937,-0.894,-0.894,-0.894,-0.894,-0.894,-0.894,-0.894,-0.9588,-1.1,-1.1109,-1.1864,-1.327,-1.4663,-1.4556,-1.3264,-1.3264,-1.2403,-1.0891,-0.9482,-0.9699,-1.0891,-0.9482,-1.0672,-1.2832,-0.9915,-0.9805,-1.0781,-0.9372,-0.894,-0.9372,-1.2186,-1.2186,-1.1324,-1.2729,-1.3156,-1.2832,-1.1433,-1.1,-1.0672,-0.9265,-0.9915,-1.1,-1.1,-1.2077,-1.2729,-1.1324,-1.2186,-1.2295,-0.9482,-1.1214,-1.2729,-1.1324,-1.2186,-1.2729,-1.1324,-1.348,-1.531,-1.531,-1.6605,-1.747,-1.7477,-1.7582,-1.7582,-1.7582,-1.7582,-1.7582,-1.7582,-1.7582,-1.7582,-1.7582,-1.7582,-1.7582,-1.7582,-1.7582,-1.7582,-1.7582,-1.7582,-1.7582,-1.7582,-1.7582,-1.7582,0.0,0.0,1.2554,1.2554,0.0,0.0,0.0,0.0,0.0,0.0,0.0,0.0,0.0,-0.8893,-0.8876,-0.8853,-0.885,-0.8846,0.0,0.0,0.0,0.0,0.0,0.0,0.0,0.0,0.0,-1.2512,-1.2512,-1.1864,-1.0457,-1.0347,-0.9915,-0.8937,-0.894,-0.894,-0.894,-0.9915,-1.0566,-1.1105,-1.3048,-1.4228,-1.477,-1.6174,-1.6062,-1.4663,-1.4663,-1.3911,-1.2512,-1.1969,-1.2082,-1.2512,-1.1969,-1.2403,-1.3053,-1.1105,-1.1324,-1.2512,-1.1969,-1.1864,-1.1969,-1.2945,-1.294,-1.262,-1.3156,-1.3264,-1.3156,-1.2724,-1.2512,-1.2403,-1.1973,-1.2186,-1.2512,-1.2512,-1.2945,-1.3156,-1.2615,-1.2945,-1.3048,-1.1969,-1.3372,-1.4234,-1.2832,-1.4556,-1.5636,-1.4126,-1.477,-1.5737,-1.6717,-1.7252,-1.7582,-1.7582,-1.7582,-1.7582,-1.7582,-1.7582,-1.7582,-1.7582,-1.7582,-1.7582,-1.7582,-1.7582,-1.7582,-1.7582,-1.7582,-1.7582,-1.7582,-1.7582,-1.7582,-1.7582,-1.7582,-1.7582,1.2835,1.141,0.0,1.02,0.8749,0.0,0.7296,0.0,0.0,0.0,0.0,0.0,0.0,0.0,-0.763,-0.8739,-0.8856,-0.8853,0.0,-0.894,0.0,0.0,0.0,0.0,0.0,0.0,-1.4019,-1.4019,-1.4019,-1.3156,0.0,0.0,-1.0676,-0.9699,-0.9699,-0.9915,-1.0457,-1.1433,-1.2077,-1.2615,-1.4556,-1.5636,-1.6174,-1.7147,-1.7041,-1.6168,-1.5636,-1.4883,-1.4019,-1.348,-1.3588,-1.4019,-1.348,-1.3911,-1.4561,-1.262,-1.2512,-1.348,-1.4449,-1.4126,-1.348,-1.4454,-1.4449,-1.4126,-1.4669,-1.4883,-1.4793,-1.4337,-1.4191,-1.3932,-1.3578,-1.3759,-1.4019,-1.4019,-1.4449,-1.4669,-1.4126,-1.4449,-1.4561,-1.348,-1.4883,-1.5743,-1.4341,-1.6068,-1.7147,-1.563,-1.5849,-1.6499,-1.747,-1.7582,-1.7582,-1.7582,-1.7582,-1.7582,-1.7582,-1.7582,-1.7582,-1.7582,-1.7582,-1.7582,-1.7582,-1.7582,-1.7582,-1.7582,-1.7582,-1.7582,-1.7582,-1.7582,-1.7582,-1.7582,-1.7582,-1.7582]},{"header":{"parameterUnit":"m.s-1","parameterCategory":1,"la1":30.6,"la2":29.2853,"lo1":-89.7004,"lo2":-87.6739,"dy":0.0162,"dx":0.0183,"nx":112,"ny":82,"refTime":"2023-08-23T06:00:00:Z","depth":0,"parameterNumber":3,"parameterNumberName":"V-component_of_WINDS"},"data":[0.0,0.0,0.0,0.0,0.0,0.0,0.0,0.0,0.0,0.0,0.0,0.0,0.0,0.0,0.0,0.0,0.0,0.0,0.0,0.0,0.0,0.0,0.0,0.0,0.0,0.0,0.0,0.0,0.0,0.0,0.0,0.0,0.0,0.0,0.0,0.0,0.0,0.0,0.0,0.0,0.0,0.0,0.0,0.0,0.0,0.0,0.0,0.0,0.0,0.0,0.0,0.0,0.0,0.0,0.0,0.0,0.0,0.0,0.0,0.0,0.0,0.0,0.0,0.0,0.0,0.0,0.0,0.0,0.0,0.0,0.0,0.0,0.0,0.0,0.0,0.0,0.0,0.0,0.0,0.0,0.0,0.0,0.0,0.0,0.0,0.0,0.0,0.0,0.0,0.0,0.0,3.5705,3.6684,3.7596,3.8627,3.8216,3.7685,3.721,0.0,0.0,0.0,0.0,0.0,0.0,0.0,0.0,0.0,0.0,0.0,0.0,0.0,0.0,0.0,0.0,0.0,0.0,0.0,0.0,0.0,0.0,0.0,0.0,0.0,0.0,0.0,0.0,0.0,0.0,0.0,0.0,0.0,0.0,0.0,0.0,0.0,0.0,0.0,0.0,0.0,0.0,0.0,0.0,0.0,0.0,0.0,0.0,0.0,0.0,0.0,0.0,0.0,0.0,0.0,0.0,0.0,0.0,0.0,0.0,0.0,0.0,0.0,0.0,0.0,0.0,0.0,0.0,0.0,0.0,0.0,0.0,0.0,0.0,0.0,0.0,0.0,0.0,0.0,0.0,0.0,0.0,0.0,0.0,0.0,0.0,0.0,0.0,0.0,0.0,0.0,0.0,0.0,0.0,0.0,0.0,0.0,0.0,0.0,0.0,0.0,0.0,0.0,0.0,3.509,3.6768,3.7097,3.7596,3.8627,3.8216,3.7685,3.721,0.0,0.0,0.0,0.0,0.0,0.0,0.0,0.0,0.0,0.0,0.0,0.0,0.0,0.0,0.0,0.0,0.0,0.0,0.0,0.0,0.0,0.0,0.0,0.0,0.0,0.0,0.0,0.0,0.0,0.0,0.0,0.0,0.0,0.0,0.0,0.0,0.0,0.0,0.0,0.0,0.0,0.0,0.0,0.0,0.0,0.0,0.0,0.0,0.0,0.0,0.0,0.0,0.0,0.0,0.0,0.0,0.0,0.0,0.0,0.0,0.0,0.0,0.0,0.0,0.0,0.0,0.0,0.0,0.0,0.0,0.0,0.0,0.0,0.0,0.0,0.0,0.0,0.0,0.0,0.0,0.0,0.0,0.0,0.0,0.0,0.0,0.0,0.0,0.0,0.0,0.0,0.0,0.0,0.0,0.0,0.0,0.0,0.0,0.0,0.0,0.0,0.0,0.0,3.4752,3.5698,3.7058,3.719,3.7596,3.8627,3.8465,3.8117,3.7614,3.7342,0.0,0.0,0.0,0.0,0.0,0.0,0.0,0.0,0.0,0.0,0.0,0.0,0.0,0.0,0.0,0.0,0.0,0.0,0.0,0.0,0.0,0.0,0.0,0.0,0.0,0.0,0.0,0.0,0.0,0.0,0.0,0.0,0.0,0.0,0.0,0.0,0.0,0.0,0.0,0.0,0.0,0.0,0.0,0.0,0.0,0.0,0.0,0.0,0.0,0.0,0.0,0.0,0.0,0.0,0.0,0.0,0.0,0.0,0.0,0.0,0.0,0.0,0.0,0.0,0.0,0.0,0.0,0.0,0.0,0.0,0.0,0.0,0.0,0.0,0.0,0.0,0.0,0.0,0.0,0.0,0.0,0.0,0.0,0.0,0.0,0.0,0.0,0.0,0.0,0.0,0.0,0.0,0.0,0.0,0.0,0.0,0.0,0.0,0.0,0.0,0.0,0.0,3.5299,3.6011,3.7114,3.719,3.7596,3.8627,3.8578,3.835,3.7946,3.7893,0.0,0.0,0.0,0.0,0.0,0.0,0.0,0.0,0.0,0.0,0.0,0.0,0.0,0.0,0.0,0.0,0.0,0.0,0.0,0.0,0.0,0.0,0.0,0.0,0.0,0.0,0.0,0.0,0.0,0.0,0.0,0.0,0.0,0.0,0.0,0.0,0.0,0.0,0.0,0.0,0.0,0.0,0.0,0.0,0.0,0.0,0.0,0.0,0.0,0.0,0.0,0.0,0.0,0.0,0.0,0.0,0.0,0.0,0.0,0.0,0.0,0.0,0.0,0.0,0.0,0.0,0.0,0.0,0.0,0.0,0.0,0.0,0.0,0.0,0.0,0.0,0.0,0.0,0.0,0.0,0.0,0.0,0.0,0.0,0.0,0.0,0.0,0.0,0.0,0.0,0.0,0.0,0.0,0.0,0.0,0.0,0.0,0.0,0.0,0.0,0.0,0.0,3.5577,3.6011,3.7114,3.719,3.7596,3.8627,3.8249,3.7946,3.7893,3.7893,0.0,0.0,0.0,0.0,0.0,0.0,0.0,0.0,0.0,0.0,0.0,0.0,0.0,0.0,0.0,0.0,0.0,0.0,0.0,0.0,0.0,0.0,0.0,0.0,0.0,0.0,0.0,0.0,0.0,0.0,0.0,0.0,0.0,0.0,0.0,0.0,0.0,0.0,0.0,0.0,0.0,0.0,0.0,0.0,0.0,0.0,0.0,0.0,0.0,0.0,0.0,0.0,0.0,0.0,0.0,0.0,0.0,0.0,0.0,0.0,0.0,0.0,0.0,0.0,0.0,0.0,0.0,0.0,0.0,0.0,0.0,0.0,0.0,0.0,0.0,0.0,0.0,0.0,0.0,0.0,0.0,0.0,0.0,0.0,0.0,0.0,0.0,0.0,0.0,0.0,0.0,0.0,0.0,0.0,0.0,0.0,0.0,0.0,0.0,0.0,0.0,0.0,3.5622,3.6011,0.0,3.719,3.7596,3.8627,3.8496,3.8382,3.8382,0.0,0.0,0.0,0.0,0.0,0.0,0.0,0.0,0.0,0.0,0.0,0.0,0.0,0.0,0.0,0.0,0.0,0.0,0.0,0.0,0.0,0.0,0.0,0.0,0.0,0.0,0.0,0.0,0.0,0.0,0.0,0.0,0.0,0.0,0.0,0.0,0.0,0.0,0.0,0.0,0.0,0.0,0.0,0.0,0.0,0.0,0.0,0.0,0.0,0.0,0.0,0.0,0.0,0.0,0.0,0.0,0.0,0.0,0.0,0.0,0.0,0.0,0.0,0.0,0.0,0.0,0.0,0.0,0.0,0.0,0.0,0.0,0.0,0.0,0.0,0.0,0.0,0.0,0.0,0.0,0.0,0.0,0.0,0.0,0.0,0.0,0.0,0.0,0.0,0.0,0.0,0.0,0.0,0.0,0.0,0.0,0.0,0.0,0.0,0.0,0.0,0.0,3.5622,3.5739,3.6207,0.0,3.7323,3.7773,3.8627,3.8707,3.8707,3.8707,0.0,0.0,0.0,0.0,0.0,0.0,0.0,0.0,0.0,0.0,0.0,0.0,0.0,0.0,0.0,0.0,0.0,0.0,0.0,0.0,0.0,0.0,0.0,0.0,0.0,0.0,0.0,0.0,0.0,0.0,0.0,0.0,0.0,0.0,0.0,0.0,0.0,0.0,0.0,0.0,0.0,0.0,0.0,0.0,0.0,0.0,0.0,0.0,0.0,0.0,0.0,0.0,0.0,0.0,0.0,0.0,0.0,0.0,0.0,0.0,0.0,0.0,0.0,0.0,0.0,0.0,0.0,0.0,0.0,0.0,0.0,0.0,0.0,0.0,0.0,0.0,0.0,0.0,0.0,0.0,0.0,0.0,0.0,0.0,0.0,0.0,0.0,0.0,0.0,0.0,0.0,0.0,0.0,0.0,0.0,0.0,0.0,0.0,0.0,0.0,0.0,0.0,3.5622,3.6054,3.662,3.7152,3.7614,3.8117,3.8658,3.8707,3.8707,0.0,0.0,0.0,0.0,0.0,0.0,0.0,0.0,0.0,0.0,0.0,0.0,0.0,0.0,0.0,0.0,0.0,0.0,0.0,0.0,0.0,0.0,0.0,0.0,0.0,0.0,0.0,0.0,0.0,0.0,0.0,0.0,0.0,0.0,0.0,0.0,0.0,0.0,0.0,0.0,0.0,0.0,0.0,0.0,0.0,0.0,0.0,0.0,0.0,0.0,0.0,0.0,0.0,0.0,0.0,0.0,0.0,0.0,0.0,0.0,0.0,0.0,0.0,0.0,0.0,0.0,0.0,0.0,0.0,0.0,0.0,0.0,0.0,0.0,0.0,0.0,0.0,0.0,0.0,0.0,0.0,0.0,0.0,0.0,0.0,0.0,0.0,0.0,0.0,0.0,0.0,0.0,0.0,0.0,0.0,0.0,0.0,0.0,0.0,0.0,0.0,0.0,0.0,3.6097,3.6308,3.6706,3.7614,3.7825,3.8117,3.8658,3.8707,3.8707,3.8707,0.0,0.0,0.0,0.0,0.0,0.0,0.0,0.0,0.0,0.0,0.0,0.0,0.0,0.0,0.0,0.0,0.0,0.0,0.0,0.0,0.0,0.0,0.0,0.0,0.0,0.0,0.0,0.0,0.0,0.0,0.0,0.0,0.0,0.0,0.0,0.0,0.0,0.0,0.0,0.0,0.0,0.0,0.0,0.0,0.0,0.0,0.0,0.0,0.0,0.0,0.0,0.0,0.0,0.0,0.0,0.0,0.0,0.0,0.0,0.0,0.0,0.0,0.0,0.0,0.0,0.0,0.0,0.0,0.0,0.0,0.0,0.0,0.0,0.0,0.0,0.0,0.0,0.0,0.0,0.0,0.0,0.0,0.0,0.0,0.0,0.0,0.0,0.0,0.0,0.0,0.0,0.0,0.0,0.0,0.0,0.0,0.0,0.0,0.0,0.0,0.0,0.0,3.6684,3.6865,3.723,3.7825,3.8099,3.835,3.8658,3.8707,3.8707,3.8707,0.0,0.0,0.0,0.0,0.0,0.0,0.0,0.0,0.0,0.0,0.0,0.0,0.0,0.0,0.0,0.0,0.0,0.0,0.0,0.0,0.0,0.0,0.0,0.0,0.0,0.0,0.0,0.0,0.0,0.0,0.0,0.0,0.0,0.0,0.0,0.0,0.0,0.0,0.0,0.0,0.0,0.0,0.0,0.0,0.0,0.0,0.0,0.0,0.0,0.0,0.0,0.0,0.0,0.0,0.0,0.0,0.0,0.0,0.0,0.0,0.0,0.0,0.0,0.0,0.0,0.0,0.0,0.0,0.0,0.0,0.0,0.0,0.0,0.0,0.0,0.0,0.0,0.0,0.0,0.0,0.0,0.0,0.0,0.0,0.0,0.0,0.0,0.0,0.0,0.0,0.0,0.0,0.0,0.0,0.0,0.0,0.0,0.0,0.0,0.0,0.0,0.0,3.7248,3.7649,3.7911,3.798,3.8415,3.8707,3.8707,3.8707,3.8707,3.8707,0.0,0.0,0.0,0.0,0.0,0.0,0.0,0.0,0.0,0.0,0.0,0.0,0.0,0.0,0.0,0.0,0.0,0.0,0.0,0.0,0.0,0.0,0.0,0.0,0.0,0.0,0.0,0.0,0.0,0.0,0.0,0.0,0.0,0.0,0.0,0.0,0.0,0.0,0.0,0.0,0.0,0.0,0.0,0.0,0.0,0.0,0.0,0.0,0.0,0.0,0.0,0.0,0.0,0.0,0.0,0.0,0.0,0.0,0.0,0.0,-1.0474,0.0,0.0,0.0,0.0,0.0,0.0,0.0,0.0,0.0,0.0,0.0,0.0,0.0,0.0,0.0,0.0,0.0,0.0,0.0,0.0,0.0,0.0,0.0,0.0,0.0,0.0,0.0,0.0,0.0,0.0,0.0,0.0,0.0,0.0,0.0,0.0,0.0,0.0,0.0,0.0,0.0,3.7685,3.7825,3.8065,3.8496,3.8627,3.8707,3.8707,3.8707,3.8707,3.8707,3.8183,0.0,0.0,0.0,0.0,0.0,0.0,0.0,0.0,0.0,0.0,0.0,0.0,0.0,0.0,0.0,0.0,0.0,0.0,0.0,0.0,0.0,0.0,0.0,0.0,0.0,0.0,0.0,0.0,0.0,0.0,0.0,0.0,0.0,0.0,0.0,0.0,0.0,0.0,0.0,0.0,0.0,0.0,0.0,0.0,0.0,0.0,0.0,0.0,0.0,0.0,0.0,0.0,0.0,0.0,0.0,0.0,0.0,0.0,0.0,0.0,-1.2248,0.0,0.0,0.0,0.0,0.0,0.0,0.0,0.0,0.0,0.0,0.0,0.0,0.0,0.0,0.0,0.0,0.0,0.0,0.0,0.0,0.0,0.0,0.0,0.0,0.0,0.0,0.0,0.0,0.0,0.0,0.0,0.0,0.0,0.0,0.0,0.0,0.0,0.0,0.0,0.0,3.8216,3.83,3.8382,3.8658,3.8707,3.8707,3.8707,3.8707,3.8707,3.8707,3.8183,0.0,0.0,0.0,0.0,0.0,0.0,0.0,0.0,0.0,0.0,0.0,0.0,0.0,0.0,0.0,0.0,0.0,0.0,0.0,0.0,0.0,0.0,0.0,0.0,0.0,0.0,0.0,0.0,0.0,0.0,0.0,0.0,0.0,0.0,0.0,0.0,0.0,0.0,0.0,0.0,0.0,0.0,0.0,0.0,0.0,0.0,0.0,0.0,0.0,0.0,0.0,0.0,0.0,-1.7803,-1.8271,-2.3114,-1.8971,-1.8383,-2.0604,-2.0611,-1.791,-1.2991,-0.5038,0.0,0.0,0.0,0.0,0.0,0.0,0.0,0.0,0.0,0.0,0.0,0.0,0.0,0.0,0.0,0.0,0.0,0.0,0.0,0.0,0.0,0.0,0.0,0.0,2.3202,2.7952,0.0,0.0,0.0,0.0,0.0,0.0,0.0,0.0,0.0,0.0,0.0,0.0,3.8401,3.8515,3.8546,3.8546,3.8627,3.8707,3.8707,3.8707,3.8707,3.8707,3.8183,3.7685,0.0,0.0,0.0,0.0,0.0,0.0,0.0,0.0,0.0,0.0,0.0,0.0,0.0,0.0,0.0,0.0,0.0,0.0,0.0,0.0,0.0,0.0,0.0,0.0,0.0,0.0,0.0,0.0,0.0,0.0,0.0,0.0,-1.3777,-0.6932,0.0,0.0,0.0,0.0,0.0,0.0,0.0,0.0,0.0,0.0,0.0,0.0,0.0,-1.8877,-1.5354,-1.9542,-2.0829,-1.9325,-2.1329,-2.2199,-2.2157,-2.1502,-2.1011,-2.0566,-2.0625,0.0,-1.3326,-1.0221,0.0,0.0,0.0,0.0,0.0,0.0,0.0,0.0,0.0,0.0,0.0,0.0,0.0,0.0,0.0,0.0,0.0,0.0,0.0,0.0,0.0,0.0,1.5723,2.0391,2.2248,2.3668,0.0,3.0395,3.4056,3.43,3.4891,0.0,0.0,0.0,0.0,0.0,0.0,0.0,3.7451,3.7773,3.8032,3.8032,3.8415,3.8707,3.8707,3.8707,3.8707,3.8707,3.8183,3.7685,3.7228,3.6764,0.0,0.0,0.0,0.0,0.0,0.0,0.0,0.0,0.0,0.0,0.0,0.0,0.0,0.0,0.0,0.0,0.0,0.0,0.0,0.0,0.0,0.0,0.0,0.0,0.0,0.0,0.0,0.0,0.0,-1.0624,-1.5046,-0.8923,-0.2354,0.3087,0.0,0.0,0.0,0.0,0.0,0.0,0.0,0.0,0.0,-1.3723,-1.653,-1.7705,-1.6762,-1.9297,-1.9967,-1.89,-2.0921,-2.168,-2.1221,-2.1221,-2.1011,-2.0566,-2.0566,-1.944,-1.7454,-1.6468,-1.1044,-0.3088,0.0,0.0,0.0,0.0,0.4007,0.2554,-0.049,-0.1489,0.0,-0.1099,0.0,0.0,0.0,0.0,0.0,0.0,0.0,0.0,0.0,0.0,1.7399,1.9488,2.2206,2.4684,2.5816,3.0,3.3367,0.0,3.431,3.5934,3.7361,0.0,0.0,0.0,0.0,3.7097,3.7173,3.736,3.7506,3.7506,3.7703,3.7964,3.8234,3.8267,3.8382,3.8676,3.8465,3.8117,3.7614,3.7379,3.6981,0.0,0.0,0.0,0.0,0.0,0.0,0.0,0.0,0.0,0.0,0.0,0.0,0.0,0.0,0.0,0.0,0.0,0.0,0.0,0.0,0.0,0.0,0.0,0.0,0.0,0.0,0.0,0.0,-0.8241,-1.3349,-0.8729,-0.4608,-0.0437,0.0,0.0,0.0,0.0,0.0,0.0,-0.4323,-1.2014,-1.6443,-1.6505,-1.6498,-1.6751,-1.7261,-1.8149,-1.855,-1.855,-1.9353,-1.9923,-2.0157,-2.0157,-2.0323,-2.0566,-2.0566,-2.0566,-2.0586,-2.0572,-1.6229,-0.9341,-0.7368,-0.3306,0.132,0.0164,-0.1323,-0.3186,-0.6022,-0.7088,-0.701,-0.699,0.0,0.1451,0.7109,0.0,0.0,0.0,0.0,1.5759,1.9516,1.9092,1.8103,1.9561,2.2834,2.5988,2.7197,3.0249,3.2585,0.0,3.3501,3.544,3.6973,0.0,0.0,0.0,0.0,3.6481,3.6764,3.6904,3.6999,3.6999,3.7114,3.7323,3.7685,3.772,3.7877,3.8285,3.8433,3.8267,3.7755,3.7843,3.7488,3.6603,0.0,0.0,0.0,0.0,0.0,0.0,0.0,0.0,0.0,0.0,0.0,0.0,0.0,0.0,0.0,0.0,0.0,0.0,0.0,0.0,0.0,0.0,0.0,0.0,0.0,0.0,0.0,0.0,0.0,-0.5633,-0.7144,0.0,0.0,0.0,0.0,-0.312,-0.4144,-0.625,-0.9793,-1.2614,-1.5063,-1.7196,-1.7269,-1.7269,-1.7342,-1.7334,-1.7423,-1.7423,-1.7415,-1.806,-1.9116,-1.9116,-1.9599,-2.0566,-2.0566,-2.0566,-2.0566,-2.0586,-1.7163,-1.1834,-1.1676,-0.8158,-0.3707,-0.8119,-0.9745,-1.0031,-1.1365,-1.186,-1.1288,-0.8158,-0.2973,0.232,0.3884,0.7609,0.0,0.0,1.5694,1.4018,1.428,1.4247,1.5823,2.2495,2.4283,2.5745,3.0245,3.2307,3.3133,0.0,3.3166,3.4088,3.5324,0.0,3.564,3.6357,3.6416,3.6224,3.5739,3.6139,3.6457,3.6457,3.6882,3.7228,3.721,3.7228,3.7266,3.7248,3.7685,3.772,3.7248,3.7649,3.7685,3.7173,3.6643,0.0,0.0,0.0,0.0,0.0,0.0,0.0,0.0,0.0,0.0,0.0,0.0,0.0,0.0,0.0,0.0,0.0,0.0,0.0,0.0,0.0,0.0,0.0,0.0,0.0,0.0,0.0,0.0,-0.3293,-0.505,0.0,-0.1577,-0.2894,-0.421,-0.4637,-0.7048,-0.9087,-1.0499,-1.1359,-1.2169,-1.2971,-1.3736,-1.4079,-1.4079,-1.5516,-1.6273,-1.6273,-1.7009,-1.7496,-1.7908,-1.8638,-1.8789,-1.855,-2.0001,-1.9756,-1.863,-1.9991,-1.8585,-1.5375,-1.5375,-1.3367,-1.0539,-1.2199,-1.2813,-1.2734,-1.236,-1.1775,-1.0752,-0.8002,-0.5588,-0.3431,-0.1485,0.1222,0.4655,0.9266,1.0095,1.0236,1.3114,1.4419,1.6172,2.0767,2.3284,2.5298,2.7669,2.9825,3.1315,3.1174,3.3077,3.4885,3.5341,3.547,3.5715,3.6333,3.6097,3.5827,3.5605,3.5783,3.5898,3.5898,3.6054,3.6333,3.6643,3.6684,3.6843,3.719,3.736,3.736,3.7228,3.702,3.6865,3.6684,3.6182,3.6071,0.0,0.0,0.0,0.0,0.0,0.0,0.0,0.0,0.0,0.0,0.0,0.0,0.0,0.0,0.0,0.0,0.0,0.0,0.0,0.0,0.0,0.0,0.0,0.0,0.0,0.0,-0.5075,-0.158,-0.4653,-0.5717,-0.2114,-0.4669,-0.6702,-0.7044,-0.8574,-0.9744,-1.0524,-1.0269,-1.0212,-1.0634,-1.1418,-1.2065,-1.2499,-1.4051,-1.4829,-1.4822,-1.594,-1.6446,-1.6415,-1.7598,-1.796,-1.7606,-1.9396,-1.9314,-1.7989,-1.9835,-1.952,-1.7827,-1.7423,-1.6198,-1.4573,-1.425,-1.4088,-1.3913,-1.2681,-1.1552,-1.0265,-0.836,-0.7404,-0.6789,-0.527,-0.25,0.0626,0.3853,0.5816,0.7837,1.0833,1.3336,1.6006,1.9832,2.2809,2.5223,2.6873,2.8807,3.0329,3.0329,3.2369,3.4137,3.4396,3.4733,3.5304,3.6311,3.599,3.5836,3.658,3.6265,3.6113,3.6366,3.64,3.652,3.6886,3.693,3.6922,3.7049,3.7213,3.7193,3.694,3.6992,3.6841,3.6433,3.5644,3.5537,3.6053,0.0,0.0,0.0,0.0,0.0,0.0,0.0,0.0,0.0,0.0,0.0,0.0,0.0,0.0,0.0,0.0,0.0,0.0,0.0,0.0,0.0,0.0,0.0,0.2661,-0.1823,-0.4136,-0.0706,-0.6331,-0.9178,-0.5722,-0.7435,-0.9323,-1.0448,-0.8364,-0.8109,-1.0371,-0.9423,-0.9429,-1.0686,-1.0691,-1.142,-1.2922,-1.2927,-1.2922,-1.3018,-1.4315,-1.4834,-1.4589,-1.5956,-1.7031,-1.7736,-1.8894,-1.9182,-1.8993,-2.0117,-1.996,-1.8913,-1.7755,-1.6683,-1.5621,-1.4573,-1.4173,-1.3913,-1.2681,-1.1552,-1.0438,-0.9323,-0.8165,-0.719,-0.7068,-0.3842,-0.0179,-0.0,0.3301,0.6887,0.7094,1.0403,1.5005,2.0108,2.2983,2.5408,2.8153,2.9476,3.0119,3.0194,3.0911,3.1712,3.2492,3.3161,3.4314,3.6262,3.6028,0.0,3.8416,3.7592,3.7094,3.7838,3.7905,3.7905,3.7858,3.7858,3.7517,3.6715,3.7119,3.7117,3.6426,3.7523,3.7574,3.635,3.517,3.4858,3.5341,0.0,0.0,0.0,0.0,0.0,0.0,0.0,0.0,0.0,0.0,0.0,0.0,0.0,0.0,0.0,0.0,0.0,0.0,0.0,0.0,0.0,0.0,-0.113,-0.2701,-0.5801,-0.753,-0.6549,-0.7369,-0.765,-0.6669,-0.7214,-0.7801,-0.8278,-0.7663,-0.7626,-0.8375,-0.8114,-0.8133,-0.8451,-0.9271,-1.0393,-1.1736,-1.1639,-1.2097,-1.3012,-1.3387,-1.3471,-1.3543,-1.5602,-1.6294,-1.5877,-1.776,-1.8124,-1.7515,-1.9371,-2.0053,-1.9742,-1.8851,-1.7827,-1.6764,-1.5621,-1.4734,-1.3913,-1.2681,-1.2066,-1.1638,-1.0524,-0.9309,-0.8261,-0.7376,-0.6151,-0.4465,-0.098,0.098,0.2749,0.6204,0.8858,1.1968,1.7088,1.9409,2.1035,2.334,2.5054,2.6563,2.8032,2.9329,3.0758,3.2318,3.3556,3.471,3.5794,3.5742,0.0,3.7912,3.7282,3.7053,3.7824,3.7905,3.7679,3.7103,3.7053,3.6732,3.5927,3.6036,3.6062,3.5853,3.571,3.5235,3.4414,3.4396,3.43,0.0,0.0,0.0,0.0,0.0,0.0,0.0,0.0,0.0,0.0,0.0,0.0,0.0,0.0,0.0,0.0,0.0,0.0,0.0,0.0,0.0,0.0,0.224,-0.3715,-0.5766,-0.7291,-0.8105,-0.8105,-0.7492,-0.7166,-0.7231,-0.7238,-0.7302,-0.7455,-0.7465,-0.7506,-0.7594,-0.76,-0.7628,-0.7685,-0.8902,-1.0153,-1.1561,-1.202,-1.2675,-1.3333,-1.3902,-1.3902,-1.3426,-1.5369,-1.5875,0.0,-1.6981,-1.7595,-1.7628,-1.9255,-2.0382,0.0,0.0,0.0,0.0,0.0,-1.6156,-1.5296,-1.4678,-1.4413,-1.4156,-1.2553,-1.1616,-1.0758,-0.91,-0.7903,-0.6505,-0.3726,-0.1509,0.0621,0.3427,0.6279,0.9602,1.3838,1.6549,1.8801,2.1312,2.3172,2.4862,2.6914,2.8477,0.0,3.1509,3.2996,3.4415,3.5837,3.5798,3.6228,3.7952,3.7308,3.7012,3.7793,3.7878,3.7653,3.7178,3.7178,0.0,0.0,0.0,3.6047,3.6047,3.5416,0.0,0.0,0.0,3.3722,3.3198,0.0,0.0,0.0,3.4104,3.3443,0.0,0.0,0.0,0.0,0.0,0.0,0.0,0.0,0.0,0.0,0.0,0.0,0.0,0.0,0.0,0.0,0.0791,-0.6376,-0.6573,-0.6643,-0.6808,-0.7081,-0.7081,-0.7231,-0.7383,-0.7397,-0.7458,-0.7611,-0.7624,-0.7631,-0.7648,0.0,0.0,0.0,0.0,-1.0298,-1.1848,-1.321,-1.3884,-1.3878,-1.5045,-1.4949,-1.3974,-1.533,-1.5873,-1.5715,-1.6773,-1.7854,-1.879,-1.9736,-2.0875,-2.1928,-2.0848,-2.0289,-2.0075,-1.8725,-1.7904,-1.7458,-1.7458,0.0,0.0,-1.4922,-1.4166,-1.3489,-1.1543,-0.9331,-0.7467,-0.72,-0.4082,-0.0712,-0.0179,0.3353,0.7505,1.0562,1.396,1.7266,2.041,2.2043,2.3663,2.6154,2.7603,2.8827,3.0146,3.1854,3.3834,3.5932,3.5855,3.6278,3.8281,3.7455,3.6988,3.7742,0.0,0.0,3.769,3.7632,3.7338,3.6554,3.6519,3.6546,3.6467,3.5823,3.5137,3.4442,3.3825,3.3121,3.2419,3.2545,3.2866,3.3391,3.3443,3.3198,0.0,0.0,0.0,0.0,0.0,0.0,0.0,0.0,0.0,0.0,0.0,0.0,0.0,0.0,0.0,0.8138,0.2545,-0.1792,-0.3097,-0.3839,-0.4947,-0.6898,-0.7265,-0.7319,-0.7363,-0.7466,-0.7614,-0.776,-0.777,-0.7824,-0.7946,-0.7953,-0.7967,-0.7994,-0.8241,-0.9514,-1.1848,-1.2867,-1.3551,-1.3878,0.0,0.0,-1.3968,-1.6264,-1.7282,-1.7316,-1.8485,-1.9701,-2.0802,-2.0979,-2.1798,-2.2746,-2.1878,-2.0996,-2.0196,-1.9862,-1.9201,-1.8371,-1.8371,-1.7688,-1.6827,-1.6386,-1.498,-1.3231,-1.2788,-1.1557,0.0,-0.7706,-0.6465,-0.4816,-0.0999,0.2267,0.5255,0.7647,1.0329,1.2957,1.5489,1.6823,1.8789,2.2841,2.4266,2.5644,2.8287,3.1144,3.3425,3.4468,3.5122,3.6122,3.771,3.718,3.6943,3.7748,3.7822,3.7515,3.6919,3.6843,3.6508,3.5782,3.5725,3.5455,3.4956,3.482,3.404,3.265,3.3183,3.2795,3.1372,3.2154,3.2309,3.1951,3.2532,3.2734,0.0,0.0,0.0,0.0,0.0,0.0,0.0,0.0,0.0,0.0,0.0,1.7058,0.0,0.0,1.1144,0.7771,0.5323,0.3102,0.1115,-0.1775,-0.4031,-0.5248,-0.5435,-0.6048,-0.7343,-0.7538,-0.7684,-0.7933,-0.7933,-0.796,-0.8035,-0.8011,-0.7997,-0.7997,-0.8007,-0.9251,-1.1869,-1.3601,-1.4598,-1.4854,-1.4854,-1.5222,-1.5873,-1.7117,-1.8056,-1.8588,-1.9222,-2.0215,-2.1382,-2.1943,-2.258,-2.3096,-2.2676,-2.2024,-2.1381,-2.1381,-2.0471,-1.9264,-1.9264,-1.8493,-1.7375,-1.6851,-1.5881,-1.4821,-1.4218,-1.3213,-1.1828,-1.0524,-0.8733,-0.6509,-0.3325,-0.0371,0.2416,0.4686,0.733,0.9942,1.1881,1.4135,1.672,2.0084,2.2133,2.4023,2.612,2.8724,3.0967,3.2414,3.2972,3.3693,3.5011,3.4361,3.4147,3.5061,3.5205,3.5026,3.4596,3.4596,3.4196,3.3309,3.324,3.3085,3.276,3.2746,3.2492,3.1875,3.2339,3.1974,3.0881,3.1347,3.1381,3.1065,3.0654,3.1013,0.0,0.0,0.0,0.0,0.0,0.0,0.0,0.0,2.0828,1.8797,1.707,1.5316,1.349,1.2003,1.0436,0.8337,0.7735,0.6941,0.4955,0.1241,-0.1722,-0.2782,-0.2869,-0.3753,-0.5909,-0.6603,-0.7236,-0.7962,-0.7955,-0.8045,-0.8038,-0.7984,-0.8255,-0.8765,-0.8225,-0.9252,-1.1889,-1.4506,-1.5927,-1.6312,-1.6312,-1.6958,-1.8048,-1.8319,-1.9039,-2.0189,-2.0468,-2.0926,-2.1756,-2.2677,-2.3135,-2.3135,-2.3135,-2.293,-2.2637,-2.2637,-2.1608,-2.026,-2.0525,-1.9661,-1.828,-1.7482,-1.6958,-1.6617,-1.5479,-1.4443,-1.3568,-1.3379,-1.1196,-0.8374,-0.6216,-0.3498,-0.0759,0.1804,0.466,0.7227,0.9229,1.1889,1.4654,1.7109,1.9715,2.1942,2.3014,2.5308,2.7711,3.0061,3.0585,3.0969,3.1852,3.1203,3.0969,3.1852,3.1938,3.1938,3.1938,3.1938,3.1608,3.0721,3.0647,3.0647,3.0647,3.0647,3.0771,3.0891,3.1091,3.0724,2.9867,3.0062,3.0077,2.9956,2.8684,2.9244,2.6574,2.5359,0.0,2.0813,1.9229,1.7235,0.0,0.0,1.4414,1.2178,1.1514,1.1332,1.1377,1.0272,0.9367,0.9284,0.8419,0.7553,0.7305,0.6949,0.4916,0.0199,-0.0394,-0.0491,-0.08,-0.3003,-0.5415,-0.7869,-0.7972,-0.7962,-0.8041,-0.7984,-0.9072,-1.1353,-0.9231,-0.9252,-1.1889,-1.4506,-1.6501,-1.8047,-1.8047,-1.8473,-1.9314,-2.0395,-2.1533,-2.264,-2.372,-2.3684,-2.295,-2.3047,-2.3135,-2.3135,-2.3135,-2.3105,-2.3066,-2.3066,-2.2211,-2.1344,-2.2358,-2.1273,-1.9373,-1.9191,-1.847,-1.7301,-1.6101,-1.5458,-1.4969,-1.3938,-1.3933,-1.3279,-0.8649,-0.6072,-0.3868,-0.0494,0.1788,0.4169,0.7537,0.8536,0.9795,1.3143,1.5269,1.6893,1.8049,2.1201,2.463,2.7735,2.8994,2.953,2.9618,2.9543,2.9543,2.9694,2.9694,2.9694,2.9694,2.9694,2.9618,2.9467,2.9467,2.9467,2.9467,2.9467,2.9098,2.8294,2.9124,2.885,2.7332,2.8151,2.8245,2.7708,2.7488,2.8365,2.2495,0.0,0.0,0.0,1.6514,1.6018,1.4601,1.4678,1.4566,1.3139,1.2296,1.1932,1.2277,1.1318,1.0292,0.0,0.923,0.8638,0.7933,0.798,0.7205,0.4929,0.1896,0.0,0.0,-0.1006,-0.2107,-0.3307,-0.6237,-0.7962,-0.8041,-0.7953,-0.9934,-1.4021,-1.3064,-1.3054,-1.4195,-1.5268,-1.619,-1.6862,-1.9161,-2.0417,-2.0771,-2.2364,-2.3949,-2.5487,-2.4589,-2.4206,-2.4049,-2.3387,-2.3135,-2.3135,-2.3135,-2.3551,-2.4049,-2.3299,-2.2306,-2.1382,-2.1863,-2.0953,-1.9497,-1.9497,-1.9131,-1.8495,-1.7311,-1.6858,-1.6472,-1.5256,-1.4647,-1.3932,-1.1849,-0.99,-0.7764,-0.5268,-0.3283,-0.0994,0.2593,0.4982,0.7159,0.9734,1.152,1.3501,1.6081,1.8362,2.0499,2.2698,2.5069,2.6932,2.7599,2.647,2.5842,2.6472,2.5928,2.5835,2.6553,2.5928,2.5228,2.4566,2.5222,2.5596,2.5596,2.6318,2.6805,2.7047,2.7474,2.7369,2.6657,2.7079,2.6734,2.5712,2.4799,2.4692,2.1471,0.0,0.0,1.6814,1.5973,1.6026,1.5779,1.5771,1.557,1.4642,1.42,1.3875,1.3822,1.3111,1.2069,1.0619,1.0079,0.9458,0.8219,0.7959,0.7975,0.7989,0.4533,0.1611,0.0101,0.0,0.0,0.0,-0.4922,-0.7965,-0.8041,-0.8045,-1.0445,-1.5588,-1.5803,-1.5807,-1.575,-1.5784,-1.5972,-1.6307,-2.066,-2.2931,-2.3224,-2.4705,-2.6176,-2.7413,-2.569,-2.5238,-2.568,-2.485,-2.4512,-2.4502,-2.4293,-2.474,-2.5391,-2.4433,-2.3231,-2.2124,-2.1845,-2.1212,-2.0369,-2.0116,-2.0034,-1.9761,-1.8596,-1.8234,-1.7956,-1.6662,-1.5704,-1.4829,-1.4064,-1.2399,-1.0547,-0.9091,-0.7387,-0.5388,-0.2803,0.0598,0.3677,0.5487,0.7606,1.0101,1.3126,1.5113,1.6693,1.7764,2.0427,2.2814,2.4374,2.3075,2.2349,2.3073,2.2438,2.2254,2.315,2.2351,2.1563,2.0722,2.1557,2.2026,2.2026,2.2834,2.371,2.4555,2.4555,2.4555,2.4555,2.4555,2.4088,2.315,2.2035,2.1444,0.0,0.0,2.2692,2.0678,1.8726,1.7009,1.5944,1.5943,1.5755,1.4683,1.5675,1.6411,1.5501,1.5232,1.4452,1.2185,1.0769,0.9505,0.8237,0.7959,0.7975,0.7989,0.7805,0.5667,0.0,0.0,0.0,0.0,-0.4926,-0.7975,-0.8041,-0.7984,-1.0353,-1.5638,-1.5834,-1.5841,-1.5782,-1.5808,-1.6377,-1.7587,-2.3012,-2.6156,-2.7155,-2.758,-2.7917,-2.8091,-2.7819,-2.7906,-2.7981,-2.7981,-2.7981,-2.7936,-2.7379,-2.7189,-2.7133,-2.6568,-2.5554,-2.4366,-2.3424,-2.2979,-2.2727,-2.163,-2.1203,-2.1025,-1.9852,-1.9405,-1.9222,-1.7963,-1.7591,-1.7016,-1.4543,-1.2909,-1.1668,-1.0744,-0.9164,-0.7872,-0.7782,-0.492,-0.19,-0.01,0.3081,0.6049,0.7875,1.1085,1.3492,1.3874,1.5049,1.6821,1.9372,1.967,1.9579,1.967,1.9571,1.9571,1.9662,1.9571,1.9579,1.9579,1.9579,1.9579,1.9579,1.967,1.967,1.967,1.967,1.967,1.967,1.967,1.967,1.9662,1.9563,1.9563,0.0,0.0,2.1584,1.8997,1.807,1.7697,1.7282,1.7464,1.7698,1.7588,1.8543,1.9383,1.9223,1.8552,1.7469,1.5771,1.3121,1.0779,0.9509,0.8535,0.7344,0.5532,0.5336,0.0,0.0,0.0,0.0,-0.5029,-0.6962,-0.8019,-0.7981,-0.7989,-0.8814,-1.0539,-1.4725,-1.6987,-1.6941,-1.7021,-1.9056,-2.2975,-2.5919,-2.8218,-2.99,-2.9206,-2.9623,-3.0701,-2.9137,-2.8779,-2.9168,-2.8373,-2.8113,-2.8102,-2.7933,-2.8305,-2.8876,-2.7941,-2.826,-2.8787,-2.6256,-2.5368,-2.5251,-2.483,-2.4235,-2.3384,-2.2211,-2.1257,-2.0486,-1.9222,-1.8864,-1.8488,-1.6821,-1.6062,-1.5203,-1.3221,-1.1673,-1.0395,-0.9891,-0.8806,-0.7409,-0.5695,-0.3371,-0.0197,0.4466,0.6735,0.9002,1.2037,1.5025,1.6865,1.6937,1.7732,1.7925,1.7044,1.6303,1.5732,1.5678,1.4956,1.45,1.45,1.6001,1.6556,1.5772,1.7265,1.7811,1.6936,1.6936,1.6936,1.6936,1.6936,1.6486,1.5678,1.5678,1.5227,2.4888,2.3189,2.173,1.9314,1.8947,1.9094,1.88,1.9118,1.928,1.9087,2.0697,2.1978,2.1696,2.1031,2.0013,1.8742,1.5585,1.2689,1.0937,0.9155,0.7384,0.5629,0.4626,0.0,0.0,0.0,0.0,-0.8073,-0.8282,-0.8736,-0.9686,-0.8856,-0.9282,-1.1339,-1.7299,-1.9527,-1.7597,-1.852,-2.1569,-2.661,-2.8295,-2.977,-3.1134,-3.0406,-3.0956,-3.2431,-3.0472,-3.0196,-3.0943,-3.015,-2.9891,-2.9867,-2.9668,-3.0036,-3.0543,-2.9652,-3.0181,-3.1004,-2.7856,-2.6824,-2.6707,-2.6113,-2.5136,-2.4029,-2.3308,-2.2532,-2.1667,-2.0486,-2.0124,-1.9852,-1.868,-1.8025,-1.7245,-1.5536,-1.3825,-1.2389,-1.1879,-1.1361,-1.082,-1.0006,-0.8456,-0.5536,-0.0297,0.2181,0.4367,0.7257,1.0079,1.2652,1.4518,1.5305,1.5285,1.4404,1.3663,1.3182,1.3143,1.241,1.1945,1.1945,1.3686,1.4453,1.3578,1.4779,1.5132,1.426,1.426,1.426,1.426,1.426,1.3897,1.3075,1.3075,1.2711,2.4449,2.3509,2.3152,2.1659,2.135,2.1144,2.0495,2.0625,2.0656,1.9604,2.2226,2.4336,0.0,0.0,2.2312,2.1025,1.7796,1.4652,1.2138,0.9631,0.8004,0.0,0.0,0.0,0.0,0.0,0.0,-0.888,0.0,-1.0063,-1.263,-1.075,-1.2082,-1.7603,-2.2818,-2.3125,-1.8267,-2.0845,-2.424,-2.8441,-2.9917,-3.0842,-3.1311,-3.1311,-3.1965,-3.3068,-3.1865,-3.1952,-3.3081,-3.3081,-3.3081,-3.3018,-3.2466,-3.2252,-3.219,-3.1675,-3.1474,-3.1128,-2.8475,-2.7522,-2.7251,-2.5667,-2.4348,-2.3416,-2.3416,-2.3319,-2.3028,-2.1836,-2.1471,-2.1203,-1.9943,-1.8684,-1.7704,-1.7704,-1.5832,-1.4058,-1.4153,-1.3149,-1.2446,-1.3208,-1.1965,-0.9628,-0.6153,-0.268,-0.0398,-0.0398,0.0791,0.4337,1.1888,1.2175,1.1745,1.1858,1.1858,1.1755,1.1448,1.1444,1.1346,1.1336,1.2083,1.2612,1.2515,1.1805,1.1404,1.1306,1.1203,1.1198,1.1198,1.1091,1.1086,1.1086,1.1086,1.1086,2.5595,2.4811,2.3796,2.2631,2.2866,2.3155,2.2126,2.2873,2.3665,2.3388,2.5935,2.815,0.0,0.0,0.0,2.3355,1.7394,0.0,1.2017,0.9657,0.0,0.0,0.0,0.2933,0.0309,-0.5395,0.0,0.0,-0.8871,-0.9793,-1.1741,-1.5983,-1.9088,-2.0585,-2.2026,-2.3934,-2.6416,-2.7686,-2.9553,-3.186,-3.1293,-3.1572,-3.2612,-3.2612,-3.2797,-3.3068,-3.2797,-3.2797,-3.3081,-3.3081,-3.3081,-3.3056,-3.2918,-3.2855,-3.283,-3.2704,-3.2654,-3.2469,-3.1378,-3.066,-3.0294,-2.99,-2.8645,-2.7406,-2.7406,-2.6574,-2.5389,-2.4255,-2.3912,-2.3384,-2.1373,-2.0549,-2.0326,-2.0248,-1.8315,-1.7035,-1.8838,-1.7574,-1.5873,-1.519,-1.3721,-1.1878,-0.9633,-0.7461,-0.5983,-0.5983,-0.3386,0.0596,0.6552,0.8217,0.9726,1.1678,1.19,1.004,0.5483,0.5081,0.4476,0.3071,0.4148,0.4443,0.3371,0.4051,0.4051,0.3077,0.2072,0.1573,0.1573,0.0586,0.0097,0.0097,0.0097,0.0097,2.5444,2.5189,2.4721,2.362,2.4132,2.4805,2.4221,2.5193,2.6266,2.6689,2.8929,0.0,0.0,0.0,0.0,0.0,0.0,0.0,1.1996,1.0635,0.93,0.0,0.5677,0.0,0.0311,-0.421,-0.8574,0.0,-1.1043,-1.1009,-1.3052,-1.806,-2.1399,-2.2443,-2.4479,-2.6865,-2.9393,-3.0836,-3.2028,-3.2972,-3.2239,-3.2807,-3.4402,-3.4024,-3.4024,-3.4485,0.0,-3.4178,-3.3797,-3.3797,-3.3797,-3.3797,-3.3326,-3.3398,-3.3713,-3.324,-3.3081,-3.3031,-3.2704,-3.239,-3.1968,-3.103,-2.9726,-2.8544,-2.8544,-2.7767,-2.6713,-2.6114,-2.5708,-2.5199,-2.3882,-2.3537,-2.3517,-2.3458,-2.1973,-2.0979,-2.2331,-2.1155,-1.947,-1.8331,-1.6908,-1.5328,-1.385,-1.2304,-1.1163,-1.0608,-0.8807,-0.6113,-0.2163,0.187,0.5049,0.649,0.6697,0.5291,0.1796,0.1497,0.1096,0.0099,-0.0,-0.0397,-0.1196,-0.3074,-0.4464,-0.5185,-0.5948,-0.6828,-0.8038,-0.8713,-0.9685,-1.0757,-1.0757,-1.0725,2.4779,2.5245,2.5709,2.4627,2.5131,2.5981,2.6181,2.7163,2.8433,2.9441,0.0,3.2653,3.2779,0.0,2.6029,2.5577,0.0,1.4728,1.2143,1.1468,1.044,0.8275,0.5625,0.2792,-0.0312,-0.2995,-0.7936,-1.6318,-1.4082,-1.3301,-1.5728,-1.8693,-2.1545,-2.4198,-2.8432,-3.0352,-2.9681,-3.1882,-3.2996,-3.3085,-3.3288,-3.4383,-3.6198,-3.5547,-3.5547,-3.6198,-3.6328,0.0,-3.4897,-3.4897,-3.4897,-3.4815,-3.3869,-3.4108,-3.4746,-3.3713,-3.3313,-3.3326,-3.3154,-3.3081,-3.2819,-3.0895,-2.9491,-2.8648,-2.8648,-2.8294,-2.7809,-2.764,-2.7205,-2.682,-2.6655,-2.6528,-2.6565,-2.6637,-2.5793,-2.4872,-2.5029,-2.3965,-2.2736,-2.1729,-2.0509,-1.9322,-1.8399,-1.7162,-1.593,-1.4854,-1.4578,-1.3726,-1.1742,-0.5623,-0.1489,-0.1589,-0.159,-0.1589,-0.1787,-0.1787,-0.1687,-0.1588,-0.3181,-0.4182,-0.4182,-0.9505,-1.2387,-1.2387,-1.2515,-1.3819,-1.6269,-1.6373,-1.7683,-1.9939,-1.9939,-1.9927,2.5413,2.6297,2.6764,2.5665,2.5872,2.6326,2.6259,2.7802,0.0,0.0,0.0,3.3941,3.4574,3.1307,0.0,2.595,0.0,0.0,0.0,0.0,0.8528,0.0,0.0,0.0,0.0,0.0,0.0,0.0,0.0,-1.5909,-1.864,-2.1295,-2.4466,-2.8222,-3.0102,-3.105,-3.0855,-3.3164,-3.4371,-3.4376,-3.5953,-3.6501,-3.6263,-3.7483,-3.7437,-3.6263,-3.6991,0.0,-3.5974,-3.5974,-3.5974,-3.5894,-3.5734,-3.5814,-3.5814,-3.4815,-3.4428,-3.4275,-3.3398,-3.3081,-3.3043,-3.2671,-3.2017,-3.1452,-3.1452,-3.107,-3.0474,-2.963,-2.8905,-2.8245,-2.7413,-2.6869,-2.6719,-2.7602,-2.7023,-2.6427,-2.7313,-2.5799,-2.424,-2.407,-2.2994,-2.2091,-2.1917,-2.0747,-1.9866,-1.9601,-1.8726,-1.7545,-1.6176,-1.1823,-0.9033,-0.9772,-0.9874,-1.0177,-1.0877,-1.0877,-1.056,-0.9926,-1.1153,-1.1905,-1.1905,-1.3832,-1.4993,-1.4993,-1.5946,-1.725,-1.8629,-1.9686,-2.0882,-2.2221,-2.2221,-2.2202,2.6954,2.7802,2.7948,2.7091,2.7599,2.8311,2.8655,0.0,0.0,0.0,0.0,3.598,3.5965,0.0,0.0,0.0,0.0,0.0,0.0,0.0,0.0,0.0,0.0,0.0,0.0,0.0,0.0,0.0,0.0,-1.7853,-2.1303,-2.5303,-2.8635,-3.1235,-3.1877,-3.2476,-3.3028,-3.468,-3.6026,-3.7034,-3.7883,-3.8618,-3.9238,-3.9525,-3.9204,-3.8576,-3.9436,0.0,-3.7717,-3.8179,-3.837,-3.8311,-3.7296,-3.7249,-3.7505,-3.6026,-3.5521,-3.544,-3.4884,-3.4719,-3.4719,-3.4719,-3.4136,-3.3597,-3.4133,-3.3886,-3.3357,-3.2839,-3.233,-3.1642,-3.0838,-3.039,-3.0202,-3.0405,-3.0012,-2.9859,-3.034,-2.9529,-2.8582,-2.8023,-2.749,-2.6875,-2.6289,-2.561,-2.4798,-2.3762,-2.3018,-2.2064,-2.036,-1.8226,-1.6188,-1.4082,-1.3814,-1.4011,-1.4417,-1.4417,-1.4028,-1.2962,-1.4052,-1.4508,-1.3874,-1.5631,-1.6892,-1.7484,-1.8739,-1.9911,-2.1092,-2.1674,-2.2879,-2.4514,-2.4514,-2.5085,2.8137,2.8686,2.8642,2.8239,2.8767,2.9704,3.0725,3.247,0.0,0.0,3.7338,3.7632,3.7188,0.0,0.0,0.0,0.0,0.0,0.0,0.0,0.0,0.0,0.0,0.0,0.0,0.0,0.0,0.0,0.0,0.0,-2.4534,-2.9081,-3.2091,-3.3386,-3.383,-3.4389,-3.5047,-3.6378,-3.7777,-3.9095,-3.9716,-4.0671,-4.1981,-4.15,-4.1188,-4.1013,-4.1933,0.0,0.0,-4.0458,-4.0727,-4.0577,-3.9062,-3.8964,-3.9536,-3.7777,-3.7124,-3.7048,-3.6803,-3.6726,-3.6803,-3.7034,-3.6156,-3.521,-3.5974,-3.5894,-3.5612,-3.5612,-3.5183,-3.4663,-3.4343,-3.4178,-3.3984,-3.348,-3.3227,-3.3059,-3.3059,-3.3059,-3.2821,-3.2003,-3.1847,-3.1577,-3.0658,-3.0377,-2.9706,-2.8011,-2.7565,-2.6794,-2.4847,-2.4524,-2.2988,-1.8962,-1.7697,-1.7117,-1.7117,-1.7117,-1.6764,-1.5778,-1.6849,-1.7117,-1.6137,-1.8276,-1.9813,-2.074,-2.1789,-2.2928,-2.4231,-2.4231,-2.5415,-2.7765,-2.7765,-2.8771,2.7543,2.7915,2.8195,2.8084,2.8176,2.876,3.055,0.0,0.0,3.7156,3.7764,3.7978,3.858,3.7218,3.4913,0.0,0.0,2.379,0.0,0.0,0.0,0.0,0.0,0.0,0.0,0.0,0.0,0.0,0.0,0.0,-2.88,-3.1245,-3.3208,-3.4498,-3.623,-3.6761,-3.6053,-3.8718,-3.9741,-3.9167,-4.1693,-4.2567,-4.2062,-4.3529,-4.3393,-4.1933,-4.2785,0.0,0.0,-4.1837,-4.1837,-4.1837,-4.1692,-4.1627,-4.1611,-4.0442,-3.9987,-3.9887,-3.8871,-3.8555,-3.8713,-3.9734,-3.8238,-3.6053,-3.6198,-3.617,-3.6129,-3.6129,-3.5714,-3.5523,-3.627,-3.6086,-3.5677,-3.5681,-3.5175,-3.4679,-3.4679,-3.4679,-3.4679,-3.4584,-3.4519,-3.4519,-3.441,-3.3801,-3.3346,-3.3111,-3.2441,-3.1608,-3.0397,-3.0235,-2.9707,-2.8232,-2.4523,-2.2168,-2.2168,-2.2168,-2.2082,-2.1985,-2.3146,-2.3689,-2.3594,-2.4914,-2.5742,-2.5826,-2.5931,-2.6943,-2.8848,-2.8848,-3.0297,-3.3111,-3.3111,-3.3585,2.8932,2.9024,2.9106,2.9106,2.9524,3.0416,3.2272,0.0,0.0,3.8012,3.8816,3.9102,3.8924,3.8332,3.6995,3.4271,3.0866,0.0,0.0,0.0,0.0,0.0,0.0,0.0,0.0,0.0,0.0,0.0,0.0,0.0,-3.1444,-3.3025,-3.4696,-3.6309,-3.7087,-3.7899,-3.8718,-3.9833,-4.1031,-4.2164,-4.2933,-4.3781,-4.467,-4.4635,-4.4361,-4.3923,-4.4444,0.0,0.0,-4.4473,-4.4415,-4.4034,-4.3506,-4.3098,-4.2645,-4.1709,-4.1351,-4.1286,-4.0876,-4.0712,-4.0794,-4.1204,-4.0588,-3.9677,-3.9677,-3.9339,-3.8896,-3.8896,-3.9103,-3.9206,-3.8674,-3.8442,-3.835,-3.8388,-3.7856,-3.731,-3.731,-3.6937,-3.6714,-3.7028,-3.6904,-3.6773,-3.7086,-3.6622,-3.5998,-3.5435,-3.5115,-3.4486,-3.3489,-3.3339,-3.3012,-3.2134,-2.8317,-2.6077,-2.6623,-2.5722,-2.4934,-2.4775,-2.5362,-2.5427,-2.4598,-2.6397,-2.7669,-2.8306,-2.8897,-3.0136,-3.2102,-3.2102,-3.3249,-3.5356,-3.5691,-3.63,3.0316,2.9998,2.9792,2.9792,3.067,3.1938,0.0,0.0,0.0,3.8586,3.9542,3.9901,3.9368,3.9086,3.8237,3.6276,3.3361,3.0618,0.0,0.0,0.0,0.0,0.0,0.0,0.0,0.0,0.0,0.0,0.0,0.0,0.0,-3.5532,-3.657,-3.7914,-3.8761,-3.9764,-4.0876,-4.1582,-4.2687,-4.4198,-4.4187,-4.4971,-4.6383,-4.5511,-4.5286,-4.5556,-4.5713,0.0,0.0,-4.6187,-4.6143,-4.5664,-4.4883,-4.4316,-4.3905,-4.3251,-4.3054,-4.3037,-4.3228,-4.333,-4.333,-4.333,-4.3152,-4.2955,-4.3211,-4.2266,-4.108,-4.108,-4.1869,-4.2418,-4.1324,-4.1303,-4.1571,-4.1571,-4.1023,-4.0453,-4.0453,-4.0055,-3.9818,-4.0171,-3.9759,-3.9448,-3.9851,-3.9199,-3.8384,-3.7721,-3.7438,-3.7044,-3.6357,-3.6088,-3.5799,-3.525,-3.2361,-3.0355,-3.0271,-2.9262,-2.8607,-2.8399,-2.8331,-2.8107,-2.7651,-2.8895,-3.0134,-3.1083,-3.1806,-3.2945,-3.4581,-3.4581,-3.5468,-3.7133,-3.7689,-3.8533,3.118,3.0482,2.9792,2.9792,3.1088,3.2569,0.0,0.0,0.0,3.8696,3.9542,4.007,4.007,3.9437,3.8635,3.7921,3.6292,0.0,0.0,0.0,0.0,0.0,0.0,0.0,0.0,0.0,0.0,0.0,0.0,0.0,0.0,-3.9023,-3.9095,-3.9095,-4.1757,-4.2847,-4.1997,-4.4277,-4.5041,-4.4198,-4.5643,-4.6383,-4.6383,-4.6383,-4.6365,0.0,0.0,0.0,0.0,-4.6383,-4.6383,-4.6336,-4.5732,-4.5494,-4.5459,-4.5459,-4.5442,-4.5545,-4.6143,-4.6365,-4.6365,-4.6365,-4.5824,-4.5319,-4.6121,-4.4326,-4.1997,-4.1997,-4.3032,-4.4181,-4.4181,-4.4714,-4.5227,-4.5227,-4.4688,-4.4139,-4.4139,-4.4139,-4.4139,-4.4139,-4.3501,-4.2969,-4.2969,-4.1628,-4.0591,-4.0591,-3.9939,-3.9446,-3.9446,-3.8952,-3.8541,-3.8541,-3.7213,-3.5307,-3.2778,-3.3253,-3.3743,-3.3729,-3.2947,-3.3224,-3.4713,-3.4126,-3.4074,-3.4842,-3.4842,-3.5362,-3.6383,-3.6383,-3.725,-3.8908,-3.9478,-4.05,3.2321,3.2324,3.254,3.254,3.3821,3.5344,3.6121,0.0,0.0,3.9542,4.0186,4.0528,4.0171,4.0186,3.9901,3.8728,3.8109,0.0,0.0,0.0,0.0,0.0,0.0,0.0,0.0,0.0,0.0,0.0,0.0,0.0,0.0,-4.2321,-4.3032,-4.2594,-4.344,-4.4248,-4.4991,-4.5745,-4.6205,-4.6371,-4.6395,-4.6847,-4.7656,-4.6801,-4.6892,0.0,0.0,0.0,0.0,-4.7697,-4.747,-4.7044,-4.6864,-4.6542,-4.6112,-4.6112,-4.6112,-4.6143,-4.6336,-4.6383,-4.6383,-4.6383,-4.6235,-4.6055,-4.6318,-4.5026,-4.3606,-4.4204,-4.4616,-4.501,-4.5575,-4.5897,-4.6059,-4.6059,-4.5713,-4.5354,-4.5354,-4.516,-4.5149,-4.5496,-4.4851,-4.4349,-4.4776,-4.3835,-4.3039,-4.3039,-4.2868,-4.2695,-4.2695,-4.2573,-4.2237,-4.1711,-4.1728,-4.0227,-3.6476,-3.5198,-3.4882,-3.5546,-3.4703,-3.4398,-3.4906,-3.5359,-3.5657,-3.5937,-3.658,-3.7467,-3.8714,-3.8714,-3.9698,-4.1507,-4.1912,-4.2538,0.0,3.4132,3.4193,3.4193,3.5548,0.0,0.0,0.0,0.0,4.0302,4.0655,4.078,4.0449,4.0251,3.9851,3.9053,3.8398,0.0,0.0,0.0,0.0,0.0,0.0,0.0,0.0,0.0,0.0,0.0,0.0,0.0,0.0,-4.442,-4.5381,-4.5405,-4.5165,-4.5523,-4.6631,-4.6874,-4.7307,-4.7837,-4.7682,-4.8011,-4.8728,-4.7915,-4.8011,0.0,0.0,0.0,0.0,-4.8513,-4.831,-4.7947,-4.7729,-4.7362,-4.698,-4.6829,-4.6774,-4.6801,-4.7044,-4.7132,-4.7132,-4.7132,-4.7132,-4.7088,-4.6847,-4.5958,-4.5148,-4.5697,-4.5926,-4.6147,-4.6628,-4.706,-4.7325,-4.7325,-4.7302,-4.7279,-4.7279,-4.7085,-4.7066,-4.7379,-4.675,-4.6242,-4.6624,-4.59,-4.5235,-4.5095,-4.5055,-4.4993,-4.4862,-4.4653,-4.4341,-4.3907,-4.4041,-4.3133,-4.0454,-3.8351,-3.7356,-3.7648,-3.6607,-3.6274,-3.6841,-3.7371,-3.7802,-3.8082,-3.8887,-3.9716,-4.0548,-4.0548,-4.135,-4.2905,-4.3083,-4.3573,0.0,3.5907,0.0,0.0,0.0,0.0,0.0,0.0,0.0,0.0,0.0,0.0,4.0903,3.9851,3.8999,3.9053,0.0,0.0,0.0,0.0,0.0,0.0,0.0,0.0,0.0,0.0,0.0,0.0,0.0,0.0,0.0,-4.58,-4.648,-4.7518,-4.6945,-4.6793,-4.715,-4.7785,-4.8291,-4.8684,-4.9232,-4.9504,-4.9504,-4.9504,-4.9504,0.0,0.0,0.0,0.0,-4.8963,-4.8963,-4.8878,-4.8347,-4.8126,-4.805,-4.7688,-4.7578,-4.762,-4.8174,-4.8402,-4.8402,-4.8364,-4.8326,-4.821,-4.7614,-4.7044,-4.6524,-4.646,-4.6981,-4.7512,-4.7512,-4.8217,-4.8963,-4.8963,-4.9265,-4.9532,-4.9532,-4.958,-4.9608,-4.9608,-4.8966,-4.8437,-4.8437,-4.7767,-4.7137,-4.6769,-4.6688,-4.6578,-4.621,-4.5714,-4.5424,-4.5385,-4.4856,-4.452,-4.4422,-4.2458,-4.0933,-4.0153,-3.8957,-3.886,-4.0239,-4.0119,-4.0329,-4.0949,-4.1578,-4.1877,-4.1902,-4.1943,-4.2436,-4.3306,-4.3321,-4.3806,3.8237,0.0,3.7971,3.7971,3.8755,0.0,0.0,0.0,0.0,0.0,0.0,0.0,0.0,0.0,0.0,0.0,0.0,0.0,0.0,0.0,0.0,0.0,0.0,0.0,0.0,0.0,0.0,0.0,0.0,0.0,0.0,-4.8301,-4.8735,-4.9019,-4.8866,-4.868,-4.8473,-4.8917,-4.9189,-4.9281,-4.9426,-4.9504,-4.9504,-4.9504,-4.9504,0.0,0.0,0.0,-4.9356,-4.9356,-4.9356,-4.9356,-4.9208,-4.9146,-4.9146,-4.9051,-4.9019,-4.9019,-4.9171,-4.9202,-4.919,-4.8881,-4.8532,-4.8267,-4.8114,-4.7977,-4.7756,-4.7281,-4.7849,-4.8566,-4.8566,-4.8959,-4.9356,-4.9356,-4.9664,-4.9949,-4.9949,-5.0183,-5.0421,-5.0421,-5.003,-4.9689,-4.9689,-4.9265,-4.889,-4.8821,-4.8773,-4.8743,-4.8671,-4.854,-4.8362,-4.8062,-4.7884,-4.7427,-4.6515,-4.4607,-4.3388,-4.3167,-4.2882,-4.2591,-4.2342,-4.2271,-4.2053,-4.1595,-4.2162,-4.2603,-4.2887,-4.3293,-4.3738,-4.428,-4.4511,-4.4768,3.869,3.8908,3.8908,3.8908,3.9209,3.9662,4.002,0.0,0.0,0.0,0.0,0.0,0.0,0.0,0.0,0.0,0.0,0.0,0.0,0.0,0.0,0.0,0.0,0.0,0.0,0.0,0.0,0.0,0.0,0.0,0.0,-4.9504,-4.9692,-4.9522,-4.9872,-4.9853,-4.9456,-4.9692,-4.9872,-5.0043,-5.0043,-5.0043,-5.0043,-5.0125,-5.0144,0.0,0.0,0.0,-4.9872,-4.9815,-4.9773,-4.9773,-4.9773,-4.9773,-4.9746,-4.9561,-4.9504,-4.9504,-4.9504,-4.9504,-4.9445,-4.9234,-4.9029,-4.8847,-4.8847,-4.8847,-4.8725,-4.8217,-4.86,-4.9171,-4.9171,-4.9475,-4.9773,-4.9773,-5.013,-5.0476,-5.0476,-5.064,-5.0818,-5.0875,-5.0621,-5.0377,-5.0476,-5.024,-4.9974,-4.98,-4.9773,-4.9719,-4.9532,-4.9504,-4.9416,-4.9202,-4.9171,-4.8907,-4.8267,-4.7223,-4.6057,-4.4707,-4.4351,-4.4006,-4.3598,-4.3797,-4.3778,-4.3358,-4.3688,-4.3852,-4.3855,-4.4138,-4.4455,-4.4849,-4.503,-4.518,3.8398,3.8388,3.8339,3.8767,3.8799,3.8924,3.961,0.0,0.0,0.0,0.0,0.0,0.0,0.0,0.0,0.0,0.0,0.0,0.0,0.0,0.0,0.0,0.0,0.0,0.0,0.0,0.0,0.0,0.0,0.0,0.0,-5.0038,-5.0081,-4.973,-5.0393,-5.0602,-5.0259,-5.0202,-5.0358,-5.0702,-5.0721,-5.0721,-5.0741,-5.0875,-5.0933,-5.091,0.0,0.0,-5.0413,-5.0278,-5.0221,-5.024,-5.0202,-5.0202,-5.0178,-4.9819,-4.9692,-4.9692,-4.9692,-4.9645,-4.9589,-4.9589,-4.9532,-4.9504,-4.9504,-4.9532,-4.9532,-4.9171,-4.9326,-4.9589,-4.9589,-4.9917,-5.0221,-5.0221,-5.0577,-5.0933,-5.093,-5.0929,-5.0951,-5.1087,-5.0913,-5.0797,-5.0895,-5.0856,-5.0642,-5.0287,-5.0221,-5.0087,-4.9719,-4.9692,-4.9664,-4.9608,-4.9589,-4.958,-4.9522,-4.9504,-4.8421,-4.5933,-4.5209,-4.4861,-4.4736,-4.5182,-4.5442,-4.5506,-4.5487,-4.5283,-4.4871,-4.4871,-4.4962,-4.518,-4.5199,-4.5361,3.6888,3.6152,3.5905,3.8323,3.8414,3.7978,3.8092,0.0,0.0,0.0,0.0,0.0,0.0,0.0,0.0,0.0,0.0,0.0,0.0,0.0,0.0,0.0,0.0,0.0,0.0,0.0,0.0,0.0,0.0,0.0,0.0,-5.0737,-5.0815,-5.0851,-5.0971,-5.101,-5.0951,-5.0719,-5.0643,-5.0702,-5.0837,-5.0875,-5.0875,-5.101,-5.107,-5.107,0.0,-5.0981,-5.0972,-5.0816,-5.0855,-5.0932,-5.07,-5.0681,-5.0758,-5.0582,-5.0523,-5.0523,-5.0523,-5.0294,-5.0019,-5.0019,-4.9773,-4.9504,-4.9504,-4.9746,-5.0019,-4.9924,-4.9949,-5.0019,-5.0019,-5.039,-5.0797,-5.0797,-5.0932,-5.1064,-5.1069,-5.107,-5.1082,-5.1105,-5.1068,-5.1063,-5.1086,-5.1049,-5.0971,-5.0797,-5.0797,-5.0719,-5.0523,-5.0523,-5.0399,-5.0043,-5.0019,-4.9872,-4.9532,-4.9504,-4.9303,-4.887,-4.8416,-4.7879,-4.7212,-4.6912,-4.6817,-4.6816,-4.6816,-4.6561,-4.6043,-4.6043,-4.5851,-4.5532,-4.5628,-4.5722,3.6615,3.5055,3.4155,3.7121,3.5355,3.313,3.4397,0.0,0.0,0.0,0.0,0.0,0.0,0.0,0.0,0.0,0.0,0.0,0.0,0.0,0.0,0.0,0.0,0.0,0.0,0.0,0.0,0.0,0.0,0.0,0.0,0.0,-5.1034,-5.1111,-5.1111,-5.1111,-5.1111,-5.0976,-5.0929,-5.0933,-5.0991,-5.1005,-5.1,-5.1103,-5.1141,-5.1141,0.0,-5.1154,-5.1152,-5.1056,-5.1032,-5.1087,-5.0964,-5.0955,-5.0991,-5.0875,-5.0818,-5.0818,-5.0721,-5.0584,-5.0421,-5.0421,-5.0313,-5.0159,-5.0159,-5.0329,-5.0517,-5.0517,-5.0517,-5.0517,-5.0517,-5.0776,-5.1009,-5.1014,-5.1076,-5.1144,-5.1138,-5.1142,-5.1171,-5.1245,-5.1162,-5.1123,-5.1141,-5.1113,-5.1092,-5.1015,-5.102,-5.0972,-5.0837,-5.0818,-5.0701,-5.0462,-5.0421,-5.0336,-5.0159,-5.0159,-4.9949,-4.9532,-4.9326,-4.9065,-4.8689,-4.8493,-4.8275,-4.8004,-4.8004,-4.7776,-4.7259,-4.7356,-4.7031,-4.6355,-4.6488,-4.6294,3.6384,3.4272,3.2646,3.5139,3.2011,2.876,3.019,2.8846,0.0,0.0,0.0,0.0,0.0,0.0,0.0,0.0,0.0,0.0,0.0,0.0,0.0,0.0,0.0,0.0,0.0,0.0,0.0,0.0,0.0,0.0,0.0,0.0,-5.1131,-5.1172,-5.1161,-5.1172,-5.1172,-5.1172,-5.1159,-5.1097,-5.1125,-5.1114,-5.112,-5.1203,-5.1242,-5.1247,-5.1249,-5.125,-5.1249,-5.1171,-5.1147,-5.117,-5.1125,-5.1102,-5.1097,-5.0982,-5.095,-5.0933,-5.0837,-5.0779,-5.0779,-5.0779,-5.0779,-5.0779,-5.0779,-5.0875,-5.0952,-5.0947,-5.0951,-5.0972,-5.0947,-5.1028,-5.1123,-5.1127,-5.1192,-5.1242,-5.1242,-5.1245,-5.1289,-5.1387,-5.1273,-5.1199,-5.1248,-5.1195,-5.1152,-5.1133,-5.1125,-5.1076,-5.096,-5.0932,-5.0914,-5.076,-5.0741,-5.0721,-5.0702,-5.0702,-5.0421,-4.9827,-4.9692,-4.9645,-4.9645,-4.9746,-4.9619,-4.9251,-4.9232,-4.896,-4.8452,-4.8547,-4.8176,-4.7352,-4.7499,-4.7071,3.5782,3.3451,3.1325,3.1776,2.9908,0.0,2.6411,2.186,0.0,0.5283,0.0,0.0,0.0,0.0,0.0,0.0,0.0,0.0,0.0,0.0,0.0,0.0,0.0,0.0,0.0,0.0,0.0,0.0,0.0,0.0,0.0,0.0,0.0,-5.1365,-5.1375,-5.1386,-5.1386,-5.1386,-5.1278,-5.1102,-5.1151,-5.1183,-5.1201,-5.1336,-5.1382,-5.1384,-5.1386,-5.1387,-5.1387,-5.1249,-5.1264,-5.1355,-5.1162,-5.1103,-5.1102,-5.1083,-5.1092,-5.1087,-5.1068,-5.1068,-5.1068,-5.1068,-5.1068,-5.1068,-5.1068,-5.1087,-5.1085,-5.1081,-5.1141,-5.1161,-5.1113,-5.1145,-5.1203,-5.1183,-5.1288,-5.1382,-5.1382,-5.1386,-5.1387,-5.1406,-5.1386,-5.1386,-5.1387,-5.1386,-5.1346,-5.121,-5.1188,-5.1164,-5.1094,-5.1099,-5.1029,-5.0914,-5.0895,-5.0856,-5.0702,-5.0702,-5.0683,-5.0624,-5.0272,-5.0068,-5.0068,-5.0421,-5.0605,-5.0567,-5.0567,-5.0221,-4.949,-4.949,-4.9115,-4.8399,-4.8527,-4.8118,3.4412,2.8285,2.336,2.7307,2.0935,0.0,0.0,0.6905,0.127,-0.4002,-1.4197,0.0,0.0,0.0,0.0,0.0,0.0,0.0,0.0,0.0,0.0,0.0,0.0,0.0,0.0,0.0,0.0,0.0,0.0,0.0,0.0,0.0,0.0,-5.1406,-5.1394,-5.1398,-5.1398,-5.1398,-5.1359,-5.1301,-5.131,-5.1316,-5.1323,-5.1377,-5.1406,-5.1406,-5.1406,-5.1406,-5.1406,-5.1348,-5.1343,-5.1398,-5.132,-5.1281,-5.1281,-5.1183,-5.1152,-5.1156,-5.1113,-5.1095,-5.1095,-5.1095,-5.1095,-5.1095,-5.1095,-5.1125,-5.1164,-5.1167,-5.1254,-5.1299,-5.1186,-5.1253,-5.1316,-5.1316,-5.1359,-5.1406,-5.1406,-5.1406,-5.1406,-5.1406,-5.1406,-5.1406,-5.1406,-5.1406,-5.1387,-5.1328,-5.1328,-5.1287,-5.1187,-5.1162,-5.1133,-5.1037,-5.102,-5.101,-5.0952,-5.0875,-5.0875,-5.0952,-5.0661,-5.0483,-5.0483,-5.0701,-5.0837,-5.0837,-5.0914,-5.0818,-5.0529,-5.0568,-5.0198,-4.9436,-4.9566,-4.9166,2.9231,2.2559,1.6853,0.0,0.0,0.0,-0.231,-0.6474,-1.1029,-1.6386,0.0,0.0,0.0,0.0,0.0,0.0,0.0,0.0,0.0,0.0,0.0,0.0,0.0,0.0,0.0,0.0,0.0,0.0,0.0,0.0,0.0,0.0,0.0,0.0,-5.1406,-5.1406,-5.1406,-5.1406,-5.1406,-5.1406,-5.1406,-5.1406,-5.1406,-5.1406,-5.1406,-5.1406,-5.1406,-5.1406,-5.1406,-5.1406,-5.1406,-5.1406,-5.1406,-5.1406,-5.1387,-5.1308,-5.1269,-5.1268,-5.1216,-5.1193,-5.1193,-5.1193,-5.1193,-5.1193,-5.1193,-5.123,-5.1247,-5.1258,-5.1322,-5.138,-5.1283,-5.1336,-5.1406,-5.1406,-5.1406,-5.1406,-5.1406,-5.1406,-5.1406,-5.1406,-5.1406,-5.1406,-5.1406,-5.1406,-5.1406,-5.1406,-5.1406,-5.1367,-5.1269,-5.1258,-5.1232,-5.1135,-5.1108,-5.109,-5.109,-5.1013,-5.0984,-5.1087,-5.0928,-5.0829,-5.0837,-5.0914,-5.097,-5.0955,-5.1051,-5.1099,-5.1126,-5.1183,-5.0945,-5.0449,-5.0532,-5.0107,1.9752,1.6851,0.0,0.0,0.0,0.0,-1.3767,-1.6846,-2.129,-3.4251,0.0,0.0,0.0,0.0,0.0,0.0,0.0,0.0,0.0,0.0,0.0,0.0,0.0,0.0,0.0,0.0,0.0,0.0,0.0,0.0,0.0,0.0,0.0,-5.1406,-5.1406,-5.1406,-5.1406,-5.1406,-5.1406,-5.1406,-5.1406,-5.1406,-5.1406,-5.1406,-5.1406,-5.1406,-5.1406,-5.1406,-5.1406,-5.1406,-5.1406,-5.1406,-5.1406,-5.1406,-5.1406,-5.1406,-5.1406,-5.1406,-5.1406,-5.1406,-5.1406,-5.1406,-5.1406,-5.1406,-5.1406,-5.1406,-5.1391,-5.1405,-5.1395,-5.1406,-5.1406,-5.1406,-5.1406,-5.1406,-5.1406,-5.1406,-5.1406,-5.1406,-5.1406,-5.1406,-5.1406,-5.1406,-5.1406,-5.1406,-5.1406,-5.1406,-5.1406,-5.1406,-5.1406,-5.1406,-5.1348,-5.1211,-5.1141,-5.1094,-5.1094,-5.1094,-5.1108,-5.1106,-5.1095,-5.1095,-5.1087,-5.1106,-5.1109,-5.1103,-5.1094,-5.114,-5.1203,-5.1203,-5.1263,-5.1406,-5.1406,-5.0894,2.6455,0.0,0.0,0.0,0.0,0.0,0.0,-2.1587,0.0,0.0,0.0,0.0,0.0,0.0,0.0,0.0,0.0,0.0,0.0,0.0,0.0,0.0,0.0,0.0,0.0,0.0,0.0,0.0,0.0,0.0,0.0,0.0,-5.1406,-5.1406,-5.1406,-5.1406,-5.1406,-5.1406,-5.1406,-5.1406,-5.1406,-5.1406,-5.1406,-5.1406,-5.1406,-5.1406,-5.1406,-5.1406,-5.1406,-5.1406,-5.1406,-5.1406,-5.1406,-5.1406,-5.1406,-5.1406,-5.1406,-5.1406,-5.1406,-5.1406,-5.1406,-5.1406,-5.1406,-5.1406,-5.1406,-5.1406,-5.1405,-5.1401,-5.1408,-5.1377,-5.1284,-5.1256,-5.1256,-5.1256,-5.1256,-5.1244,-5.1203,-5.1229,-5.1269,-5.1269,-5.1348,-5.1406,-5.1406,-5.1406,-5.1406,-5.1406,-5.1406,-5.1406,-5.1406,-5.1406,-5.1387,-5.1348,-5.1322,-5.131,-5.131,-5.1213,-5.1211,-5.1318,-5.1217,-5.1154,-5.1095,-5.1153,-5.1182,-5.117,-5.1269,-5.1316,-5.1336,-5.1336,-5.1307,-5.1256,-5.1256,-5.1089,1.3282,0.0,0.0,0.0,0.0,0.0,0.0,0.0,0.0,0.0,0.0,0.0,0.0,0.0,0.0,0.0,0.0,0.0,0.0,0.0,0.0,0.0,0.0,0.0,0.0,0.0,0.0,0.0,0.0,0.0,0.0,-5.1406,-5.1406,-5.1406,-5.1406,-5.1406,-5.1406,-5.1406,-5.1406,-5.1406,-5.1406,-5.1406,-5.1406,-5.1406,-5.1406,-5.1406,-5.1406,-5.1406,-5.1406,-5.1406,-5.1406,-5.1406,-5.1406,-5.1406,-5.1406,-5.1406,-5.1406,-5.1406,-5.1406,-5.1406,-5.1406,-5.1406,-5.1406,-5.1406,-5.1406,-5.1406,-5.1385,-5.1343,-5.132,-5.1297,-5.1189,-5.1157,-5.1163,-5.1164,-5.1159,-5.1143,-5.1116,-5.1122,-5.1147,-5.1152,-5.1238,-5.1277,-5.1277,-5.1302,-5.1328,-5.1328,-5.1367,-5.1406,-5.1406,-5.1406,-5.1406,-5.1406,-5.1406,-5.1406,-5.1406,-5.1328,-5.1304,-5.1381,-5.1322,-5.125,-5.1226,-5.1259,-5.128,-5.128,-5.1355,-5.1374,-5.132,-5.132,-5.1258,-5.1157,-5.1162,-5.1099,0.0,0.0,0.0,0.0,0.0,0.0,0.0,0.0,0.0,0.0,0.0,0.0,0.0,0.0,0.0,0.0,0.0,0.0,0.0,0.0,0.0,0.0,0.0,0.0,0.0,0.0,0.0,0.0,0.0,0.0,0.0,-5.1406,-5.1406,-5.1406,-5.1406,-5.1406,-5.1406,-5.1406,-5.1406,-5.1406,-5.1406,-5.1406,-5.1406,-5.1406,-5.1406,-5.1406,-5.1406,-5.1406,-5.1406,-5.1406,-5.1406,-5.1406,-5.1406,-5.1406,-5.1406,-5.1406,-5.1406,-5.1406,-5.1406,-5.1406,-5.1406,-5.1406,-5.1406,-5.1406,-5.1382,-5.1381,-5.1351,-5.1231,-5.1183,-5.1162,-5.1101,-5.1087,-5.1083,-5.1062,-5.1072,-5.1087,-5.1068,-5.1068,-5.1082,-5.1086,-5.1092,-5.1092,-5.1092,-5.1141,-5.1187,-5.1189,-5.1287,-5.1366,-5.1387,-5.1386,-5.1384,-5.1381,-5.1384,-5.1365,-5.1365,-5.1365,-5.1365,-5.1365,-5.1383,-5.1385,-5.1367,-5.1386,-5.1386,-5.1381,-5.1381,-5.1316,-5.1201,-5.1183,-5.1148,-5.1092,-5.1073,-5.101,0.0,0.0,0.0,0.0,0.0,0.0,0.0,0.0,0.0,0.0,0.0,0.0,0.0,0.0,0.0,0.0,0.0,0.0,0.0,0.0,0.0,0.0,0.0,0.0,0.0,0.0,0.0,0.0,0.0,0.0,-5.1406,-5.1406,-5.1406,-5.1406,-5.1406,-5.1406,-5.1406,-5.1406,-5.1406,0.0,-5.1406,-5.1406,-5.1406,-5.1406,-5.1406,-5.1406,-5.1406,-5.1406,-5.1406,-5.1406,-5.1406,-5.1406,-5.1406,-5.1406,-5.1406,-5.1406,-5.1406,-5.1406,-5.1406,-5.1406,-5.1406,-5.1406,-5.1406,-5.1379,-5.1256,-5.1246,-5.1237,-5.1146,-5.1134,-5.1087,-5.0985,-5.0951,-5.0914,-5.0794,-5.0874,-5.0914,-5.0818,-5.0875,-5.0933,-5.0947,-5.1022,-5.1099,-5.1099,-5.1106,-5.1133,-5.112,-5.1145,-5.118,-5.1249,-5.121,-5.1181,-5.1237,-5.1189,-5.1164,-5.1164,-5.1164,-5.1164,-5.1164,-5.1211,-5.123,-5.1179,-5.1313,-5.1357,-5.1261,-5.1246,-5.1189,-5.1113,-5.1114,-5.1067,-5.0945,-5.0933,-5.0875,0.0,0.0,0.0,0.0,0.0,0.0,0.0,0.0,0.0,0.0,0.0,0.0,0.0,0.0,0.0,0.0,0.0,0.0,0.0,0.0,0.0,0.0,0.0,0.0,0.0,0.0,0.0,0.0,0.0,-5.1406,-5.1406,-5.1406,-5.1406,-5.1406,-5.1406,-5.1406,-5.1406,-5.1408,-5.1366,-5.1307,-5.1307,-5.1289,-5.1264,-5.1363,-5.1367,-5.1308,-5.1367,-5.1406,-5.1406,-5.1406,-5.1406,-5.1406,-5.1406,-5.1406,-5.1386,-5.1323,-5.1307,-5.1304,-5.1299,-5.1281,-5.1255,-5.1284,-5.1277,-5.1238,-5.1173,-5.1153,-5.1125,-5.1018,-5.0999,-5.0972,-5.0856,-5.0818,-5.0779,-5.0721,-5.0741,-5.0779,-5.0721,-5.0741,-5.0818,-5.0818,-5.0875,-5.0914,-5.0914,-5.0972,-5.1028,-5.1087,-5.1097,-5.1108,-5.1152,-5.1123,-5.112,-5.1163,-5.1128,-5.1097,-5.1097,-5.1097,-5.1097,-5.1097,-5.1128,-5.1142,-5.1094,-5.1201,-5.1217,-5.116,-5.1141,-5.1101,-5.1,-5.0987,-5.0952,-5.0818,-5.0818,-5.076,0.0,0.0,0.0,0.0,0.0,0.0,0.0,0.0,0.0,0.0,0.0,0.0,0.0,0.0,0.0,0.0,0.0,0.0,0.0,0.0,0.0,0.0,0.0,0.0,0.0,0.0,0.0,0.0,0.0,-5.1406,-5.1406,-5.1406,-5.1406,-5.1406,-5.1406,-5.1404,-5.1402,-5.1377,-5.1299,-5.1203,-5.1183,-5.1131,-5.107,-5.1258,-5.1294,-5.1185,-5.1302,-5.1342,-5.1342,-5.1342,-5.1342,-5.1342,-5.1342,-5.1342,-5.133,-5.1217,-5.1182,-5.118,-5.1186,-5.1154,-5.11,-5.1157,-5.1141,-5.1097,-5.1078,-5.1072,-5.1049,-5.0914,-5.0875,-5.0856,-5.0721,-5.0702,-5.0702,-5.0702,-5.0702,-5.0702,-5.0702,-5.0702,-5.0702,-5.0702,-5.0702,-5.0702,-5.0702,-5.0779,-5.0914,-5.101,-5.1029,-5.1049,-5.1068,-5.1063,-5.1037,-5.1048,-5.1049,-5.1029,-5.1029,-5.1029,-5.1029,-5.1029,-5.1049,-5.1059,-5.1027,-5.1054,-5.1057,-5.1039,-5.1054,-5.101,-5.0875,-5.0875,-5.0818,-5.0702,-5.0702,-5.0702,0.0,0.0,0.0,0.0,0.0,0.0,0.0,0.0,0.0,0.0,0.0,0.0,0.0,0.0,0.0,0.0,0.0,0.0,0.0,0.0,0.0,0.0,0.0,0.0,0.0,0.0,0.0,0.0,0.0,-5.1406,-5.1406,-5.1406,-5.1406,-5.1406,-5.1406,-5.1405,-5.1402,-5.1278,-5.1222,-5.1203,-5.1145,-5.1048,-5.093,-5.1078,-5.1139,-5.1101,-5.112,-5.1139,-5.1139,-5.1139,-5.1139,-5.1139,-5.1139,-5.1139,-5.1131,-5.1122,-5.1102,-5.1106,-5.1119,-5.112,-5.11,-5.1099,-5.1106,-5.1085,-5.0969,-5.0914,-5.0914,-5.076,-5.0721,-5.0721,-5.0702,-5.0702,-5.0702,-5.0702,-5.0702,-5.0702,-5.0702,-5.0702,-5.0702,-5.0702,-5.0702,-5.0702,-5.0702,-5.0702,-5.0721,-5.0741,-5.0741,-5.0818,-5.0914,-5.0836,-5.0797,-5.0914,-5.0837,-5.0741,-5.0741,-5.0741,-5.0741,-5.0741,-5.0875,-5.0875,-5.0758,-5.0856,-5.0856,-5.0776,-5.0856,-5.0875,-5.0721,-5.0721,-5.0721,-5.0702,-5.0702,-5.0702,0.0,0.0,0.0,0.0,0.0,0.0,0.0,0.0,0.0,0.0,0.0,0.0,0.0,0.0,0.0,0.0,0.0,0.0,0.0,0.0,0.0,0.0,0.0,0.0,0.0,0.0,0.0,0.0,0.0,-5.1406,-5.1406,-5.1406,-5.1402,-5.1413,-5.1325,-5.1275,-5.1279,-5.118,-5.1103,-5.1029,-5.0933,-5.0856,-5.0779,-5.0856,-5.0929,-5.0995,-5.1072,-5.1111,-5.1111,-5.1111,-5.1111,-5.1111,-5.1111,-5.1111,-5.1091,-5.1014,-5.0999,-5.0991,-5.0991,-5.0947,-5.0887,-5.0952,-5.0952,-5.0875,-5.0818,-5.0779,-5.0779,-5.0721,-5.0702,-5.0702,-5.0702,-5.0702,-5.0702,-5.0702,-5.0702,-5.0702,-5.0702,-5.0702,-5.0702,-5.0702,-5.0702,-5.0702,-5.0702,-5.0702,-5.0702,-5.0702,-5.0702,-5.0721,-5.0779,-5.0741,-5.0721,-5.0779,-5.0741,-5.0702,-5.0702,-5.0702,-5.0702,-5.0702,-5.076,-5.076,-5.0702,-5.076,-5.076,-5.0702,-5.076,-5.076,-5.0702,-5.0702,-5.0702,-5.0683,-5.0483,-5.0358,0.0,0.0,0.0,0.0,0.0,0.0,0.0,0.0,0.0,0.0,0.0,0.0,0.0,0.0,0.0,0.0,0.0,0.0,0.0,0.0,0.0,0.0,0.0,0.0,0.0,0.0,0.0,0.0,0.0,-5.1406,-5.1406,-5.1406,-5.1394,-5.1395,-5.126,-5.1203,-5.1203,-5.1102,-5.0986,-5.0856,-5.0741,-5.0702,-5.0702,-5.0702,-5.0741,-5.0856,-5.0952,-5.101,-5.101,-5.101,-5.101,-5.101,-5.101,-5.101,-5.0991,-5.0895,-5.0856,-5.0856,-5.0856,-5.0779,-5.0721,-5.0837,-5.0779,-5.0702,-5.0702,-5.0702,-5.0702,-5.0702,-5.0702,-5.0702,-5.0702,-5.0702,-5.0702,-5.0702,-5.0702,-5.0702,-5.0702,-5.0702,-5.0702,-5.0702,-5.0702,-5.0702,-5.0702,-5.0702,-5.0702,-5.0702,-5.0702,-5.0702,-5.0702,-5.0702,-5.0702,-5.0702,-5.0702,-5.0702,-5.0702,-5.0702,-5.0702,-5.0702,-5.0702,-5.0702,-5.0702,-5.0702,-5.0702,-5.0702,-5.0702,-5.0702,-5.0702,-5.0604,-5.0544,-5.0544,-5.0116,-4.9949,0.0,0.0,0.0,0.0,0.0,0.0,0.0,0.0,0.0,0.0,0.0,0.0,0.0,0.0,0.0,0.0,0.0,0.0,0.0,0.0,0.0,0.0,0.0,0.0,0.0,0.0,0.0,0.0,0.0,-5.1406,-5.1406,-5.1406,-5.1394,-5.1395,-5.126,-5.1203,-5.1203,-5.101,-5.0837,-5.0702,-5.0702,-5.0702,-5.0702,-5.0702,-5.0702,-5.0702,-5.0721,-5.0721,-5.0721,-5.0721,-5.0721,-5.0721,-5.0721,-5.0721,-5.0721,-5.0702,-5.0702,-5.0702,-5.0702,-5.0702,-5.0702,-5.0702,-5.0702,-5.0702,-5.0702,-5.0702,-5.0702,-5.0702,-5.0702,-5.0702,-5.0702,-5.0702,-5.0702,-5.0702,-5.0702,-5.0702,-5.0702,-5.0702,-5.0702,-5.0702,-5.0702,-5.0702,-5.0702,-5.0702,-5.0702,-5.0702,-5.0702,-5.0702,-5.0702,-5.0702,-5.0702,-5.0702,-5.0702,-5.0702,-5.0702,-5.0702,-5.0702,-5.0702,-5.0702,-5.0702,-5.0702,-5.0702,-5.0702,-5.0702,-5.0702,-5.0702,-5.0702,-5.0313,-5.0135,-5.0116,-4.9719,-4.9532,0.0,0.0,0.0,0.0,0.0,0.0,0.0,0.0,0.0,0.0,0.0,0.0,0.0,0.0,0.0,0.0,0.0,0.0,0.0,0.0,0.0,0.0,0.0,0.0,0.0,0.0,0.0,0.0,0.0,-5.1359,-5.1287,-5.1263,-5.125,-5.1205,-5.1078,-5.0972,-5.0895,-5.0818,-5.0741,-5.0702,-5.0702,-5.0702,-5.0702,-5.0702,-5.0702,-5.0702,-5.0702,-5.0702,-5.0702,-5.0702,-5.0702,-5.0702,-5.0702,-5.0702,-5.0702,-5.0702,-5.0702,-5.0702,-5.0702,-5.0702,-5.0702,-5.0702,-5.0702,-5.0702,-5.0702,-5.0702,-5.0702,-5.0702,-5.0702,-5.0702,-5.0702,-5.0702,-5.0702,-5.0702,-5.0702,-5.0702,-5.0702,-5.0702,-5.0702,-5.0702,-5.0702,-5.0702,-5.0702,-5.0702,-5.0702,-5.0702,-5.0702,-5.0702,-5.0702,-5.0702,-5.0702,-5.0702,-5.0702,-5.0702,-5.0702,-5.0702,-5.0702,-5.0702,-5.0702,-5.0702,-5.0702,-5.0702,-5.0702,-5.0702,-5.0462,-5.0294,-5.0294,-5.0159,-4.9974,-4.9719,-4.9295,-4.9108,-2.9596,0.0,0.0,0.0,0.0,0.0,0.0,0.0,0.0,0.0,0.0,0.0,0.0,0.0,0.0,0.0,0.0,0.0,0.0,0.0,0.0,0.0,0.0,0.0,0.0,0.0,0.0,0.0,0.0,0.0,-5.1202,-5.1203,-5.1157,-5.103,-5.0962,-5.0856,-5.0702,-5.0702,-5.0702,-5.0702,-5.0702,-5.0702,-5.0702,-5.0702,-5.0702,-5.0702,-5.0702,-5.0702,-5.0702,-5.0702,-5.0702,-5.0702,-5.0702,-5.0702,-5.0702,-5.0702,-5.0702,-5.0702,-5.0702,-5.0702,-5.0702,-5.0702,-5.0702,-5.0702,-5.0702,-5.0702,-5.0702,-5.0702,-5.0702,-5.0702,-5.0702,-5.0702,-5.0702,-5.0702,-5.0702,-5.0702,-5.0702,-5.0702,-5.0702,-5.0702,-5.0702,-5.0702,-5.0702,-5.0702,-5.0702,-5.0702,-5.0702,-5.0702,-5.0702,-5.0702,-5.0702,-5.0702,-5.0702,-5.0702,-5.0702,-5.0702,-5.0702,-5.0702,-5.0702,-5.0702,-5.0702,-5.0702,-5.0643,-5.0504,-5.0249,-4.9974,-4.97,-4.97,-4.9561,-4.9295,-4.8897,-4.8692,0.0,0.0,0.0,0.0,0.0,0.0,0.0,0.0,0.0,0.0,0.0,0.0,0.0,0.0,0.0,0.0,0.0,0.0,0.0,0.0,0.0,0.0,0.0,0.0,0.0,0.0,0.0,0.0,-5.1392,-5.1337,-5.1203,-5.1203,-5.1106,-5.0914,-5.0895,-5.0837,-5.0702,-5.0702,-5.0702,-5.0702,-5.0702,-5.0702,-5.0702,-5.0702,-5.0702,-5.0702,-5.0702,-5.0702,-5.0702,-5.0702,-5.0702,-5.0702,-5.0702,-5.0702,-5.0702,-5.0702,-5.0702,-5.0702,-5.0702,-5.0702,-5.0702,-5.0702,-5.0702,-5.0702,-5.0702,-5.0702,-5.0702,-5.0702,-5.0702,-5.0702,-5.0702,-5.0702,-5.0702,-5.0702,-5.0702,-5.0702,-5.0702,-5.0702,-5.0702,-5.0702,-5.0702,-5.0702,-5.0702,-5.0702,-5.0702,-5.0702,-5.0702,-5.0702,-5.0702,-5.0702,-5.0702,-5.0702,-5.0702,-5.0702,-5.0702,-5.0702,-5.0702,-5.0702,-5.0702,-5.0702,-5.0702,-5.0683,-5.0504,-5.0092,-5.0068,-4.9673,-4.8897,-4.8897,-4.8897,-4.8863,-4.8477,-4.8306,-3.2997,0.0,0.0,0.0,0.0,0.0,0.0,0.0,0.0,0.0,0.0,0.0,0.0,0.0,0.0,0.0,0.0,0.0,0.0,0.0,0.0,0.0,0.0,0.0,0.0,0.0,0.0,0.0,-5.1312,-5.1215,-5.1134,-5.0941,-5.0818,-5.076,-5.076,-5.0741,-5.0702,-5.0702,-5.0702,-5.0702,-5.0702,-5.0702,-5.0702,-5.0702,-5.0702,-5.0702,-5.0702,-5.0702,-5.0702,-5.0702,-5.0702,-5.0702,-5.0702,-5.0702,-5.0702,-5.0702,-5.0702,-5.0702,-5.0702,-5.0702,-5.0702,-5.0702,-5.0702,-5.0702,-5.0702,-5.0702,-5.0702,-5.0702,-5.0702,-5.0702,-5.0702,-5.0702,-5.0702,-5.0702,-5.0702,-5.0702,-5.0702,-5.0702,-5.0702,-5.0702,-5.0702,-5.0702,-5.0702,-5.0702,-5.0702,-5.0702,-5.0702,-5.0702,-5.0702,-5.0702,-5.0702,-5.0702,-5.0702,-5.0702,-5.0702,-5.0702,-5.0702,-5.0702,-5.0702,-5.0702,-5.0702,-5.0421,-5.0206,-5.0092,-4.9532,-4.9139,-4.8897,-4.8897,-4.8744,-4.844,-4.8364,-4.8306,0.0,0.0,0.0,0.0,0.0,0.0,0.0,-4.8732,0.0,0.0,0.0,0.0,0.0,0.0,0.0,0.0,0.0,0.0,0.0,0.0,0.0,0.0,0.0,0.0,0.0,0.0,-5.1381,-5.1337,-5.1241,-5.1159,-5.1029,-5.0829,-5.0702,-5.0702,-5.0702,-5.0702,-5.0702,-5.0702,-5.0702,-5.0702,-5.0702,-5.0702,-5.0702,-5.0702,-5.0702,-5.0702,-5.0702,-5.0702,-5.0702,-5.0702,-5.0702,-5.0702,-5.0702,-5.0702,-5.0702,-5.0702,-5.0702,-5.0702,-5.0702,-5.0702,-5.0702,-5.0702,-5.0702,-5.0702,-5.0702,-5.0702,-5.0702,-5.0702,-5.0702,-5.0702,-5.0702,-5.0702,-5.0702,-5.0702,-5.0702,-5.0702,-5.0702,-5.0702,-5.0702,-5.0702,-5.0702,-5.0702,-5.0702,-5.0702,-5.0702,-5.0702,-5.0702,-5.0702,-5.0702,-5.0702,-5.0702,-5.0702,-5.0702,-5.0702,-5.0702,-5.0702,-5.0702,-5.0702,-5.0702,-5.0624,-5.0462,-5.0206,-4.9949,-4.9617,-4.9139,-4.8813,-4.8657,-4.8657,-4.855,-4.8306,-4.8306,-4.8306,0.0,0.0,0.0,0.0,0.0,0.0,-4.8484,-4.9133,-4.9773,0.0,0.0,0.0,0.0,0.0,0.0,0.0,0.0,0.0,0.0,0.0,0.0,0.0,0.0,0.0,0.0,-5.1399,-5.1318,-5.1203,-5.1183,-5.1087,-5.0895,-5.076,-5.0702,-5.0702,-5.0702,-5.0702,-5.0702,-5.0702,-5.0702,-5.0702,-5.0702,-5.0702,-5.0702,-5.0702,-5.0702,-5.0702,-5.0702,-5.0702,-5.0702,-5.0702,-5.0702,-5.0702,-5.0702,-5.0702,-5.0702,-5.0702,-5.0702,-5.0702,-5.0702,-5.0702,-5.0702,-5.0702,-5.0702,-5.0702,-5.0702,-5.0702,-5.0702,-5.0702,-5.0702,-5.0702,-5.0702,-5.0702,-5.0702,-5.0702,-5.0702,-5.0702,-5.0702,-5.0702,-5.0702,-5.0702,-5.0702,-5.0702,-5.0702,-5.0702,-5.0702,-5.0702,-5.0702,-5.0702,-5.0702,-5.0702,-5.0683,-5.0643,-5.0624,-5.0604,-5.0565,-5.0604,-5.0624,-5.0624,-5.0624,-5.0483,-5.0116,-4.9999,-4.9617,-4.893,-4.8863,-4.8657,-4.8306,-4.8306,-4.8306,-4.8306,-4.8306,-4.8306,0.0,0.0,0.0,0.0,0.0,0.0,-4.8807,-4.9437,-5.0043,0.0,0.0,0.0,0.0,0.0,0.0,0.0,0.0,0.0,0.0,0.0,0.0,0.0,0.0,0.0,0.0,-5.1296,-5.1222,-5.1203,-5.1049,-5.0895,-5.0741,-5.0702,-5.0702,-5.0702,-5.0702,-5.0702,-5.0702,-5.0702,-5.0702,-5.0702,-5.0702,-5.0702,-5.0702,-5.0702,-5.0702,-5.0702,-5.0702,-5.0702,-5.0702,-5.0702,-5.0702,-5.0702,-5.0702,-5.0702,-5.0702,-5.0702,-5.0702,-5.0702,-5.0702,-5.0702,-5.0702,-5.0702,-5.0702,-5.0702,-5.0702,-5.0702,-5.0702,-5.0702,-5.0702,-5.0702,-5.0702,-5.0702,-5.0702,-5.0702,-5.0702,-5.0702,-5.0702,-5.0702,-5.0702,-5.0702,-5.0702,-5.0702,-5.0702,-5.0702,-5.0702,-5.0702,-5.0702,-5.0702,-5.0702,-5.0702,-5.0584,-5.0249,-5.0225,-5.0092,-4.9773,-5.0043,-5.0225,-5.0225,-5.0225,-5.0183,-5.0092,-4.9475,-4.9043,-4.8897,-4.8568,-4.8402,-4.8306,-4.8306,-4.8306,-4.8306,-4.8306,-4.8306,0.0,0.0,0.0,-4.6289,0.0,0.0,0.0,-4.9692,-5.0178,0.0,0.0,0.0,0.0,0.0,0.0,0.0,0.0,0.0,0.0,0.0,0.0,0.0,0.0,0.0,0.0,-5.1241,-5.1164,-5.1068,-5.0914,-5.076,-5.0702,-5.0702,-5.0702,-5.0702,-5.0702,-5.0702,-5.0702,-5.0702,-5.0702,-5.0702,-5.0702,-5.0702,-5.0702,-5.0702,-5.0702,-5.0702,-5.0702,-5.0702,-5.0702,-5.0702,-5.0702,-5.0702,-5.0702,-5.0702,-5.0702,-5.0702,-5.0702,-5.0702,-5.0702,-5.0702,-5.0702,-5.0702,-5.0702,-5.0702,-5.0702,-5.0702,-5.0702,-5.0702,-5.0702,-5.0702,-5.0702,-5.0702,-5.0702,-5.0702,-5.0702,-5.0702,-5.0702,-5.0702,-5.0702,-5.0702,-5.0702,-5.0702,-5.0702,-5.0702,-5.0702,-5.0702,-5.0702,-5.0702,-5.0702,-5.0702,-5.0544,-5.0159,-5.0092,-5.0019,-4.98,-4.98,-4.9898,-5.0092,-4.9924,-4.9719,-4.9504,-4.9108,-4.8813,-4.8586,-4.8383,-4.8306,-4.8306,-4.8306,-4.8306,-4.8306,-4.8306,-4.8306,0.0,0.0,0.0,0.0,0.0,-4.9234,0.0,0.0,0.0,0.0,0.0,0.0,0.0,0.0,0.0,0.0,0.0,0.0,0.0,0.0,0.0,0.0,0.0,0.0,0.0,-5.1163,-5.1068,-5.0895,-5.076,-5.0702,-5.0702,-5.0702,-5.0702,-5.0702,-5.0702,-5.0702,-5.0702,-5.0702,-5.0702,-5.0702,-5.0702,-5.0702,-5.0702,-5.0624,-5.0624,-5.0702,-5.0624,-5.0624,-5.0702,-5.0702,-5.0702,-5.0702,-5.0702,-5.0702,-5.0702,-5.0702,-5.0702,-5.0702,-5.0702,-5.0702,-5.0702,-5.0702,-5.0702,-5.0702,-5.0702,-5.0702,-5.0702,-5.0702,-5.0702,-5.0702,-5.0702,-5.0702,-5.0702,-5.0702,-5.0702,-5.0702,-5.0702,-5.0702,-5.0702,-5.0702,-5.0702,-5.0702,-5.0702,-5.0702,-5.0702,-5.0702,-5.0624,-5.0565,-5.0565,-5.0523,-5.0294,-4.9905,-4.9853,-4.9827,-4.9773,-4.9532,-4.9532,-4.9853,-4.9561,-4.9234,-4.893,-4.8847,-4.8621,-4.8306,-4.8306,-4.8306,-4.8306,-4.8306,-4.8306,-4.8306,-4.8306,-4.8306,0.0,0.0,0.0,0.0,-4.8958,0.0,0.0,0.0,0.0,0.0,0.0,0.0,0.0,0.0,0.0,0.0,0.0,0.0,0.0,0.0,0.0,0.0,0.0,0.0,0.0,-5.099,-5.0895,-5.0721,-5.0702,-5.0702,-5.0702,-5.0702,-5.0702,-5.0702,-5.0702,-5.0702,-5.0702,-5.0702,-5.0702,-5.0702,-5.0702,-5.0702,-5.0683,-5.0336,-5.0358,-5.0683,-5.0336,-5.0358,-5.0702,-5.0702,-5.0702,-5.0702,-5.0702,-5.0702,-5.0702,-5.0702,-5.0702,-5.0702,-5.0702,-5.0702,-5.0702,-5.0702,-5.0702,-5.0702,-5.0702,-5.0702,-5.0702,-5.0702,-5.0702,-5.0702,-5.0702,-5.0702,-5.0702,-5.0702,-5.0702,-5.0702,-5.0702,-5.0702,-5.0702,-5.0702,-5.0702,-5.0702,-5.0702,-5.0702,-5.0702,-5.0702,-5.0399,-5.0159,-5.0159,-4.9872,-4.9475,-4.9075,-4.9043,-4.8897,-4.855,-4.8779,-4.8996,-4.9043,-4.8978,-4.8963,-4.8897,-4.8586,-4.8326,-4.8306,-4.8306,-4.8306,-4.8306,-4.8306,-4.8306,-4.8306,-4.8306,-4.8306,0.0,0.0,0.0,0.0,0.0,0.0,-5.0092,0.0,-5.0912,0.0,0.0,0.0,0.0,0.0,0.0,0.0,0.0,0.0,0.0,0.0,0.0,0.0,0.0,0.0,0.0,0.0,0.0,0.0,-5.0702,-5.0702,-5.0702,-5.0702,-5.0702,-5.0702,-5.0702,-5.0702,-5.0702,-5.0702,-5.0702,-5.0702,-5.0462,-5.0358,-5.0336,-4.9949,-4.9974,-5.0336,-5.0183,-5.0336,-5.0702,-5.0702,-5.0702,-5.0702,-5.0702,-5.0702,-5.0702,-5.0702,-5.0702,-5.0702,-5.0702,-5.0702,-5.0702,-5.0702,-5.0702,-5.0702,-5.0702,-5.0702,-5.0702,-5.0702,-5.0702,-5.0702,-5.0702,-5.0702,-5.0702,-5.0702,-5.0702,-5.0702,-5.0702,-5.0702,-5.0702,-5.0702,-5.0504,-5.0421,-5.0663,-5.0702,-5.0624,-5.0399,-5.0206,-5.0019,-4.9773,-4.9589,-4.9356,-4.8963,-4.8897,-4.8829,-4.8657,-4.8604,-4.8657,-4.8897,-4.8692,-4.8532,-4.8532,-4.8402,-4.8306,-4.8306,-4.8306,-4.8306,-4.8306,-4.8306,-4.8306,-4.8306,-4.8306,-4.8306,-4.7968,0.0,0.0,0.0,0.0,0.0,0.0,0.0,0.0,0.0,0.0,0.0,0.0,0.0,0.0,-5.0721,0.0,-5.0818,0.0,0.0,0.0,0.0,0.0,0.0,0.0,0.0,0.0,-5.0544,-5.0544,-5.0565,-5.0683,-5.0702,-5.0702,-5.0702,-5.0702,-5.0702,-5.0702,-5.0702,-5.0624,-5.0544,-5.0249,-5.0043,-4.9924,-4.9532,-4.9561,-4.9949,-4.9949,-5.0159,-5.0544,-5.0663,-5.0643,-5.0544,-5.0663,-5.0565,-5.0399,-5.0624,-5.0624,-5.0544,-5.0663,-5.0702,-5.0663,-5.0442,-5.0462,-5.0504,-5.0399,-5.0358,-5.038,-5.0504,-5.0544,-5.0565,-5.0663,-5.0624,-5.0544,-5.0544,-5.0442,-5.0399,-5.0504,-5.0462,-5.0421,-5.0663,-5.0291,-5.0068,-5.0462,-5.0442,-5.0313,-5.0135,-4.9905,-4.9692,-4.9386,-4.9234,-4.9062,-4.8779,-4.8763,-4.8763,-4.8763,-4.8495,-4.8421,-4.8728,-4.8458,-4.8306,-4.8306,-4.8306,-4.8306,-4.8306,-4.8306,-4.8306,-4.8306,-4.8306,-4.8306,-4.8306,-4.8306,-4.8306,0.0,0.0,0.0,-5.0068,0.0,0.0,0.0,0.0,-5.1082,0.0,0.0,0.0,0.0,0.0,-5.0875,-5.0721,-5.0702,0.0,0.0,0.0,0.0,0.0,0.0,0.0,0.0,0.0,0.0,-5.0135,-5.0135,-5.0272,-5.0683,-5.0702,-5.0702,-5.0702,-5.0702,-5.0702,-5.0702,-5.0702,-5.0504,-5.0135,-5.0111,-4.9898,-4.9522,-4.9108,-4.9139,-4.9504,-4.9504,-4.9746,-5.0159,-5.0544,-5.0483,-5.0159,-5.0544,-5.0206,-4.9617,-5.0421,-5.0442,-5.0183,-5.0565,-5.0702,-5.0565,-4.98,-4.98,-5.0043,-4.9664,-4.9532,-4.9617,-5.0019,-5.0135,-5.0206,-5.0604,-5.0421,-5.0135,-5.0135,-4.9827,-4.9664,-5.0043,-4.98,-4.9773,-5.0544,-5.0068,-4.9664,-5.0043,-4.98,-4.9664,-5.0043,-4.9445,-4.893,-4.893,-4.8568,-4.8326,-4.8344,-4.8306,-4.8306,-4.8306,-4.8306,-4.8306,-4.8306,-4.8306,-4.8306,-4.8306,-4.8306,-4.8306,-4.8306,-4.8306,-4.8306,-4.8306,-4.8306,-4.8306,-4.8306,-4.8306,-4.8306,0.0,0.0,-5.0353,-5.0353,0.0,0.0,0.0,0.0,0.0,0.0,0.0,0.0,0.0,-5.1087,-5.0991,-5.0856,-5.0837,-5.0818,0.0,0.0,0.0,0.0,0.0,0.0,0.0,0.0,0.0,-4.9719,-4.9719,-4.9898,-5.0272,-5.0294,-5.0421,-5.0683,-5.0702,-5.0702,-5.0702,-5.0421,-5.0249,-5.0092,-4.9561,-4.9215,-4.9075,-4.8692,-4.8709,-4.9108,-4.9108,-4.9326,-4.9719,-4.9853,-4.9846,-4.9719,-4.9853,-4.9746,-4.958,-5.0092,-5.0043,-4.9719,-4.9853,-4.9898,-4.9853,-4.9608,-4.9589,-4.9692,-4.9532,-4.9504,-4.9532,-4.9645,-4.9719,-4.9746,-4.9872,-4.98,-4.9719,-4.9719,-4.9608,-4.9532,-4.9673,-4.9608,-4.9561,-4.9853,-4.9475,-4.9234,-4.9617,-4.9139,-4.8847,-4.9265,-4.9075,-4.8795,-4.855,-4.8383,-4.8306,-4.8306,-4.8306,-4.8306,-4.8306,-4.8306,-4.8306,-4.8306,-4.8306,-4.8306,-4.8306,-4.8306,-4.8306,-4.8306,-4.8306,-4.8306,-4.8306,-4.8306,-4.8306,-4.8306,-4.8306,-4.8306,-5.008,-5.0424,0.0,-5.0703,-5.0914,0.0,-5.1103,0.0,0.0,0.0,0.0,0.0,0.0,0.0,-5.1054,-5.0856,-5.0875,-5.0856,0.0,-5.0702,0.0,0.0,0.0,0.0,0.0,0.0,-4.9295,-4.9295,-4.9295,-4.9532,0.0,0.0,-5.0225,-5.0483,-5.0483,-5.0421,-5.0272,-5.0019,-4.9827,-4.9673,-4.9139,-4.8847,-4.8692,-4.8421,-4.8458,-4.8674,-4.8847,-4.9062,-4.9295,-4.9445,-4.9416,-4.9295,-4.9445,-4.9326,-4.9158,-4.9692,-4.9719,-4.9445,-4.9171,-4.9265,-4.9445,-4.919,-4.9171,-4.9265,-4.9126,-4.9062,-4.915,-4.959,-4.949,-4.9401,-4.9803,-4.9612,-4.9295,-4.9295,-4.9171,-4.9126,-4.9265,-4.9171,-4.9158,-4.9445,-4.9062,-4.8813,-4.9202,-4.8728,-4.8421,-4.8829,-4.8779,-4.8604,-4.8326,-4.8306,-4.8306,-4.8306,-4.8306,-4.8306,-4.8306,-4.8306,-4.8306,-4.8306,-4.8306,-4.8306,-4.8306,-4.8306,-4.8306,-4.8306,-4.8306,-4.8306,-4.8306,-4.8306,-4.8306,-4.8306,-4.8306,-4.8306]}]]